     2              OBSERVATION DATA    GPS                 RINEX VERSION / TYPE
TRRINEXO V2.4.6 UX                                          PGM / RUN BY / DATE
                                                            COMMENT
BIT 2 OF LLI (+4) FLAGS DATA COLLECTED UNDER "AS" CONDITION COMMENT
Original Marker Name: deso                                  COMMENT
Campaign Name: STRC 1995                                    COMMENT
4-Character Station Name: DESO                              COMMENT
6-Character Antenna Code: TRMSST                            COMMENT
Vertical Measurement Point: TGP                             COMMENT
Vertical Offset to Rinex Ref. Point: 0.0629                 COMMENT
Radial Measurement Point: NGP                               COMMENT
Radial Offset to Rinex Ref. Point: 0.2334                   COMMENT
Antenna Height from Field Measurement: 1.4750 m             COMMENT
Original XYZ: -2278139.8975 -4797691.9523 3520382.9939      COMMENT
New XYZ position is based on association with SCEC monument COMMENT
E1D0V3K4+0011. Position of that monument is believed to be  COMMENT
valid to within 1 m horizontally; vertical accuracy         COMMENT
should be no worse than 3-times this value.                 COMMENT
                                                            COMMENT
Revised Rinex header created by UCSD GPS archive for        COMMENT
GSAC on 17-Apr-1999 (1999:107) 00:47:44 GMT                 COMMENT
For assistance contact dagnew@ucsd.edu or hjohnson@ucsd.edu COMMENT
                                                            COMMENT
DESO (3D)                                                   MARKER NAME
DESERT CENTER                                               MARKER NUMBER
R. Barriga IGM - CHILE                                      OBSERVER / AGENCY
436 TRIMBLE 4000 SST 4.81                                   REC # / TYPE / VERS
26 TR 4000SST L1/L2 GEO                                     ANT # / TYPE
 -2278130.0000 -4797651.0000  3520338.0000                  APPROX POSITION XYZ
        1.3935        0.0000        0.0000                  ANTENNA: DELTA H/E/N
     1     2     0                                          WAVELENGTH FACT L1/2
     3    C1    L1    L2                                    # / TYPES OF OBSERV
    30                                                      INTERVAL
  1995     2    18    16     0   30.000000                  TIME OF FIRST OBS
  1995     2    18    23    59   60.000000                  TIME OF LAST OBS
     0                                                      # OF SATELLITES
                                                            END OF HEADER
 95  2 18 16  0 30.0000000  0  6 25  1 14 22 29 15
  21466905.812          -0.07817
  24674663.023          -0.73815
  21564147.914          -0.39717
  22943766.258          -0.86015
  23300371.914          -0.86216
  21912587.836          -0.23716
 95  2 18 16  1  0.0000000  0  6 25  1 14 22 29 15
  21471882.227       26156.200 7        -0.46419
  24682301.859       40130.583 5
  21545068.359     -100260.443 7        -0.28018
  22921709.359     -115917.595 6
  23283007.258      -91261.657 6
  21919198.062       34719.057 6        -0.07417
 95  2 18 16  1 30.0000000  0  6 25  1 14 22 29 15
  21476918.422       52616.454 7     20617.891 9
  24689927.586       80203.225 5        -0.06213
  21526034.602     -200280.523 7    -77938.007 8
  22899686.000     -231657.752 5        -0.22915
  23265638.984     -182522.560 5        -0.18415
  21925877.336       69827.353 6     27356.992 6
 95  2 18 16  2  0.0000000  0  6 25  1 14 22 29 15
  21482009.008       79361.934 7     41458.498 9
  24697540.648      120214.635 5     31177.548 3
  21507041.883     -300091.850 7   -155713.067 8
  22877695.156     -347231.650 6    -90057.816 5
  23248275.672     -273770.683 5    -71102.596 5
  21932629.148      105315.698 6     55010.210 7
 95  2 18 16  2 30.0000000  0  6 25  1 14 22 29 15
  21487150.703      106387.486 7     62517.347 9
  24705145.828      160177.389 5     62317.239 3
  21488086.492     -399701.923 7   -233331.311 8
  22855732.031     -462627.715 6   -179976.821 5
  23230921.508     -364983.081 6   -142177.166 5
  21939457.219      141185.797 6     82960.901 7
 95  2 18 16  3  0.0000000  0  6 25  1 14 22 29 15
  21492346.617      133696.973 7     83797.444 8
  24712743.156      200092.922 5     93420.160 2
  21469169.805     -499114.517 7   -310795.674 8
  22833809.875     -577831.008 6   -269745.627 5
  23213570.977     -456147.459 6   -213214.315 5
  21946356.742      177436.539 6    111208.182 7
 95  2 18 16  3 30.0000000  0  6 25  1 14 22 29 15
  21497596.445      161286.938 7    105296.095 9
  24720325.016      239962.021 5    124486.889 2
  21450289.617     -598327.451 7   -388104.453 8
  22811927.648     -692839.313 6   -359362.450 5
  23196228.750     -547272.981 6   -284221.202 5
  21953326.977      214062.037 6    139747.489 6
 95  2 18 16  4  0.0000000  0  6 25  1 14 22 29 15
  21502902.914      189166.813 7    127020.645 8
  24727904.484      279783.894 5    155516.825 1
  21431454.039     -697312.635 7   -465235.769 8
  22790081.508     -807637.313 6   -448815.424 5
  23178894.961     -638362.909 6   -355200.355 5
  21960364.406      251063.040 6    168579.396 7
 95  2 18 16  4 30.0000000  0  6 25  1 14 22 29 15
  21508263.844      217341.796 7    148975.153 8
  24735472.391      319547.974 5    186501.745 2
  21412662.641     -796055.527 7   -542178.284 8
  22768275.719     -922203.068 6   -538087.407 5
  23161566.609     -729432.261 6   -426163.473 5
  21967476.062      288433.479 6    197699.164 7
 95  2 18 16  5  0.0000000  0  6 25  1 14 22 29 15
  21513683.727      245824.358 7    171169.327 8
  24743026.687      359265.564 5    217450.404 1
  21393922.141     -894543.090 7   -618921.842 8
  22746520.422    -1036534.099 6   -627176.491 5
  23144241.320     -820473.533 6   -497104.725 5
  21974660.703      326178.393 6    227110.738 6
 95  2 18 16  5 30.0000000  0  6 25  1 14 22 29 15
  21519161.055      274601.156 7    193592.784 8
  24750573.031      398927.124 4    248355.396 1
  21375224.656     -992790.714 7   -695478.436 8
  22724806.805    -1150656.654 6   -716103.097 5
  23126924.477     -911489.854 6   -568026.527 5
  21981913.258      364285.452 6    256804.507 6
 95  2 18 16  6  0.0000000  0  6 25  1 14 22 29 15
  21524693.070      303680.300 7    216251.837 8
  24758115.641      438538.614 4    279221.436 2
  21356579.094    -1090781.639 7   -771835.004 8
  22703134.078    -1264538.658 6   -804842.306 5
  23109612.797    -1002449.107 6   -638903.869 5
  21989235.969      402766.304 6    286789.543 6
 95  2 18 16  6 30.0000000  0  6 25  1 14 22 29 15
  21530283.742      333056.047 7    239142.007 8
  24765647.719      478104.651 5    310052.007 3
  21337975.477    -1188536.874 7   -848007.915 8
  22681509.164    -1378184.869 6   -893397.749 6
  23092316.961    -1093345.850 6   -709732.479 5
  21996628.461      441609.435 6    317056.882 6
 95  2 18 16  7  0.0000000  0  6 25  1 14 22 29 15
  21535929.195      362715.576 7    262253.302 8
  24773168.336      517628.088 5
  21319417.977    -1286062.066 7   -924001.571 8
  22659926.719    -1491606.946 6   -981778.545 6
  23075029.344    -1184183.227 6   -780514.838 5
  22004087.062      480814.411 6
 95  2 18 16  7 30.0000000  0  6 25  1 14 22 29 15
  21541627.453      392654.549 7    285582.350 8
  24780671.820      557102.020 5    371608.179 3
  21300906.000    -1383338.262 7   -999801.204 8
  22638384.352    -1604794.800 6  -1069976.827 6
  23057750.180    -1274969.186 6   -851257.134 5
  22011614.125      520379.221 6    378435.853 6
 95  2 18 16  8  0.0000000  0  6 25  1 14 22 29 15
  21547376.289      422868.492 7    309125.653 8
  24788181.508      596532.982 5    402333.507 4
  21282446.000    -1480350.917 7  -1075395.481 8
  22616890.758    -1717751.016 6  -1157994.612 5
  23040488.672    -1365720.672 6   -921972.577 5
  22019212.875      560298.999 6    409542.126 6
 95  2 18 16  8 30.0000000  0  6 25  1 14 22 29 15
  21553176.867      453361.481 7    332886.403 8
  24795681.523      635936.975 5    433037.780 5
  21264034.180    -1577106.682 7  -1150789.579 8
  22595436.492    -1830504.682 6  -1245854.570 5
  23023218.766    -1456449.936 6   -992670.707 5
  22026875.766      600570.184 6    440922.236 6
 95  2 18 16  9  0.0000000  0  6 25  1 14 22 29 15
  21559035.211      484130.896 7    356862.546 8
  24803177.945      675313.424 5    463720.640 4
  21245675.086    -1673587.055 7  -1225969.099 8
  22574016.875    -1943044.491 6  -1333547.891 6
  23005957.328    -1547156.362 6  -1063351.040 5
  22034604.438      641197.409 6    472579.760 6
 95  2 18 16  9 30.0000000  0  6 25  1 14 22 29 15
  21564943.445      515195.780 7    381068.915 8
  24810666.234      714673.143 5    494390.465 5
  21227367.742    -1769785.841 7  -1300929.197 8
  22552645.914    -2055363.255 6  -1421068.986 6
  22988706.516    -1637831.222 6  -1134006.795 5
  22042408.359      682178.765 6    504513.248 6
 95  2 18 16 10  0.0000000  0  6 25  1 14 22 29 15
  21570912.867      546549.073 7    405500.037 8
  24818149.094      754008.834 5    525041.531 4
  21209114.039    -1865718.950 7  -1375682.268 8
  22531314.148    -2167457.320 6  -1508414.969 6
  22971451.906    -1728481.171 6  -1204643.106 5
  22050266.797      723504.988 6    536715.458 6
 95  2 18 16 10 30.0000000  0  6 25  1 14 22 29 15
  21576932.961      578198.844 7    430162.171 8
  24825628.281      793314.996 4    555669.604 4
  21190909.500    -1961370.554 7  -1450215.990 8
  22510034.375    -2279293.220 6  -1595559.808 6
  22954212.602    -1819090.120 6  -1275247.487 5
  22058202.273      765182.990 6    569191.773 6
 95  2 18 16 11  0.0000000  0  6 25  1 14 22 29 15
  21583008.922      610121.179 7    455036.691 8
  24833095.828      832551.320 3    586243.236 4
  21172761.328    -2056745.868 7  -1524534.418 8
  22488796.312    -2390872.534 6  -1682504.704 6
  22936974.320    -1909681.268 6  -1345837.973 5
  22066192.008      807191.255 6    601925.441 6
 95  2 18 16 11 30.0000000  0  6 25  1 14 22 29 15
  21589139.570      642334.414 7    480137.886 8
  24840551.461      871723.865 4    616767.154 4
  21154668.148    -2151821.948 7  -1598619.678 8
  22467621.656    -2502185.950 6  -1769242.410 6
  22919740.391    -2000241.174 6  -1416404.135 5
  22074254.797      849544.239 6    634927.722 6
 95  2 18 16 12  0.0000000  0  6 25  1 14 22 29 15
  21595321.242      674816.677 7    505448.710 8
  24847995.359      910817.882 3    647229.889 4
  21136634.859    -2246601.296 7  -1672473.724 8
  22446480.336    -2613241.202 6  -1855778.951 6
  22902509.359    -2090776.712 6  -1486951.309 5
  22082375.758      892229.420 6    668188.860 6
 95  2 18 16 12 30.0000000  0  5 25 14 22 29 15
  21601551.633      707565.106 7    530966.943 8
  21118653.078    -2341089.323 7  -1746100.760 8
  22425399.734    -2724040.883 6  -1942116.356 6
  22885293.508    -2181275.096 6  -1557469.508 5
  22090561.570      935246.604 6    701708.692 6
 95  2 18 16 13  0.0000000  0  5 25 14 22 29 15
  21607834.102      740583.975 7    556695.903 8
  21100730.117    -2435281.940 7  -1819497.608 8
  22404364.766    -2834586.201 6  -2028255.552 6
  22868074.625    -2271736.472 6  -1627958.892 6
  22098812.961      978598.564 6    735489.395 6
 95  2 18 16 13 30.0000000  0  5 25 14 22 29 15
  21614169.133      773868.671 7    582632.007 8
  21082859.633    -2529181.369 7  -1892666.000 8
  22383375.805    -2944872.355 6  -2114192.806 6
  22850869.664    -2362161.231 6  -1698419.726 5
  22107126.734     1022280.331 6    769527.082 6
 95  2 18 16 14  0.0000000  0  5 25 14 22 29 15
  21620554.492      807420.032 7    608775.892 8
  21065044.961    -2622795.153 7  -1965611.810 8
  22362446.211    -3054876.563 6  -2199910.372 6
  22833671.375    -2452556.453 6  -1768857.550 5
  22115496.867     1066290.158 6    803820.403 6
 95  2 18 16 14 30.0000000  0  5 25 14 22 29 15
  21626989.766      841235.021 7    635125.200 8
  21047288.422    -2716117.009 7  -2038330.148 8
  22341567.516    -3164590.443 6  -2285401.694 6
  22816470.438    -2542924.186 6  -1839273.983 5
  22123934.070     1110628.712 6    838369.871 6
 95  2 18 16 15  0.0000000  0  5 25 14 22 29 15
  21633474.938      875312.024 7    661678.677 8
  21029587.555    -2809140.437 7  -2110815.943 8
  22320744.516    -3274007.605 6  -2370661.809 6
  22799275.766    -2633277.010 6  -1909678.742 6
  22132434.336     1155287.882 6    873169.179 6
 95  2 18 16 15 30.0000000  0  5 25 14 22 29 15
  21640006.117      909637.913 7    688426.094 8
  21011936.633    -2901879.797 7  -2183080.386 8
  22299982.961    -3383118.339 6  -2455683.161 6
  22782088.867    -2723603.812 6  -1980063.268 6
  22140993.820     1200263.266 6    908214.880 6
 95  2 18 16 16  0.0000000  0  5 25 14 22 29 15
  21646583.758      944205.007 7    715361.462 8
  20994346.578    -2994329.804 7  -2255119.360 8
  22279274.531    -3491921.111 6  -2540464.542 6
  22764908.391    -2813883.894 6  -2050411.363 6
  22149613.172     1245555.253 6    943507.288 6
 95  2 18 16 16 30.0000000  0  5 25 14 22 29 15
  21653205.664      979007.988 7    742480.642 8
  20976807.828    -3086487.499 7  -2326930.560 8
  22258627.859    -3600434.454 6  -2625020.385 6
  22747738.344    -2904108.962 6  -2120716.593 6
  22158289.945     1291155.149 6    979039.622 6
 95  2 18 16 17  0.0000000  0  5 25 14 22 29 15
  21659878.156     1014070.233 7    769801.841 8
  20959330.391    -3178332.393 7  -2398498.011 8
  22238039.859    -3708632.346 6  -2709330.421 6
  22730585.609    -2994264.890 6  -2190967.952 6
  22167028.859     1337078.841 6   1014824.263 6
 95  2 18 16 17 30.0000000  0  5 25 14 22 29 15
  21666599.234     1049384.168 7    797319.167 8
  20941914.211    -3269863.077 7  -2469820.633 8
  22217504.523    -3816530.854 6  -2793407.177 6
  22713441.148    -3084365.918 6  -2261176.517 5
  22175826.336     1383311.911 6   1050849.985 6
 95  2 18 16 18  0.0000000  0  5 25 14 22 29 15
  21673371.078     1084964.067 7    825043.733 8
  20924558.484    -3361059.904 7  -2540883.104 8
  22197029.438    -3924148.652 6  -2877265.187 6
  22696296.438    -3174436.987 6  -2331361.758 6
  22184677.852     1429842.082 6   1087107.211 6
 95  2 18 16 18 30.0000000  0  5 25 14 22 29 15
  21680194.250     1120826.394 7    852988.380 8
  20907271.016    -3451905.232 7  -2611671.690 8
  22176605.477    -4031469.053 6  -2960891.451 6
  22679165.703    -3264485.429 6  -2401529.374 5
  22193590.758     1476675.471 6   1123600.706 6
 95  2 18 16 19  0.0000000  0  5 25 14 22 29 15
  21687068.672     1156953.199 7    881139.107 8
  20890053.664    -3542398.238 7  -2682185.724 9
  22156236.078    -4138494.036 6  -3044287.518 6
  22662028.539    -3354515.985 6  -2471683.018 5
  22202560.945     1523804.563 6   1160324.614 6
 95  2 18 16 19 30.0000000  0  5 25 14 22 29 15
  21693991.336     1193343.660 7    909495.286 8
  20872899.391    -3632537.020 7
  22135929.898    -4245219.244 6  -3127449.991 6
  22644903.633    -3444508.957 6
  22211591.203     1571231.765 6   1197280.826 6
 95  2 18 16 20  0.0000000  0  5 25 14 22 29 15
  21700962.500     1229975.666 7    938039.672 8
  20855808.781    -3722344.268 7  -2822403.428 8
  22115678.586    -4351641.714 6  -3210376.567 6
  22627788.664    -3534459.031 6  -2611898.344 5
  22220668.727     1618951.379 6   1234464.892 6
 95  2 18 16 20 30.0000000  0  5 25 14 22 29 15
  21707976.797     1266827.688 7    966755.500 8
  20838777.320    -3811842.847 7  -2892142.592 8
  22095488.914    -4457743.881 6  -3293053.547 6
  22610684.156    -3624347.333 6  -2681941.165 6
  22229802.789     1666962.151 6   1271875.819 6
 95  2 18 16 20 59.9990000  0  5 25 14 22 29 15
  21715030.487     1303895.974 7    995639.848 8
  20821803.698    -3901046.625 7  -2961652.038 9
  22075357.847    -4563518.723 6  -3375475.470 6
  22593588.565    -3714166.556 6  -2751930.142 6
  22238991.651     1715254.572 6   1309506.222 6
 95  2 18 16 21 29.9990000  0  5 25 14 22 29 15
  21722129.636     1341197.722 7   1024706.118 8
  20804883.003    -3989961.208 7  -3030936.138 9
  22055292.800    -4668961.352 6  -3457638.533 6
  22576512.519    -3803919.991 6  -2821867.879 6
  22248240.987     1763830.726 6   1347357.715 6
 95  2 18 16 21 59.9990000  0  5 25 14 22 29 15
  21729269.917     1378726.626 7   1053949.384 7
  20788019.706    -4078575.726 7  -3099986.418 8
  22035295.144    -4774071.316 6  -3539542.371 6
  22559440.245    -3893615.239 6  -2891760.259 6
  22257532.417     1812684.591 6   1385425.603 6
 95  2 18 16 22 29.9990000  0  5 25 14 22 29 15
  21736455.362     1416493.831 7   1083378.344 8
  20771221.003    -4166864.251 7  -3168782.679 8
  22015354.229    -4878847.512 6  -3621186.132 6
  22542384.284    -3983255.252 6  -2961609.619 6
  22266883.464     1861815.302 6   1423709.211 6
 95  2 18 16 22 59.9990000  0  5 25 14 22 29 15
  21743687.815     1454491.802 7   1112987.118 7
  20754486.495    -4254808.262 7  -3237310.484 9
  21995476.847    -4983297.363 6  -3702575.598 6
  22525332.909    -4072858.371 6  -3031430.231 6
  22276285.503     1911221.539 6   1462207.521 6
 95  2 18 16 23 29.9990000  0  5 25 14 22 29 15
  21750960.308     1492706.422 7   1142764.707 7
  20737816.206    -4342396.329 7  -3305560.930 8
  21975661.589    -5087423.267 6  -3783712.626 6
  22508288.948    -4162435.803 6  -3101230.830 6
  22285736.862     1960899.290 6   1500917.408 6
 95  2 18 16 23 59.9990000  0  5 25 14 22 29 15
  21758271.542     1531126.656 7   1172702.527 7
  20721214.870    -4429632.352 7  -3373537.053 9
  21955913.167    -5191221.091 6  -3864594.016 6
  22491245.995    -4251996.484 6  -3171018.378 6
  22295244.855     2010843.905 6   1539835.235 5
 95  2 18 16 24 29.9990000  0  5 25 14 22 29 15
  21765623.956     1569761.514 7   1202807.573 7
  20704681.073    -4516517.308 7  -3441239.621 9
  21936227.058    -5294676.946 6  -3945208.935 6
  22474207.675    -4341537.285 6  -3240790.445 6
  22304796.183     2061055.659 6   1578961.217 6
 95  2 18 16 24 59.9990000  0  5 25 14 22 29 15
  21773016.815     1608612.735 7   1233081.225 7
  20688214.870    -4603057.056 7  -3508673.191 8
  21916602.214    -5397781.498 6  -4025550.122 6
  22457173.573    -4431050.629 6  -3310541.097 6
  22314404.815     2111531.446 6   1618292.937 6
 95  2 18 16 25 29.9990000  0  5 25 14 22 29 15
  21780453.581     1647692.730 7   1263533.143 7
  20671814.151    -4689243.495 7  -3575831.452 9
  21897052.339    -5500519.044 6  -4105605.325 6
  22440150.894    -4520515.025 6  -3380253.616 6
  22324057.417     2162270.433 6   1657829.761 5
 95  2 18 16 25 59.9990000  0  5 25 14 22 29 15
  21787933.815     1687001.863 7   1294163.607 7
  20655481.120    -4775074.308 7  -3642712.607 9
  21877577.800    -5602882.520 6  -4185369.032 6
  22423133.120    -4609928.172 6  -3449926.184 6
  22333763.073     2213269.589 6   1697569.301 6
 95  2 18 16 26 29.9990000  0  5 25 14 22 29 15
  21795455.456     1726534.905 7   1324968.550 7
  20639217.675    -4860542.565 7  -3709311.249 9
  21858168.870    -5704864.506 6  -4264835.491 6
  22406129.104    -4699289.488 6  -3519558.377 6
  22343516.417     2264522.141 6   1737506.287 6
 95  2 18 16 26 59.9990000  0  5 25 14 22 29 15
  21803018.237     1766267.577 7   1355929.049 7
  20623021.651    -4945656.919 7  -3775634.121 9
  21838831.104    -5806472.712 6  -4344010.693 6
  22389131.401    -4788607.963 6  -3589157.181 6
  22353312.167     2316009.370 6   1777626.152 6
 95  2 18 16 27 29.9990000  0  5 25 14 22 29 15
  21810619.823     1806218.425 7   1387059.561 7
  20606896.339    -5030393.942 7  -3841662.974 9
  21819574.261    -5907684.421 6  -4422876.926 6
  22372143.550    -4877875.683 6  -3658716.419 6
  22363160.612     2367751.465 6   1817944.602 5
 95  2 18 16 27 59.9990000  0  5 25 14 22 29 15
  21818261.675     1846386.230 7   1418359.133 7
  20590840.581    -5114761.187 7  -3907403.687 9
  21800387.089    -6008507.533 6  -4501440.349 6
  22355166.769    -4967099.806 6  -3728241.705 6
  22373056.308     2419743.043 6   1858457.458 6
 95  2 18 16 28 29.9990000  0  5 25 14 22 29 15
  21825946.901     1886760.496 7   1449819.572 7
  20574855.237    -5198764.854 7  -3972861.090 9
  21781267.925    -6108969.933 6  -4579722.706 6
  22338197.675    -5056284.529 6  -3797736.283 6
  22382989.612     2471968.769 6   1899152.770 6
 95  2 18 16 28 59.9990000  0  5 25 14 22 29 15
  21833670.339     1927348.463 7   1481446.536 7
  20558941.456    -5282394.551 7  -4038027.087 8
  21762216.792    -6209091.523 6  -4657739.487 6
  22321231.112    -5145425.620 6  -3867196.856 6
  22392977.409     2524430.271 6   1940031.810 5
 95  2 18 16 29 29.9990000  0  5 25 14 22 29 15
  21841434.886     1968157.711 7   1513245.922 7
  20543097.808    -5365648.696 7  -4102900.452 9
  21743231.050    -6308867.872 6  -4735487.243 6
  22304274.245    -5234525.967 6  -3936625.685 6
  22403005.995     2577132.674 6   1981098.540 6
 95  2 18 16 29 59.9990000  0  5 25 14 22 29 15
  21849240.386     2009177.271 7   1545209.193 7
  20527327.511    -5448534.375 7  -4167486.695 9
  21724306.019    -6408311.882 6  -4812976.041 6
  22287328.339    -5323580.174 6  -4006018.574 6
  22413077.597     2630063.539 6   2022343.319 6
 95  2 18 16 30 29.9990000  0  5 25 14 22 29 15
  21857086.917     2050403.043 7   1577333.147 7
  20511625.839    -5531041.478 7  -4231777.956 9
  21705447.964    -6507411.974 6  -4890196.846 6
  22270390.448    -5412595.652 6  -4075381.268 6
  22423188.690     2683220.821 6   2063764.510 6
 95  2 18 16 30 59.9990000  0  5 25 14 22 29 15
  21864968.245     2091827.197 7   1609611.683 7
  20495993.362    -5613188.090 7  -4295788.304 9
  21686657.550    -6606152.257 6  -4967137.274 6
  22253459.245    -5501583.560 6  -4144722.478 6
  22433350.378     2736595.076 6   2105354.767 5
 95  2 18 16 31 29.9990000  0  5 25 14 22 29 15
  21872887.823     2133448.652 7   1642043.963 7
  20480430.128    -5694966.582 7  -4359511.800 9
  21667943.753    -6704498.744 6  -5043770.852 6
  22236532.769    -5590532.477 6  -4214033.322 6
  22443550.581     2790192.954 6   2147119.279 6
 95  2 18 16 31 59.9990000  0  5 25 14 22 29 15
  21880847.034     2175269.930 7   1674631.937 7
  20464943.261    -5776364.145 7  -4422938.478 8
  21649304.870    -6802443.517 6  -5120091.424 6
  22219614.565    -5679430.126 6  -4283304.201 6
  22453789.104     2844011.814 6   2189055.983 5
 95  2 18 16 32 29.9990000  0  5 25 14 22 29 15
  21888843.823     2217288.876 7   1707373.944 7
  20449526.753    -5857374.128 7  -4486063.134 9
  21630746.964    -6899964.896 6  -5196082.070 6
  22202705.972    -5768277.222 6  -4352535.695 6
  22464073.886     2898053.230 6   2231166.105 5
 95  2 18 16 32 59.9990000  0  5 25 14 22 29 15
  21896876.964     2259502.247 7   1740267.454 7
  20434182.230    -5937999.786 7  -4548888.320 8
  21612269.995    -6997065.410 6  -5271744.776 6
  22185813.276    -5857069.377 6  -4421724.383 6
  22474396.144     2952310.932 6   2273444.770 5
 95  2 18 16 33 29.9990000  0  5 25 14 22 29 15
  21904944.698     2301898.926 7   1773303.807 7
  20418916.573    -6018228.265 7  -4611404.020 9
  21593875.073    -7093747.738 6  -5347081.633 6
  22168926.573    -5945801.550 6  -4490866.325 6
  22484763.651     3006780.145 6   2315888.245 5
 95  2 18 16 33 59.9990000  0  5 25 14 22 29 15
  21913048.628     2344486.522 7   1806488.922 7
  20403728.175    -6098050.811 7  -4673603.403 8
  21575550.870    -7190012.164 6  -5422092.847 6
  22152052.440    -6034470.567 6  -4559959.057 6
  22495169.995     3061460.926 6   2358496.578 5
 95  2 18 16 34 29.9990000  0  5 25 14 22 29 15
  21921185.503     2387249.151 7   1839810.426 7
  20388615.245    -6177463.315 7  -4735483.272 8
  21557315.300    -7285858.679 6  -5496778.424 6
  22135190.354    -6123078.558 6  -4629004.239 6
  22505615.753     3116346.762 6   2401264.678 6
 95  2 18 16 34 59.9990000  0  5 25 14 22 29 15
  21929356.565     2430190.509 7   1873271.203 7
  20373582.269    -6256458.198 7  -4797037.727 8
  21539156.190    -7381286.689 6  -5571137.897 6
  22118338.331    -6211625.398 6  -4698001.775 6
  22516100.198     3171437.913 6   2444192.775 5
 95  2 18 16 35 29.9990000  0  5 25 14 22 29 15
  21937559.558     2473288.324 7   1906853.896 7
  20358628.042    -6335048.962 7  -4858277.274 9
  21521070.737    -7476314.315 6  -5645185.376 6
  22101499.987    -6300133.121 6  -4766968.821 6
  22526617.370     3226717.567 6   2487267.768 5
 95  2 18 16 35 59.9990000  0  5 25 14 22 29 15
  21945791.948     2516558.202 7   1940570.663 7
  20343752.347    -6413223.995 7  -4919192.881 9
  21503069.323    -7570922.561 6  -5718906.074 7
  22084662.503    -6388595.471 6  -4835900.515 6
  22537174.690     3282195.452 6   2530497.220 5
 95  2 18 16 36 29.9990000  0  5 25 14 22 29 15
  21954057.011     2559989.514 7   1974413.224 7
  20328953.362    -6490991.133 7  -4979790.639 9
  21485146.378    -7665109.832 6  -5792298.744 7
  22067837.464    -6477019.654 6  -4904802.465 6
  22547766.792     3337863.935 6   2573875.188 5
 95  2 18 16 36 59.9990000  0  5 25 14 22 29 15
  21962353.862     2603582.467 7   2008381.736 7
  20314232.050    -6568364.440 7  -5040081.526 8
  21467298.534    -7758893.204 6  -5865376.675 7
  22051014.597    -6565420.649 6  -4973686.346 6
  22558394.269     3393711.240 6   2617392.497 5
 95  2 18 16 37 29.9990000  0  5 25 14 22 29 15
  21970685.198     2647360.530 7   2042494.488 7
  20299582.292    -6645326.081 7  -5100051.632 8
  21449532.729    -7852249.782 6  -5938122.051 7
  22034205.675    -6653763.829 6  -5042525.169 6
  22569056.550     3449754.554 5   2661062.542 5
 95  2 18 16 37 59.9990000  0  5 25 14 22 29 15
  21979047.651     2691311.493 7   2076741.963 7
  20285014.972    -6721895.453 7  -5159716.074 8
  21431849.769    -7945178.238 6  -6010533.835 6
  22017403.089    -6742058.305 6  -5111326.066 6
  22579755.706     3505975.714 6   2704871.162 5
 95  2 18 16 38 29.9990000  0  5 25 14 22 29 15
  21987448.011     2735454.839 7   2111139.347 7
  20270523.190    -6798054.744 7  -5219060.977 8
  21414248.870    -8037668.483 6  -6082604.152 7
  22000608.714    -6830292.598 6  -5180080.061 6
  22590490.792     3562388.961 5   2748829.464 5
 95  2 18 16 38 59.9990000  0  5 25 14 22 29 15
  21995880.987     2779771.127 7   2145671.495 6
  20256103.581    -6873824.882 7  -5278102.643 8
  21396730.823    -8129739.192 6  -6154347.552 7
  21983827.714    -6918481.153 6  -5248798.398 6
  22601259.620     3618971.735 5   2792919.858 5
 95  2 18 16 39 29.9990000  0  5 25 14 22 29 15
  22004344.917     2824248.103 7   2180328.849 7
  20241761.464    -6949190.991 7  -5336829.488 8
  21379290.886    -8221378.880 6  -6225755.095 7
  21967058.784    -7006621.180 6  -5317478.945 6
  22612058.112     3675723.199 5   2837141.696 5
 95  2 18 16 39 59.9990000  0  5 25 14 22 29 15
  22012836.175     2868877.442 7   2215104.921 6
  20227499.909    -7024133.253 7  -5395226.061 8
  21361937.011    -8312581.752 6  -6296822.258 7
  21950290.933    -7094713.025 6  -5386121.933 6
  22622890.104     3732642.906 5   2881494.631 5
 95  2 18 16 40 29.9990000  0  6 25 18 14 22 29 15
  22021361.120     2913662.333 7   2250002.209 6
  24342648.745     -114145.304 2
  20213323.620    -7098630.013 7  -5453275.491 8
  21344662.487    -8403348.452 6  -6367549.545 7
  21933545.651    -7182735.777 6  -5454711.084 6
  22633753.714     3789732.949 5   2925980.310 5
 95  2 18 16 40 59.9990000  0  6 25 18 14 22 29 15
  22029910.612     2958597.384 7   2285016.499 7
  24320913.776     -228344.574 2        -0.43511
  20199235.245    -7172673.489 7  -5510971.709 8
  21327474.972    -8493667.148 6  -6437927.726 7
  21916809.308    -7270673.766 6  -5523234.186 6
  22644648.933     3846989.892 5   2970596.050 5
 95  2 18 16 41 29.9990000  0  6 25 18 14 22 29 15
  22038488.604     3003682.892 7   2320148.024 6
  24299176.292     -342591.896 2    -89024.314 1
  20185230.198    -7246264.824 7  -5568315.612 8
  21310374.300    -8583540.674 6  -6507959.024 7
  21900088.745    -7358535.500 6  -5591697.867 6
  22655578.604     3904403.762 5   3015334.053 5
 95  2 18 16 41 59.9990000  0  6 25 18 14 22 29 15
  22047103.409     3048938.408 7   2355412.017 6
  24277428.581     -456860.210 1   -178064.565 2
  20171309.026    -7319416.554 7  -5625316.969 8
  21293354.050    -8672953.607 7  -6577631.414 7
  21883387.206    -7446323.268 6  -5660103.918 6
  22666531.761     3961975.240 5   3060194.865 5
 95  2 18 16 42 29.9990000  0  6 25 18 14 22 29 15
  22055749.378     3094376.159 7   2390818.022 7
  24255684.237     -571145.586 2   -267118.088 2
  20157467.823    -7392143.964 7  -5681987.683 8
  21276431.136    -8761906.756 7  -6646945.522 7
  21866691.019    -7534060.970 6  -5728470.952 6
  22677518.050     4019699.863 5   3105175.011 5
 95  2 18 16 42 59.9990000  0  6 25 18 14 22 29 15
  22064431.245     3139996.793 7   2426366.528 7
  24233936.511     -685443.783 2   -356181.620 2
  20143713.136    -7464445.672 7  -5738326.678 8
  21259590.448    -8850401.625 6  -6715902.532 7
  21849997.503    -7621766.140 6  -5796812.630 6
  22688531.229     4077577.790 5   3150274.615 5
 95  2 18 16 43 29.9980000  0  6 25 18 14 22 29 15
  22073142.818     3185785.420 7   2462045.928 6
  24212183.279     -799765.949 2   -445263.811 2
  20130028.881    -7536333.267 7  -5794342.991 8
  21242837.131    -8938450.638 6
  21833313.615    -7709461.010 6
  22699571.600     4135596.002 5   3195483.539 5
 95  2 18 16 43 59.9980000  0  6 25 18 14 22 29 15
  22081887.639     3231734.428 7   2497850.317 6
  24190423.498     -914104.181 3   -534358.516 3
  20116435.748    -7607795.032 7  -5850027.485 8
  21226167.467    -9026046.691 7  -6852768.747 7
  21816623.053    -7797153.191 6  -5933477.849 6
  22710639.771     4193766.449 5   3240811.081 5
 95  2 18 16 44 29.9980000  0  6 25 18 14 22 29 15
  22090655.732     3277813.845 7   2533756.307 7
  24168655.240    -1028470.057 3   -623474.755 1
  20102915.967    -7678825.358 7  -5905375.798 8
  21209582.818    -9113212.672 7  -6920690.250 7
  21799937.865    -7884835.879 6  -6001802.014 6
  22721735.061     4252071.001 5   3286243.138 5
 95  2 18 16 44 59.9980000  0  6 25 18 14 22 29 15
  22099450.584     3324023.614 7   2569763.875 6
  24146895.600    -1142839.162 3   -712593.557 2
  20089486.631    -7749407.609 7  -5960374.961 8
  21193074.217    -9199936.331 6  -6988267.094 7
  21783260.334    -7972472.627 6  -6070090.370 6
  22732859.053     4310517.610 5   3331785.858 5
 95  2 18 16 45 29.9980000  0  6 25 18 14 22 29 15
  22108265.990     3370366.485 7   2605875.157 6
  24125134.545    -1257204.136 4   -801709.100 1
  20076138.631    -7819537.639 7  -6015021.747 8
  21176660.647    -9286207.151 7  -7055491.069 7
  21766599.240    -8060049.041 6  -6138331.733 7
  22744008.373     4369102.956 5   3377436.694 5
 95  2 18 16 45 59.9980000  0  6 25 18 14 22 29 15
  22117110.209     3416836.655 7   2642085.634 6
  24103364.084    -1371580.438 3   -890833.483 1
  20062882.521    -7889209.312 7  -6069311.372 8
  21160326.521    -9372033.635 7  -7122368.815 7
  21749944.303    -8147549.223 6  -6206513.683 6
  22755181.850     4427815.094 5   3423186.341 5
 95  2 18 16 46 29.9980000  0  6 25 18 14 22 29 15
  22125984.998     3463471.700 7   2678424.583 7
  24081602.709    -1485969.719 4   -979968.005 2
  20049712.771    -7958402.267 7  -6123227.969 8
  21144084.912    -9457411.398 7  -7188896.919 7
  21733313.873    -8234944.055 6  -6274613.540 6
  22766380.334     4486661.242 5   3469040.400 5
 95  2 18 16 46 59.9980000  0  6 25 18 14 22 29 15
  22134887.459     3510255.275 7   2714879.267 6
  24059823.748    -1600412.734 4  -1069144.353 1
  20036637.170    -8027135.066 7  -6176786.006 8
  21127918.209    -9542334.076 7  -7255070.401 7
  21716700.646    -8322261.534 6  -6342653.121 7
  22777599.514     4545622.973 5   3514984.524 5
 95  2 18 16 47 29.9980000  0  6 25 18 14 22 29 15
  22143821.568     3557201.262 6   2751460.516 6
  24038036.256    -1714912.127 3  -1158364.646 1
  20023646.170    -8095385.964 7  -6229968.533 8
  21111854.834    -9626766.152 7  -7320861.594 7
  21700100.467    -8409500.807 6  -6410631.762 6
  22788843.561     4604715.629 5   3561030.671 5
 95  2 18 16 47 59.9980000  0  6 25 18 14 22 29 15
  22152785.811     3604306.272 6   2788165.674 7
  24016235.982    -1829470.673 3  -1247631.030 2
  20010749.381    -8163164.291 7  -6282782.819 8
  21095881.490    -9710689.388 7  -7386256.290 7
  21683511.936    -8496671.551 6  -6478557.009 6
  22800111.014     4663936.719 5   3607176.901 5
 95  2 18 16 48 29.9980000  0  6 25 18 14 22 29 15
  22161772.982     3651536.610 6   2824968.486 6
  23994428.389    -1944086.134 3  -1336941.788 2
  19997931.154    -8230511.549 7  -6335261.209 8
  21080012.967    -9794102.560 7  -7451253.543 7
  21666928.842    -8583813.837 6  -6546460.083 7
  22811400.896     4723263.114 5   3653405.165 5
 95  2 18 16 48 59.9980000  0  6 25 18 14 22 29 15
  22170781.084     3698874.327 6   2861854.983 6
  23972612.521    -2058723.724 3  -1426269.791 1
  19985197.037    -8297434.842 7  -6387409.237 8
  21064240.592    -9876983.600 7  -7515836.144 7
  21650354.920    -8670914.291 6  -6614330.556 7
  22822714.990     4782703.596 5   3699722.361 5
 95  2 18 16 49 29.9980000  0  6 25 18 14 22 29 15
  22179809.193     3746311.075 6   2898818.645 6
  23950795.920    -2173344.981 3  -1515585.080 1
  19972548.389    -8363931.274 7  -6439224.643 8
  21048564.732    -9959346.413 7  -7580014.933 7
  21633788.857    -8757954.191 6  -6682153.845 6
  22834042.490     4842258.026 5   3746128.320 5
 95  2 18 16 49 59.9980000  0  6 25 18 14 22 29 15
  22188853.881     3793853.776 6   2935864.854 6
  23928990.365    -2287938.329 3  -1604878.641 1
  19959971.951    -8430000.806 7  -6490707.407 8
  21032990.264   -10041202.098 7  -7643798.568 7
  21617242.373    -8844906.445 6  -6749908.849 6
  22845404.170     4901927.980 5   3792624.304 5
 95  2 18 16 50 29.9980000  0  6 25 18 14 22 29 15
  22197921.209     3841507.766 6   2972997.787 6
  23907186.318    -2402505.378 3  -1694151.656 1
  19947482.709    -8495618.146 7  -6541837.799 8
  21017508.912   -10122560.419 7  -7707194.618 7
  21600718.756    -8931762.001 7  -6817588.496 7
  22856781.521     4961719.810 5   3839215.253 5
 95  2 18 16 50 59.9980000  0  6 25 18 14 22 29 15
  22207010.709     3889264.708 6   3010210.951 6
  23885383.967    -2517081.272 3  -1783431.608 1
  19935085.889    -8560769.269 7  -6592604.911 8
  21002116.256   -10203442.302 7  -7770219.425 7
  21584208.420    -9018529.996 7  -6885199.910 7
  22868176.678     5021617.423 5   3885888.634 5
 95  2 18 16 51 29.9980000  0  6 25 18 14 22 29 15
  22216121.545     3937140.194 6   3047516.479 6
  23863571.389    -2631693.537 3  -1872739.847 1
  19922779.936    -8625442.167 7  -6642999.382 8
  20986813.365   -10283843.487 7  -7832869.671 7
  21567708.607    -9105232.450 7  -6952760.271 7
  22879593.646     5081614.199 5   3932639.290 5
 95  2 18 16 51 59.9980000  0  6 25 18 14 22 29 15
  22225256.646     3985148.299 6   3084925.343 6
  23841751.287    -2746357.595 3  -1962088.483 2
  19910568.717    -8689621.931 7  -6693009.596 8
  20971607.990   -10363761.641 7  -7895143.526 7
  21551213.279    -9191896.899 7  -7020291.009 7
  22891026.967     5141706.479 5   3979464.348 5
 95  2 18 16 52 29.9980000  0  6 25 18 14 22 29 15
  22234415.162     4033273.592 6   3122425.525 6
  23819926.553    -2861058.704 3  -2051465.997 1
  19898451.162    -8753299.758 7  -6742628.685 8
  20956494.818   -10443186.264 7  -7957032.809 7
  21534726.701    -9278539.825 7  -7087804.978 7
  22902479.131     5201886.861 5   4026358.071 5
 95  2 18 16 52 59.9980000  0  6 25 18 14 22 29 15
  22243599.303     4081527.081 6   3160025.606 6
  23798095.545    -2975776.210 3  -2140856.230 1
  19886425.873    -8816476.560 7  -6791857.371 8
  20941477.717   -10522104.121 7  -8018527.212 7
  21518249.201    -9365141.254 7  -7155286.614 7
  22913950.506     5262160.520 5   4073324.445 5
 95  2 18 16 53 29.9980000  0  6 25 18 14 22 29 15
  22252804.193     4129918.576 6   3197733.220 6
  23776272.545    -3090494.352 3  -2230247.015 1
  19874499.092    -8879162.431 7  -6840703.507 8
  20926556.287   -10600515.295 7  -8079626.797 7
  21501771.756    -9451695.807 7  -7222731.712 7
  22925437.490     5322527.055 5   4120363.214 5
 95  2 18 16 53 59.9980000  0  6 25 18 14 22 29 15
  22262033.428     4178419.887 6   3235526.409 6
  23754440.186    -3205214.605 3  -2319639.438 1
  19862665.717    -8941362.202 7  -6889170.863 8
  20911725.037   -10678432.204 7  -8140341.233 7
  21485316.709    -9538198.244 7  -7290136.207 7
  22936942.092     5382972.761 5   4167463.684 5
 95  2 18 16 54 29.9980000  0  6 25 18 14 22 29 15
  22271288.436     4227034.930 6   3273408.203 6
  23732606.826    -3319932.347 4  -2409029.850 1
  19850919.982    -9003077.936 7  -6937261.050 8
  20896998.264   -10755831.713 7  -8200652.511 7
  21468872.389    -9624610.374 7  -7357470.329 7
  22948457.912     5443500.523 5   4214628.076 5
 95  2 18 16 54 59.9980000  0  6 25 18 14 22 29 15
  22280562.537     4275775.153 6   3311387.545 6
  23710767.428    -3434664.844 3  -2498431.797 1
  19839265.725    -9064319.850 7  -6984982.030 8
  20882367.162   -10832720.893 7  -8260566.128 7
  21452444.623    -9710935.772 7  -7424736.868 7
  22959994.201     5504105.711 5   4261852.795 5
 95  2 18 16 55 29.9980000  0  6 25 18 14 22 29 15
  22289861.818     4324641.649 6   3349465.274 6
  23688939.693    -3549405.113 3  -2587839.755 2
  19827700.498    -9125076.817 7  -7032325.122 8
  20867839.162   -10909086.949 7  -8320072.119 7
  21436033.576    -9797178.323 7  -7491938.859 7
  22971537.803     5564791.314 5   4309140.199 5
 95  2 18 16 55 59.9980000  0  6 25 18 14 22 29 15
  22299179.342     4373616.003 6   3387627.058 6
  23667105.162    -3664166.113 3  -2677263.893 1
  19816230.490    -9185356.013 7  -7079295.925 8
  20853405.217   -10984928.772 7  -8379169.617 7
  21419639.545    -9883338.288 7  -7559076.492 7
  22983098.693     5625546.036 5   4356481.447 4
 95  2 18 16 56 29.9980000  0  6 25 18 14 22 29 15
  22308523.021     4422710.229 6   3425882.255 6
  23645256.139    -3778947.329 3  -2766703.791 2
  19804845.912    -9245172.566 7  -7125906.237 8
  20839072.295   -11060244.358 7  -8437857.067 7
  21403258.131    -9969426.231 7  -7626158.004 7
  22994675.045     5686365.604 5   4403873.238 5
 95  2 18 16 56 59.9980000  0  6 25 18 14 22 29 15
  22317887.217     4471919.816 6   3464227.334 6
  23623409.881    -3893746.511 3  -2856157.678 1
  19793555.748    -9304517.830 7  -7172149.304 8
  20824839.154   -11135043.988 7  -8496142.477 7
  21386881.178   -10055460.597 7  -7693197.768 7
  23006261.412     5747249.109 5   4451314.831 5
 95  2 18 16 57 29.9980000  0  6 25 18 14 22 29 15
  22327270.553     4521232.690 6   3502652.899 6
  23601564.584    -4008572.287 3  -2945632.302 1
  19782356.982    -9363367.423 7  -7218006.138 8
  20810704.342   -11209317.498 7  -8554017.910 7
  21370526.881   -10141433.401 7  -7760189.563 7
  23017855.982     5808193.725 5   4498804.060 5
 95  2 18 16 57 59.9980000  0  6 25 18 14 22 29 15
  22336671.881     4570642.438 6   3541153.943 6
  23579708.654    -4123431.279 3  -3035132.814 2
  19771254.982    -9421716.564 7  -7263473.010 8
  20796668.975   -11283073.630 7  -8611490.195 7
  21354178.147   -10227341.326 7  -7827130.801 7
  23029468.553     5869192.496 5   4546335.485 4
 95  2 18 16 58 29.9980000  0  6 25 18 14 22 29 15
  22346097.670     4620150.047 6   3579731.247 6
  23557836.631    -4238323.590 3  -3124659.253 1
  19760245.842    -9479555.446 7  -7308542.284 8
  20782729.053   -11356322.638 7  -8668567.321 7
  21337841.865   -10313193.779 7  -7894028.822 7
  23041084.295     5930243.136 5   4593907.322 3
 95  2 18 16 58 59.9980000  0  6 25 18 14 22 29 15
  22355532.068     4669746.477 6   3618377.769 6
  23535975.146    -4353237.573 3  -3214202.613 1
  19749343.803    -9536864.374 7  -7353198.599 8
  20768891.686   -11429060.349 7  -8725246.029 7
  21321510.873   -10398976.806 7  -7960872.743 7
  23052712.693     5991350.650 5   4641523.503 4
 95  2 18 16 59 29.9980000  0  6 25 18 14 22 29 15
  22364987.771     4719427.060 6   3657089.873 6
  23514106.045    -4468154.676 3  -3303748.382 2
  19738536.021    -9593657.035 7  -7397452.633 8
  20755147.615   -11501272.326 7  -8781515.081 7
  21305204.850   -10484682.195 7  -8027656.166 7
  23064349.701     6052514.591 5   4689183.605 4
 95  2 18 16 59 59.9980000  0  6 25 18 14 22 29 15
  22374456.896     4769187.129 6   3695863.898 6
  23492242.959    -4583058.924 3  -3393284.162 2
  19727821.186    -9649956.467 7  -7441322.330 8
  20741505.912   -11572959.531 7  -8837375.213 7
  21288907.725   -10570315.675 7  -8094383.558 7
  23076002.334     6113733.070 5   4736886.234 2
 95  2 18 17  0 29.9980000  0  6 25 18 14 22 29 15
  22383937.295     4819015.660 6   3734691.277 6
  23470377.193    -4697952.586 4  -3482811.684 1
  19717202.209    -9705772.223 7  -7484815.136 8
  20727967.928   -11644111.553 7  -8892818.321 7
  21272623.209   -10655884.173 7  -8161060.312 7
  23087661.779     6174997.107 5   4784624.346 4
 95  2 18 17  0 59.9980000  0  6 25 18 14 22 29 15
  22393428.740     4868897.011 6   3773559.811 6
  23448515.295    -4812832.536 4  -3572328.528 1
  19706669.006    -9761107.216 7  -7527933.324 8
  20714533.811   -11714715.471 7  -8947834.329 7
  21256355.170   -10741384.852 7  -8227684.218 7
  23099321.248     6236298.157 5   4832391.292 3
 95  2 18 17  1 29.9980000  0  6 25 18 14 22 29 15
  22402933.693     4918841.394 6   3812477.466 6
  23426659.365    -4927699.501 5  -3661835.244 2
  19696231.928    -9815949.299 7  -7570667.430 8
  20701204.139   -11784758.815 7  -9002413.534 7
  21240099.631   -10826807.426 7  -8294247.260 7
  23110999.373     6297641.497 5   4880191.184 4
 95  2 18 17  1 59.9980000  0  6 25 18 14 22 29 15
  22412451.662     4968854.565 6   3851448.717 6
  23404802.061    -5042574.661 5  -3751348.358 3
  19685897.154    -9870277.486 7  -7613001.094 7
  20687978.623   -11854258.858 7  -9056569.383 7
  21223857.842   -10912162.394 7  -8360757.634 7
  23122677.678     6359018.765 5   4928017.539 3
 95  2 18 17  2 29.9980000  0  6 25 18 14 22 29 15
  22421983.123     5018953.126 6   3890486.502 6
  23382939.295    -5157446.858 4  -3840859.143 2
  19675661.490    -9924072.879 7  -7654919.596 8
  20674853.381   -11923213.337 7  -9110300.113 7
  21207631.850   -10997437.057 7  -8427205.417 7
  23134364.225     6420436.504 5   4975875.428 3
 95  2 18 17  2 59.9980000  0  6 25 18 14 22 29 15
  22431532.896     5069130.325 6   3929585.565 6
  23361074.490    -5272336.028 5  -3930383.148 2
  19665525.240    -9977341.630 7  -7696427.733 8
  20661831.443   -11991634.727 7  -9163615.450 7
  21191419.006   -11082632.878 7  -8493591.773 7
  23146059.818     6481883.862 5   5023756.365 4
 95  2 18 17  3 29.9980000  0  6 25 18 14 22 29 15
  22441101.170     5119411.397 6   3968765.569 6
  23339211.521    -5387248.201 5  -4019925.060 3
  19655487.271   -10030083.974 7  -7737525.676 8
  20648914.279   -12059525.765 7  -9216517.539 8
  21175219.584   -11167751.805 7  -8559918.194 7
  23157755.779     6543359.678 5   5071659.482 5
 95  2 18 17  3 59.9980000  0  6 25 18 14 22 29 15
  22450689.381     5169804.697 6   4008033.024 6
  23317338.576    -5502178.873 4  -4109481.424 3
  19645546.600   -10082309.521 7  -7778220.925 8
  20636099.686   -12126879.916 7  -9269001.264 8
  21159038.318   -11252795.000 7  -8626185.616 7
  23169460.701     6604860.471 5   5119582.067 4
 95  2 18 17  4 29.9980000  0  6 25 18 14 22 29 15
  22460299.412     5220291.943 6   4047373.690 6
  23295463.896    -5617140.083 4  -4199061.565 2
  19635702.576   -10134041.990 7  -7818531.951 8
  20623388.139   -12193682.037 7  -9321054.846 8
  21142869.576   -11337756.577 7  -8692389.439 7
  23181167.365     6666375.167 5   5167515.490 4
 95  2 18 17  4 59.9980000  0  6 25 18 14 22 29 15
  22469925.146     5270883.266 6   4086795.454 6
  23273581.607    -5732127.879 4  -4288662.417 4
  19625956.178   -10185268.232 7  -7858448.522 7
  20610781.561   -12259919.239 7  -9372668.231 8
  21126719.615   -11422630.100 7  -8758524.648 7
  23192873.732     6727905.594 5   5215461.180 5
 95  2 18 17  5 29.9980000  0  6 25 18 14 22 29 15
  22479574.318     5321585.695 6   4126303.778 6
  23251701.162    -5847115.165 3  -4378262.863 2
  19616305.240   -10235990.499 7  -7897972.386 7
  20598281.748   -12325587.811 7  -9423838.530 8
  21110587.396   -11507410.205 7  -8824587.063 7
  23204586.686     6789457.781 5   5263423.809 4
 95  2 18 17  5 59.9970000  0  6 25 18 14 22 29 15
  22489236.548     5372360.072 6   4165868.167 6
  23229820.126    -5962097.589 3  -4467859.523 2
  19606746.134   -10286210.104 7  -7937104.561 7
  20585898.009   -12390694.687 7  -9474571.152 8
  21094472.493   -11592090.731 7  -8890571.885 7
  23216299.954     6851020.983 5   5311395.027 5
 95  2 18 17  6 29.9970000  0  6 25 18 14 22 29 15
  22498907.993     5423188.346 6   4205474.548 6
  23207932.751    -6077079.115 3  -4557455.510 1
  19597289.743   -10335917.805 7  -7975837.852 7
  20573609.665   -12455252.678 7  -9524876.071 8
  21078375.032   -11676679.613 7  -8956485.297 7
  23228018.899     6912594.183 5   5359374.031 5
 95  2 18 17  6 59.9970000  0  6 25 18 14 22 29 15
  22508589.712     5474071.010 6   4245123.311 5
  23186063.931    -6192040.084 3  -4647035.465 1
  19587927.610   -10385111.319 7  -8014170.473 7
  20561426.642   -12519270.016 7  -9574759.714 8
  21062295.978   -11761181.557 7  -9022330.961 8
  23239739.735     6974170.807 5   5407355.679 5
 95  2 18 17  7 29.9970000  0  6 25 18 14 22 29 15
  22518282.009     5525001.176 6   4284809.097 6
  23164194.485    -6306978.029 4  -4736597.451 2
  19578665.899   -10433779.012 7  -8052093.368 7
  20549355.360   -12582729.988 7  -9624209.041 8
  21046231.673   -11845591.041 7  -9088104.576 8
  23251455.501     7035755.834 5   5455343.894 3
 95  2 18 17  7 59.9970000  0  6 25 18 14 22 29 15
  22527984.829     5575981.569 6   4324534.019 6
  23142324.126    -6421899.043 4  -4826146.295 2
  19569511.806   -10481893.260 7  -8089585.009 7
  20537384.564   -12645612.975 7  -9673208.768 8
  21030187.056   -11929919.226 7  -9153814.843 7
  23263178.173     7097345.083 5   5503335.408 3
 95  2 18 17  8 29.9970000  0  6 25 18 14 22 29 15
  22537699.462     5627030.971 6   4364312.719 6
  23120456.353    -6536800.956 4  -4915680.246 2
  19560457.720   -10529453.604 7  -8126645.036 7
  20525533.782   -12707907.811 7  -9721750.198 8
  21014152.907   -12014177.371 7  -9219470.533 7
  23274897.845     7158936.678 5   5551328.720 3
 95  2 18 17  8 59.9970000  0  6 25 18 14 22 29 15
  22547428.509     5678155.701 6   4404150.103 6
  23098590.157    -6651698.669 4  -5005210.935 1
  19551514.243   -10576469.247 7  -8163280.622 7
  20513790.384   -12769609.816 7  -9769829.680 8
  20998129.970   -12098366.617 7  -9285072.542 8
  23286618.642     7220525.345 4   5599319.754 2
 95  2 18 17  9 29.9970000  0  6 25 18 14 22 29 15
  22557167.321     5729339.561 6   4444033.574 5
  23076726.657    -6766604.065 5  -5094747.592 2
  19542671.142   -10622929.032 7  -8199483.076 7
  20502163.517   -12830722.473 7  -9817449.933 8
  20982118.399   -12182496.683 7  -9350628.435 8
  23298341.610     7282109.936 5   5647307.641 3
 95  2 18 17  9 59.9970000  0  6 25 18 14 22 29 15
  22566920.649     5780584.270 6   4483964.445 6
  23054862.540    -6881515.944 5  -5184289.314 2
  19533934.259   -10668853.969 7  -8235268.754 7
  20490641.118   -12891257.351 7  -9864619.964 8
  20966125.759   -12266559.876 7  -9416132.223 8
  23310052.181     7343686.128 5   5695288.943 3
 95  2 18 17 10 29.9970000  0  6 25 18 14 22 29 15
  22576683.470     5831886.207 6   4523939.920 6
  23032990.759    -6996444.212 5  -5273843.817 1
  19525289.462   -10714262.579 7  -8270652.102 7
  20479229.829   -12951234.453 7  -9911355.364 8
  20950142.860   -12350530.694 7  -9481564.030 8
  23321767.743     7405252.767 4   5743262.838 2
 95  2 18 17 10 59.9970000  0  6 25 18 14 22 29 15
  22586455.290     5883238.374 6   4563954.526 6
  23011114.985    -7111393.810 5  -5363414.921 2
  19516753.759   -10759145.476 7  -8305625.804 7
  20467917.188   -13010656.680 7  -9957658.390 8
  20934185.704   -12434401.493 7  -9546917.899 8
  23333486.868     7466808.178 5   5791227.965 4
 95  2 18 17 11 29.9970000  0  6 25 18 14 22 29 15
  22596239.446     5934650.970 6   4604016.224 5
  22989237.399    -7226359.833 4  -5452998.833 2
  19508307.415   -10803506.035 7  -8340192.495 7
  20456720.384   -13069530.437 7 -10003534.027 8
  20918245.860   -12518168.063 7  -9612190.559 8
  23345194.306     7528344.918 4   5839178.549 2
 95  2 18 17 11 59.9970000  0  6 25 18 14 22 29 15
  22606036.267     5986137.440 6   4644135.475 5
  22967359.907    -7341341.268 5  -5542594.750 3
  19499965.774   -10847355.511 7  -8374360.939 7
  20445616.759   -13127851.043 7 -10048978.645 8
  20902326.821   -12601822.119 7  -9677375.544 8
  23356902.298     7589857.284 4   5887110.129 2
 95  2 18 17 12 29.9970000  0  6 25 18 14 22 29 15
  22615846.345     6037698.521 6   4684312.884 5
  22945476.837    -7456336.660 4  -5632201.516 3
  19491722.524   -10890673.504 7  -8408115.241 7
  20434630.259   -13185608.900 7 -10093984.755 8
  20886426.884   -12685373.080 7  -9742480.192 8
  23368598.392     7651346.680 3   5935023.785 3
 95  2 18 17 12 59.9970000  0  6 25 18 14 22 29 15
  22625676.415     6089342.167 6   4724554.610 5
  22923589.188    -7571336.072 5  -5721811.442 3
  19483580.634   -10933448.899 7  -8441446.740 7
  20423749.696   -13242792.361 7 -10138543.275 8
  20870543.587   -12768833.849 7  -9807514.559 8
  23380298.657     7712810.964 4   5982917.907 1
 95  2 18 17 13 29.9970000  0  6 25 18 14 22 29 15
  22635518.603     6141070.997 6   4764862.717 5
  22901709.845    -7686335.509 5  -5811421.352 4
  19475546.157   -10975687.810 7  -8474360.198 7
  20412970.728   -13299401.803 7 -10182654.519 8
  20854681.142   -12852208.034 7  -9872481.465 7
  23391989.704     7774246.993 4   6030789.984 2
 95  2 18 17 13 59.9970000  0  7 25 18 14 22 29 15 19
  22645370.985     6192844.253 6   4805205.447 6
  22879821.103    -7801346.510 5  -5901040.292 4
  19467609.056   -11017393.429 7  -8506858.105 7
  20402311.985   -13355436.002 7 -10226317.523 8
  20838827.751   -12935508.425 7  -9937390.867 8
  23403668.720     7835644.738 4   6078632.265 2
  23901514.814          -0.60513
 95  2 18 17 14 29.9970000  0  7 25 18 14 22 29 15 19
  22655231.923     6244665.469 6   4845585.536 5
  22857932.907    -7916357.188 5  -5990658.993 4
  19459776.439   -11058545.036 7  -8538924.318 7
  20391760.556   -13410893.538 7 -10269531.172 8
  20822993.071   -13018724.631 7 -10002234.676 8
  23415348.978     7897006.114 5   6126446.201 2
  23877266.462     -127425.335 2
 95  2 18 17 14 59.9970000  0  7 25 18 14 22 29 15 19
  22665102.876     6296541.211 6   4886008.099 5
  22836056.126    -8031349.848 5  -6080263.663 2
  19452051.493   -11099143.387 7  -8570559.416 7
  20381314.868   -13465763.834 7 -10312287.235 8
  20807177.462   -13101841.044 7 -10067000.724 8
  23427017.884     7958333.458 5   6174233.590 4
  23853052.079     -254689.189 2        -0.13412
 95  2 18 17 15 29.9970000  0  7 25 18 14 22 29 15 19
  22674982.079     6348449.257 6   4926455.865 5
  22814173.423    -8146315.133 5  -6169846.960 2
  19444431.806   -11139192.772 7  -8601766.755 7
  20370986.587   -13520037.678 7 -10354578.533 8
  20791380.782   -13184849.981 7 -10131683.009 8
  23438682.290     8019626.802 5   6221994.496 3
  23828862.423     -381792.708 2    -99041.842 2
 95  2 18 17 15 59.9970000  0  7 25 18 14 22 29 15 19
  22684863.188     6400375.749 6   4966917.978 5
  22792302.196    -8261251.109 5  -6259407.442 2
  19436915.079   -11178691.639 7  -8632545.118 7
  20360774.423   -13573717.424 7 -10396406.899 8
  20775605.774   -13267745.178 7 -10196276.678 8
  23450338.446     8080876.892 5   6269721.690 2
  23804701.759     -508761.417 2   -197978.490 1
 95  2 18 17 16 29.9970000  0  7 25 18 14 22 29 15 19
  22694752.087     6452352.395 6   5007419.180 5
  22770442.415    -8376140.518 5  -6348931.633 3
  19429504.798   -11217629.552 7  -8662886.377 7
  20350673.751   -13626800.077 7 -10437770.001 8
  20759854.446   -13350523.732 7 -10260779.450 8
  23461989.501     8142086.805 5   6317417.590 2
  23780565.876     -635599.811 2   -296813.596 3
 95  2 18 17 16 59.9970000  0  6 25 18 14 22 29 15
  22704652.923     6504367.851 6   5047950.630 5
  22748588.407    -8490984.035 5  -6438420.068 3
  19422199.860   -11256008.280 7  -8692791.898 7
  20340690.251   -13679270.413 7 -10478655.974 8
  20744122.360   -13433187.945 7 -10325193.130 8
  23473628.774     8203258.545 5   6365083.732 3
 95  2 18 17 17 29.9970000  0  6 25 18 14 22 29 15
  22714553.259     6556411.245 5   5088503.835 5
  22726740.821    -8605799.085 5  -6527886.346 2
  19415005.212   -11293823.206 7  -8722258.097 7
  20330819.204   -13731141.167 7 -10519074.748 8
  20728411.728   -13515746.131 7 -10389524.182 8
  23485260.853     8264384.423 5   6412714.166 2
 95  2 18 17 17 59.9970000  0  6 25 18 14 22 29 15
  22724467.587     6608500.112 5   5129092.467 5
  22704896.329    -8720587.841 5  -6617332.094 2
  19407918.212   -11331065.855 7  -8751278.369 7
  20321056.056   -13782425.495 7 -10559036.556 8
  20712722.157   -13598208.305 7 -10453780.420 8
  23496885.884     8325460.568 3   6460305.812 3
 95  2 18 17 18 29.9970000  0  6 25 18 14 22 29 15
  22734390.587     6660629.258 5   5169712.486 5
  22683057.688    -8835357.844 5  -6706763.227 3
  19400940.329   -11367745.610 7  -8779860.017 7
  20311408.118   -13833127.554 7 -10598544.659 8
  20697044.196   -13680583.758 7 -10517969.092 8
  23508495.868     8386484.466 3   6507856.744 2
 95  2 18 17 18 59.9970000  0  7 25 18 14 22 29 15 19
  22744311.337     6712774.944 5   5210345.410 5
  22661215.134    -8950129.744 5  -6796195.849 4
  19394066.056   -11403873.878 7  -8808011.937 7
  20301866.845   -13883263.941 7 -10637611.980 8
  20681386.103   -13762874.923 7 -10582092.079 8
  23520095.978     8447446.398 3   6555359.381 2
  23660275.493          -0.09813
 95  2 18 17 19 29.9970000  0  7 25 18 14 22 29 15 19
  22754241.899     6764961.413 5   5251010.108 5
  22639373.720    -9064896.846 5  -6885624.711 4
  19387296.595   -11439452.917 7  -8835735.884 7
  20292434.626   -13932838.937 7 -10676241.844 8
  20665743.751   -13845072.945 7 -10646142.482 8
  23531688.767     8508349.459 3   6602816.124 3
  23636295.056     -125986.792 3        -0.26514
 95  2 18 17 19 59.9970000  0  7 25 18 14 22 29 15 19
  22764178.665     6817186.916 5   5291705.218 6
  22617539.032    -9179656.998 5  -6975048.194 4
  19380626.376   -11474493.409 7  -8863040.187 7
  20283108.157   -13981844.331 7 -10714427.868 8
  20650121.673   -13927170.151 7 -10710114.334 8
  23543265.548     8569191.244 4   6650225.143 4
  23612349.634     -251826.246 3    -98057.046 4
 95  2 18 17 20 29.9970000  0  7 25 18 14 22 29 15 19
  22774123.931     6869448.441 5   5332428.406 5
  22595699.821    -9294417.480 5  -7064471.887 4
  19374059.243   -11509002.938 7  -8889930.751 7
  20273894.767   -14030267.814 7 -10752160.458 8
  20634520.298   -14009157.656 7 -10774000.697 8
  23554831.173     8629966.772 4   6697582.548 4
  23588433.157     -377517.218 3   -195998.118 4
 95  2 18 17 20 59.9970000  0  7 25 18 14 22 29 15 19
  22784079.235     6921764.446 5   5373194.032 5
  22573862.251    -9409176.352 5  -7153894.324 4
  19367596.446   -11542968.954 7  -8916397.805 7
  20264792.571   -14078095.932 7 -10789429.127 8
  20618942.540   -14091025.687 7 -10837793.966 8
  23566381.759     8690677.069 4   6744889.100 4
  23564541.673     -503059.564 4   -293823.382 3
 95  2 18 17 21 29.9970000  0  7 25 18 14 22 29 15 19
  22794042.626     6974129.955 5   5413998.239 5
  22552026.103    -9523928.460 5  -7243311.524 5
  19361236.634   -11576390.796 7  -8942440.823 7
  20255805.485   -14125320.365 7 -10826227.388 8
  20603383.626   -14172774.994 7 -10901494.720 8
  23577918.642     8751314.776 3   6792139.103 3
  23540680.353     -628467.905 4   -391544.223 2
 95  2 18 17 21 59.9970000  0  7 25 18 14 22 29 15 19
  22804016.040     7026522.990 5   5454823.891 5
  22530188.009    -9638671.330 5  -7332721.528 5
  19354984.204   -11609249.724 7  -8968045.214 7
  20246935.470   -14171929.498 7 -10862546.201 8
  20587851.485   -14254404.026 7 -10965101.765 8
  23589444.337     8811876.451 3   6839329.874 2
  23516842.743     -753733.959 4   -489154.193 1
 95  2 18 17 22 29.9970000  0  7 25 18 14 22 29 15 19
  22813993.110     7078950.161 5   5495676.135 5
  22508358.993    -9753404.243 5  -7422123.760 2
  19348840.665   -11641533.388 7  -8993201.344 7
  20238184.157   -14217912.777 7 -10898377.329 8
  20572341.360   -14335913.007 7 -11028615.253 8
  23600956.962     8872362.342 3   6886461.551 3
  23493039.563     -878844.683 4   -586643.103 1
 95  2 18 17 22 59.9970000  0  7 25 18 14 22 29 15 19
  22823973.228     7131405.018 5   5536549.973 5
  22486526.642    -9868123.701 5  -7511515.514 4
  19342807.587   -11673233.008 7  -9017902.371 7
  20229556.282   -14263270.321 7 -10933720.872 8
  20556852.071   -14417297.559 7 -11092031.789 8
  23612451.454     8932769.507 3   6933531.874 2
  23469260.126    -1003801.114 3   -684011.750 1
 95  2 18 17 23 29.9970000  0  7 25 18 14 22 29 15 19
  22833955.329     7183864.540 5   5577427.431 5
  22464695.306    -9982837.725 5  -7600903.039 4
  19336880.751   -11704365.597 7  -9042161.555 7
  20221042.478   -14308013.741 7 -10968585.880 8
  20541387.501   -14498576.923 7 -11155366.355 8
  23623934.189     8993085.021 3   6980530.816 1
  23445507.329    -1128612.798 3   -781267.633 1
 95  2 18 17 23 59.9970000  0  7 25 18 14 22 29 15 19
  22843943.860     7236340.900 5   5618318.024 5
  22442871.251   -10097534.294 5  -7690276.960 4
  19331064.579   -11734930.055 7  -9065978.045 7
  20212650.345   -14352127.229 7 -11002960.037 8
  20525942.048   -14579740.286 7 -11218610.531 8
  23635391.884     9053317.600 3   7027465.128 1
  23421790.134    -1253257.510 3   -878393.341 1
 95  2 18 17 24 29.9970000  0  7 25 18 14 22 29 15 19
  22853932.962     7288841.039 5   5659227.131 5
  22421047.634   -10212226.805 5  -7779647.725 3
  19325352.462   -11764954.065 7  -9089373.404 7
  20204369.142   -14395637.281 7 -11036863.982 8
  20510515.571   -14660794.966 7 -11281770.018 8
  23646834.587     9113452.753 3   7074323.511 1
  23398095.642    -1377750.655 3   -975400.963 2
 95  2 18 17 24 59.9970000  0  7 25 18 14 22 29 15 19
  22863928.806     7341367.811 5   5700156.999 5
  22399225.501   -10326900.005 5  -7869003.443 4
  19319745.978   -11794432.802 7  -9112343.872 7
  20196198.423   -14438550.774 7 -11070303.087 8
  20495115.759   -14741732.645 7 -11344838.335 8
  23658259.673     9173495.280 4
  23374436.446    -1502082.911 3  -1072283.182 2
 95  2 18 17 25 29.9970000  0  7 25 18 14 22 29 15 19
  22873927.173     7393912.147 5   5741100.572 5
  22377407.345   -10441549.940 5  -7958341.047 4
  19314233.493   -11823378.325 7  -9134898.854 7
  20188148.642   -14480877.775 7 -11103285.165 8
  20479735.454   -14822557.224 7 -11407818.531 8
  23669666.884     9233442.377 4        -0.35311
  23350808.313    -1626248.486 4  -1169035.540 1
 95  2 18 17 25 59.9970000  0  7 25 18 14 22 29 15 19
  22883928.892     7446483.215 5   5782064.954 5
  22355593.970   -10556168.558 5  -8047654.228 5
  19308830.478   -11851772.258 7  -9157024.020 7
  20180206.110   -14522620.256 7 -11135811.772 8
  20464376.978   -14903255.171 7 -11470700.037 8
  23681055.579     9293293.431 5     46636.650 1
  23327212.212    -1750246.540 4  -1265657.335 2
 95  2 18 17 26 29.9970000  0  7 25 18 14 22 29 15 19
  22893940.790     7499083.483 5   5823052.075 5
  22333790.517   -10670762.466 5  -8136948.152 3
  19303537.118   -11879608.725 7  -9178714.802 7
  20172366.196   -14563786.483 7 -11167889.352 8
  20449044.759   -14983834.192 7 -11533488.884 8
  23692429.274     9353041.972 5     93193.850 1
  23303643.899    -1874081.621 3  -1362152.152 2
 95  2 18 17 26 59.9970000  0  7 25 18 14 22 29 15 19
  22903953.056     7551701.421 5   5864052.987 5
  22311990.907   -10785317.213 5  -8226211.553 4
  19298342.548   -11906883.525 7  -9199967.924 7
  20164649.071   -14604360.575 7 -11199505.540 8
  20433733.876   -15064304.156 7 -11596192.749 8
  23703777.267     9412685.806 5    139669.414 1
  23280113.087    -1997747.941 4  -1458515.439 2
 95  2 18 17 27 29.9960000  0  7 25 18 14 22 29 15 19
  22913970.691     7604337.519 5   5905068.033 5
  22290199.481   -10899828.466 5  -8315441.069 4
  19293262.535   -11933593.895 7  -9220781.216 8
  20157042.988   -14644327.927 7 -11230648.932 8
  20418440.777   -15144660.686 7 -11658808.231 8
  23715106.496     9472221.897 5    186061.056 1
  23256613.113    -2121251.199 4  -1554751.680 2
 95  2 18 17 27 59.9960000  0  7 25 18 14 22 29 15 19
  22923994.691     7657018.830 5   5946118.325 4
  22268416.793   -11014299.245 5  -8404639.048 5
  19288289.191   -11959726.768 7  -9241144.522 7
  20149554.074   -14683680.127 7 -11261312.996 8
  20403171.184   -15224901.587 7 -11721333.611 8
  23726418.309     9531659.767 5    232376.126 1
  23233139.215    -2244593.738 4  -1650862.695 3
 95  2 18 17 28 29.9960000  0  7 25 18 14 22 29 15 19
  22934024.309     7709713.519 5   5987179.042 5
  22246637.605   -11128746.688 5  -8493818.843 4
  19283420.074   -11985312.512 7  -9261081.489 7
  20142181.980   -14722435.990 7 -11291512.386 8
  20387920.441   -15305044.994 7 -11783783.027 8
  23737706.918     9590979.625 3    278599.234 3
  23209695.660    -2367779.610 4  -1746851.643 2
 95  2 18 17 28 59.9960000  0  7 25 18 14 22 29 15 19
  22944051.137     7762410.767 5   6028241.741 5
  22224865.981   -11243166.494 5  -8582977.100 5
  19278658.402   -12010343.859 7  -9280586.462 8
  20134915.574   -14760597.085 7 -11321248.320 8
  20372691.527   -15385080.162 7 -11846148.095 8
  23748968.582     9650182.666 3    324731.300 2
  23186283.566    -2490821.818 4  -1842728.679 1
 95  2 18 17 29 29.9960000  0  7 25 18 14 22 29 15 19
  22954079.918     7815109.802 5   6069305.824 5
  22203095.277   -11357570.358 5  -8672122.952 5
  19273999.285   -12034809.608 7  -9299650.710 8
  20127770.660   -14798172.105 7 -11350527.567 8
  20357481.918   -15464996.179 7 -11908420.319 8
  23760220.488     9709267.558 3    370771.303 1
  23162896.418    -2613728.511 4  -1938500.092 2
 95  2 18 17 29 59.9960000  0  7 25 18 14 22 29 15 19
  22964104.941     7867806.820 5   6110368.373 4
  22181328.035   -11471965.247 5  -8761261.794 5
  19269455.785   -12058701.984 7  -9318268.167 8
  20120727.520   -14835159.461 7 -11379348.909 8
  20342299.699   -15544787.389 7 -11970595.299 8
  23771438.434     9768233.588 3    416718.685 2
  23139532.098    -2736491.297 4  -2034159.390 3
 95  2 18 17 30 29.9960000  0  7 25 18 14 22 29 15 19
  22974131.520     7920486.378 5   6151417.290 5
  22159560.074   -11586345.923 5  -8850389.552 5
  19265018.152   -12082008.776 7  -9336429.329 7
  20113807.168   -14871545.878 7 -11407701.973 8
  20327139.801   -15624449.434 7 -12032669.623 8
  23782633.262     9827080.377 2    462573.180 1
  23116204.449    -2859102.865 4  -2129700.853 4
 95  2 18 17 30 59.9960000  0  7 25 18 14 22 29 15 19
  22984154.738     7973146.941 5   6192451.405 2
  22137799.473   -11700711.630 5  -8939505.649 5
  19260695.238   -12104737.833 7  -9354140.311 7
  20106995.598   -14907320.050 7 -11435577.974 8
  20312005.371   -15703983.417 7 -12094644.161 8
  23793809.824     9885798.619 2    508327.441 2
  23092899.738    -2981569.616 4  -2225129.474 1
 95  2 18 17 31 29.9960000  0  7 25 18 14 22 29 15 19
  22994172.098     8025793.917 5   6233474.921 3
  22116033.043   -11815064.232 5  -9028611.528 5
  19256475.840   -12126900.283 7  -9371409.779 7
  20100306.332   -14942488.088 7 -11462981.668 8
  20296893.512   -15783393.370 7 -12156522.063 8
  23804952.840     9944381.939 3    553976.636 1
  23069624.363    -3103871.837 3  -2320429.876 1
 95  2 18 17 31 59.9960000  0  7 25 18 14 22 29 15 19
  23004189.785     8078440.583 5   6274498.186 4
  22094285.566   -11929381.575 5  -9117689.952 5
  19252365.738   -12148495.282 7  -9388237.078 8
  20093731.926   -14977033.563 7 -11489900.244 8
  20281807.809   -15862670.625 7 -12218296.546 8
  23816084.699    10002842.090 3    599529.821 1
  23046387.512    -3225987.494 3  -2415584.892 2
 95  2 18 17 32 29.9960000  0  6 25 18 14 22 29 19
  23014208.449     8131088.540 5   6315522.484 4
  22072537.293   -12043649.141 5  -9206729.576 5
  19248364.824   -12169533.831 7  -9404630.788 8
  20087271.941   -15010970.486 7 -11516344.626 8
  20266745.887   -15941825.795 7 -12279975.903 8
  23023180.168    -3347922.582 3  -2510599.223 3
 95  2 18 17 32 59.9960000  0  6 25 18 14 22 29 19
  23024231.051     8183756.459 5   6356562.295 4
  22050802.707   -12157866.519 5  -9295730.091 5
  19244465.051   -12190015.278 7  -9420590.385 7
  20080932.418   -15044308.215 7 -11542322.097 8
  20251706.402   -16020851.428 7 -12341554.322 8
  23000014.887    -3469678.929 3  -2605474.264 3
 95  2 18 17 33 29.9960000  0  6 25 18 14 22 29 19
  23034256.941     8236438.041 5   6397612.790 5
  22029075.887   -12272044.782 5  -9384700.128 5
  19240675.004   -12209943.799 7  -9436119.134 7
  20074694.762   -15077073.789 7 -11567853.737 8
  20236691.129   -16099758.591 7 -12403040.427 8
  22976875.340    -3591271.004 3  -2700221.316 2
 95  2 18 17 33 59.9960000  0  6 25 18 14 22 29 19
  23044280.066     8289131.667 5   6438672.658 4
  22007360.629   -12386174.766 5  -9473632.568 5
  19236990.223   -12229311.244 7  -9451210.677 8
  20068571.246   -15109248.692 7 -11592925.118 8
  20221701.215   -16178536.106 7 -12464425.512 9
  22953765.996    -3712698.547 3  -2794840.139 3
 95  2 18 17 34 29.9960000  0  6 25 18 14 22 29 19
  23054313.395     8341830.416 5   6479736.495 5
  21985645.824   -12500269.775 5  -9562537.731 5
  19233408.988   -12248116.107 7  -9465863.849 7
  20062561.910   -15140841.203 7 -11617542.687 8
  20206735.605   -16257182.760 7 -12525708.613 8
  22930693.856    -3833957.504 5  -2889327.626 2
 95  2 18 17 34 59.9960000  0  6 25 18 14 22 29 19
  23064344.590     8394542.918 5   6520811.062 5
  21963939.902   -12614337.178 5  -9651421.415 5
  19229939.098   -12266351.842 7  -9480073.546 8
  20056664.629   -15171828.115 7 -11641688.352 8
  20191795.496   -16335691.674 7 -12586884.407 9
  22907653.270    -3955033.696 4  -2983672.691 3
 95  2 18 17 35 29.9960000  0  6 25 18 14 22 29 19
  23074371.926     8447252.108 5   6561883.049 5
  21942242.043   -12728376.226 5  -9740282.973 5
  19226578.598   -12284024.507 7  -9493844.488 8
  20050882.949   -15202194.326 7 -11665350.347 8
  20176881.199   -16414066.516 7 -12647955.711 8
  22884651.559    -4075925.527 5  -3077874.096 2
 95  2 18 17 35 59.9960000  0  6 25 18 14 22 29 19
  23084402.699     8499962.616 5   6602956.056 5
  21920542.082   -12842386.841 5  -9829122.393 5
  19223326.098   -12301119.708 7  -9507165.460 8
  20045225.926   -15231928.728 7 -11688520.026 8
  20161992.176   -16492306.456 7 -12708921.906 9
  22861682.707    -4196616.097 5  -3171918.680 3
 95  2 18 17 36 29.9960000  0  6 25 18 14 22 29 19
  23094432.684     8552673.587 5   6644029.424 5
  21898851.730   -12956376.924 5  -9917945.830 5
  19220181.613   -12317634.099 7  -9520033.843 8
  20039688.020   -15261039.260 7 -11711203.562 8
  20147126.168   -16570427.079 7 -12769795.119 8
  22838754.145    -4317121.616 5  -3265819.100 4
 95  2 18 17 36 59.9960000  0  6 25 18 14 22 29 19
  23104464.707     8605373.772 5   6685094.406 5
  21877169.621   -13070338.227 5 -10006746.822 5
  19217146.379   -12333571.627 7  -9532452.727 8
  20034269.059   -15289525.534 7 -11733400.670 8
  20132286.238   -16648416.066 7 -12830565.765 9
  22815853.449    -4437461.852 5  -3359590.700 4
 95  2 18 17 37 29.9960000  0  6 25 18 14 22 29 19
  23114485.270     8658049.589 5   6726140.385 5
  21855489.074   -13184252.952 6 -10095511.528 5
  19214225.324   -12348928.839 7  -9544419.423 8
  20028964.379   -15317398.333 7 -11755119.736 8
  20117474.746   -16726250.294 7 -12891215.819 9
  22792981.121    -4557635.308 5  -3453232.362 4
 95  2 18 17 37 59.9960000  0  6 25 18 14 22 29 19
  23124502.840     8710697.038 5   6767164.239 5
  21833822.090   -13298123.087 6 -10184241.473 5
  19211410.707   -12363718.875 7  -9555944.155 8
  20023771.777   -15344677.734 7 -11776376.424 8
  20102692.801   -16803929.829 7 -12951745.331 8
  22770146.082    -4677654.210 5  -3546753.579 4
 95  2 18 17 38 29.9960000  0  6 25 18 14 22 29 19
  23134511.973     8763299.281 5   6808152.898 5
  21812160.473   -13411937.029 6 -10272927.639 5
  19208701.613   -12377960.963 7  -9567041.922 8
  20018691.215   -15371370.325 7 -11797175.846 8
  20087942.410   -16881442.919 7 -13012145.144 8
  22747334.621    -4797528.706 5  -3640162.267 3
 95  2 18 17 38 59.9960000  0  6 25 18 14 22 29 19
  23144516.488     8815848.943 5   6849100.613 5
  21790516.145   -13525681.798 5 -10361559.911 5
  19206093.824   -12391668.997 7  -9577723.543 8
  20013723.973   -15397473.976 7 -11817516.344 8
  20073226.465   -16958775.373 7 -13072404.202 9
  22724552.832    -4917233.738 5  -3733438.895 4
 95  2 18 17 39 29.9960000  0  6 25 18 14 22 29 19
  23154506.754     8868357.682 5   6890016.383 4
  21768886.277   -13639366.917 6 -10450145.696 5
  19203587.621   -12404837.585 7  -9587984.812 8
  20008867.223   -15422991.118 7 -11837399.824 8
  20058539.691   -17035954.175 7 -13132543.529 9
  22701803.340    -5036761.770 4  -3826577.586 4
 95  2 18 17 39 59.9960000  0  6 25 18 14 22 29 19
  23164498.121     8920846.923 5   6930916.966 4
  21747259.004   -13752998.279 6 -10538689.592 5
  19201188.277   -12417453.502 7  -9597815.433 8
  20004125.215   -15447914.634 7 -11856820.746 8
  20043879.824   -17112994.464 7 -13192574.934 8
  22679099.043    -5156103.464 5  -3919571.100 4
 95  2 18 17 40 29.9960000  0  6 25 18 14 22 29 19
  23174481.941     8973321.856 5   6971806.421 4
  21725645.824   -13866569.690 6 -10627186.781 5
  19198897.043   -12429490.719 7  -9607195.119 8
  19999498.840   -15472231.087 7 -11875768.635 8
  20029246.738   -17189892.641 7 -13252495.600 8
  22656425.551    -5275240.502 5  -4012405.110 3
 95  2 18 17 40 59.9960000  0  6 25 18 14 22 29 19
  23184463.199     9025794.536 4   7012694.115 4
  21704044.262   -13980102.634 6 -10715653.990 5
  19196717.324   -12440940.979 7  -9616117.431 8
  19994986.254   -15495943.893 7 -11894246.151 8
  20014635.559   -17266671.811 7 -13312323.529 8
  22633790.527    -5394179.599 4  -4105084.884 3
 95  2 18 17 41 29.9960000  0  6 25 18 14 22 29 19
  23194459.113     9078290.030 5   7053599.588 2
  21682445.051   -14093598.312 6 -10804092.158 5
  19194652.746   -12451790.787 7  -9624571.858 8
  19990589.801   -15519057.466 7 -11912256.737 8
  20000046.676   -17343331.662 7 -13372058.475 8
  22611195.512    -5512930.262 4  -4197617.829 3
 95  2 18 17 41 59.9960000  0  6 25 18 14 22 29 19
  23204451.441     9130806.746 4   7094521.622 2
  21660856.106   -14207053.035 6 -10892498.435 5
  19192700.816   -12462044.276 7  -9632561.622 8
  19986305.754   -15541567.065 7 -11929796.690 8
  19985486.277   -17419848.669 7 -13431682.129 8
  22588634.199    -5631492.276 4  -4290003.784 3
 95  2 18 17 42 29.9960000  0  6 25 18 14 22 29 19
  23214447.191     9183340.446 4   7135456.868 3
  21639273.496   -14320468.161 6 -10980873.834 5
  19190861.926   -12471709.085 7  -9640092.676 8
  19982137.801   -15563467.334 7 -11946861.839 8
  19970956.160   -17496211.788 7 -13491185.860 8
  22566106.574    -5749868.849 4  -4382245.222 3
 95  2 18 17 42 59.9960000  0  6 25 18 14 22 29 19
  23224444.090     9235887.536 4   7176402.532 3
  21617695.504   -14433852.373 6 -11069225.159 5
  19189128.027   -12480819.345 7  -9647191.613 8
  19978085.785   -15584769.921 7 -11963461.275 8
  19956453.363   -17572423.481 7 -13550571.601 8
  22543615.465    -5868071.493 5  -4474351.176 2
 95  2 18 17 43 29.9960000  0  6 25 18 14 22 29 19
  23234444.676     9288431.255 5   7217345.610 2
  21596127.410   -14547200.605 6 -11157548.441 5
  19187497.629   -12489385.851 7  -9653866.848 8
  19974147.730   -15605462.671 7 -11979585.508 8
  19941984.520   -17648462.889 7 -13609823.097 9
  22521158.363    -5986098.045 5  -4566319.881 2
 95  2 18 17 43 59.9960000  0  6 25 18 14 22 29 19
  23244435.395     9340946.814 5   7258266.698 2
  21574566.809   -14660515.735 6 -11245845.921 5
  19185970.762   -12497415.886 7  -9660124.055 8
  19970325.324   -15625539.229 7 -11995229.595 8
  19927545.496   -17724336.302 7 -13668945.252 8
  22498727.691    -6103948.000 5  -4658151.012 3
 95  2 18 17 44 29.9960000  0  6 25 18 14 22 29 19
  23254417.184     9393421.049 5   7299155.626 2
  21553011.184   -14773781.562 6 -11334105.000 5
  19184545.629   -12504920.121 7  -9665971.546 8
  19966619.434   -15645011.479 7 -12010402.793 8
  19913136.551   -17800055.748 7 -13727947.431 9
  22476337.504    -6221615.572 5  -4749840.002 3
 95  2 18 17 44 59.9960000  0  6 25 18 14 22 29 19
  23264399.355     9445844.405 5   7340004.908 2
  21531470.855   -14886983.229 6 -11422314.068 5
  19183214.356   -12511894.505 7  -9671406.163 8
  19963029.949   -15663881.254 7 -12025106.523 8
  19898757.754   -17875613.850 7 -13786823.888 9
  22453978.606    -6339100.996 5  -4841387.103 2
 95  2 18 17 45 29.9960000  0  6 25 18 14 22 29 19
  23274372.402     9498221.662 5   7380818.253 2
  21509943.918   -15000106.497 6 -11510462.053 5
  19181993.715   -12518308.611 7  -9676404.199 8
  19959556.668   -15682140.827 7 -12039334.786 8
  19884412.371   -17951001.266 7 -13845567.343 8
  22431665.965    -6456395.904 5  -4932785.711 2
 95  2 18 17 45 59.9960000  0  6 25 18 14 22 29 19
  23284324.715     9550561.746 5   7421602.629 3
  21488434.777   -15113138.983 6 -11598539.290 5
  19180884.355   -12524151.886 7  -9680957.429 8
  19956193.012   -15699800.257 7 -12053095.390 8
  19870100.348   -18026217.838 7 -13904177.673 9
  22409377.543    -6573495.886 5  -5024032.452 4
 95  2 18 17 46 29.9960000  0  6 25 18 14 22 29 19
  23294283.355     9602866.195 5   7462359.230 3
  21466939.223   -15226087.809 6 -11686551.347 5
  19179881.465   -12529422.399 7  -9685064.361 8
  19952946.934   -15716864.954 7 -12066392.575 8
  19855820.176   -18101254.427 7 -13962647.761 9
  22387129.934    -6690401.068 5  -5115127.385 4
 95  2 18 17 46 59.9960000  0  6 25 18 14 22 29 19
  23304224.488     9655143.049 5   7503094.317 4
  21445456.512   -15338973.874 6 -11774514.490 5
  19178984.973   -12534115.363 7  -9688721.247 8
  19949817.676   -15733320.606 7 -12079215.173 8
  19841577.051   -18176102.242 7 -14020970.745 9
  22364917.660    -6807120.766 5  -5206077.776 4
 95  2 18 17 47 29.9960000  0  7 25 18 14 22 29  4 19
  23314174.918     9707390.381 5   7543806.403 3
  21423987.777   -15451811.700 6 -11862440.034 5
  19178206.441   -12538239.507 7  -9691934.901 8
  19946794.215   -15749183.501 7 -12091575.881 8
  19827364.059   -18250787.853 7 -14079167.333 8
  23599668.355      -41812.795 3
  22342744.230    -6923660.596 5  -5296888.011 4
 95  2 18 17 47 59.9960000  0  7 25 18 14 22 29  4 19
  23324103.043     9759596.560 5   7584486.436 4
  21402522.426   -15564607.008 6 -11950332.470 5
  19177522.238   -12541807.136 7  -9694714.900 8
  19943891.543   -15764460.329 7 -12103479.914 8
  19813180.020   -18325324.468 7 -14137247.828 9
  23591798.559      -83167.597 3        -0.42212
  22320598.012    -7040025.628 5  -5387562.040 4
 95  2 18 17 48 29.9950000  0  7 25 18 14 22 29  4 19
  23334033.421     9811768.531 5   7625139.826 4
  21381065.515   -15677357.106 6 -12038189.657 5
  19176953.304   -12544813.417 7  -9697057.487 8
  19941094.804   -15779149.730 7 -12114926.204 8
  19799025.616   -18399720.312 7 -14195218.624 9
  23584011.601     -124065.370 3    -31868.870 3
  22298489.499    -7156208.478 5  -5478094.093 5
 95  2 18 17 48 59.9950000  0  7 25 18 14 22 29  4 19
  23343959.843     9863907.821 5   7665767.728 4
  21359622.023   -15790057.454 6 -12126008.089 5
  19176487.374   -12547254.135 7  -9698959.382 8
  19938409.632   -15793260.049 7 -12125921.257 8
  19784888.812   -18473996.238 7 -14253095.975 9
  23576312.772     -164501.355 3    -63377.494 2
  22276412.272    -7272227.118 5  -5568498.189 4
 95  2 18 17 49 29.9950000  0  6 18 14 22 29  4 19
  21338189.640   -15902685.494 6 -12213770.181 5
  19176132.101   -12549110.057 7  -9700405.585 8
  19935836.132   -15806790.300 7 -12136464.309 8
  19770780.343   -18548143.729 7 -14310873.241 9
  23568707.858     -204465.734 3    -94518.579 3
  22254369.655    -7388055.158 5  -5658753.768 5
 95  2 18 17 49 59.9950000  0  6 18 14 22 29  4 19
  21316770.757   -16015235.283 6 -12301471.312 5
  19175894.952   -12550388.381 7  -9701401.721 8
  19933371.937   -15819725.604 7 -12146543.773 8
  19756700.179   -18622138.573 7 -14368531.568 9
  23561205.905     -243953.397 3   -125288.243 2
  22232366.405    -7503693.095 5  -5748861.225 5
 95  2 18 17 50 29.9950000  0  6 18 14 22 29  4 19
  21295368.515   -16127709.243 6 -12389113.351 6
  19175756.538   -12551088.195 7  -9701947.062 8
  19931025.233   -15832067.034 7 -12156160.482 8
  19742651.366   -18695964.343 7 -14426058.150 9
  23553774.108     -282966.657 3   -155688.225 2
  22210398.241    -7619130.558 5  -5838812.430 5
 95  2 18 17 50 59.9950000  0  6 18 14 22 29  4 19
  21273980.913   -16240106.002 6 -12476695.225 5
  19175733.413   -12551227.043 7
  19928789.491   -15843807.868 7 -12165309.184 8
  19728638.483   -18769595.068 7 -14483432.749 9
  23546441.140     -321499.235 3   -185713.671 2
  22188471.015    -7734355.547 5  -5928598.109 5
 95  2 18 17 51 29.9950000  0  6 18 14 22 29  4 19
  21252602.085   -16352439.714 6 -12564227.992 6
  19175803.858   -12550825.925 7
  19926669.499   -15854959.451 7 -12173998.742 8
  19714666.132   -18843023.400 7 -14540649.646 9
  23539209.171     -359553.918 3   -215366.686 2
  22166588.577    -7849361.697 5  -6018213.236 4
 95  2 18 17 51 59.9950000  0  6 18 14 22 29  4 19
  21231236.905   -16464714.369 6 -12651714.724 6
  19175984.358   -12549902.783 7  -9701023.479 8
  19924653.710   -15865537.226 7 -12182241.170 8
  19700730.835   -18916261.404 7 -14597718.229 9
  23532045.819     -397132.886 3   -244649.043 2
  22144739.991    -7964167.145 5  -6107672.000 5
 95  2 18 17 52 29.9950000  0  6 18 14 22 29  4 19
  21209886.023   -16576921.085 6 -12739148.519 5
  19176259.569   -12548445.662 7  -9699888.095 8
  19922755.296   -15875536.675 7 -12190032.968 8
  19686827.632   -18989310.770 7 -14654639.824 9
  23524993.327     -434225.872 3   -273552.706 2
  22122933.773    -8078756.532 5  -6196962.394 5
 95  2 18 17 52 59.9950000  0  6 18 14 22 29  4 19
  21188546.530   -16689050.647 6 -12826522.207 6
  19176639.140   -12546451.549 7  -9698334.275 8
  19920960.843   -15884948.921 7 -12197367.201 8
  19672964.405   -19062171.351 7 -14711414.305 9
  23518029.718     -470823.729 3   -302070.601 1
  22101172.851    -8193141.541 5  -6286093.527 5
 95  2 18 17 53 29.9950000  0  6 18 14 22 29  4 19
  21167228.296   -16801096.867 6 -12913830.949 5
  19177124.335   -12543899.125 7  -9696345.417 8
  19919282.952   -15893771.895 7 -12204242.272 8
  19659131.616   -19134862.673 7 -14768056.905 9
  23511156.882     -506935.859 3   -330209.955 2
  22079440.054    -8307334.374 5  -6375074.928 5
 95  2 18 17 53 59.9950000  0  6 18 14 22 29  4 19
  21145918.577   -16913064.261 6 -13001078.256 6
  19177715.140   -12540787.312 7  -9693920.670 8
  19917719.749   -15901986.942 7 -12210643.635 8
  19645330.858   -19207385.286 7 -14824568.032 9
  23504381.483     -542581.450 4   -357985.818 2
  22057741.874    -8421344.936 5  -6463914.295 5
 95  2 18 17 54 29.9950000  0  6 18 14 22 29  4 19
  21124627.577   -17024946.844 6 -13088259.485 5
  19178422.116   -12537107.510 7  -9691053.328 8
  19916274.694   -15909582.509 7 -12216562.291 8
  19631566.773   -19279711.173 7 -14880925.876 9
  23497675.616     -577762.716 3   -385399.792 1
  22036083.054    -8535164.056 5  -6552604.469 5
 95  2 18 17 54 59.9950000  0  6 18 14 22 29  4 19
  21103349.772   -17136769.155 6 -13175393.743 5
  19179223.866   -12532880.199 7  -9687759.367 8
  19914940.069   -15916590.350 7 -12222022.977 8
  19617838.226   -19351859.972 7 -14937145.736 9
  23491063.483     -612505.312 3   -412472.013 1
  22014458.069    -8648821.585 5  -6641168.756 5
 95  2 18 17 55 29.9950000  0  6 18 14 22 29  4 19
  21082086.812   -17248510.663 6 -13262465.029 6
  19180129.538   -12528101.057 7  -9684035.405 8
  19913721.851   -15923004.936 7 -12227021.400 8
  19604145.147   -19423818.054 7 -14993216.982 9
  23484542.218     -646786.192 3   -439184.425 3
  21992861.327    -8762291.788 5  -6729587.056 5
 95  2 18 17 55 59.9950000  0  6 18 14 22 29  4 19
  21060838.593   -17360172.619 6 -13349474.338 6
  19181143.944   -12522779.502 7  -9679888.783 8
  19912610.733   -15928830.075 7 -12231560.506 8
  19590491.874   -19495559.234 7 -15049119.211 9
  23478107.335     -680603.474 3   -465535.615 1
  21971305.124    -8875579.082 5  -6817862.835 5
 95  2 18 17 56 29.9950000  0  6 18 14 22 29  4 19
  21039600.944   -17471772.760 6 -13436435.472 6
  19182260.101   -12516924.333 7  -9675326.358 8
  19911606.515   -15934099.542 7 -12235666.625 8
  19576878.460   -19567109.153 7 -15104872.408 9
  23471760.265     -713963.944 3   -491530.852 3
  21949778.976    -8988689.088 5  -6906000.493 4
 95  2 18 17 56 59.9950000  0  5 18 14 22 29 19
  21018378.843   -17583303.600 6 -13523342.614 6
  19183476.851   -12510533.836 7  -9670346.798 8
  19910711.280   -15938809.202 7 -12239336.523 8
  19563295.733   -19638478.604 7 -15160484.977 9
  21928292.585    -9101605.408 5  -6993987.211 5
 95  2 18 17 57 29.9950000  0  5 18 14 22 29 19
  20997168.038   -17694757.414 6 -13610189.728 6
  19184793.015   -12503606.780 7  -9664949.131 8
  19909928.343   -15942937.878 7 -12242553.707 8
  19549752.476   -19709651.093 7 -15215944.064 9
  21906847.538    -9214307.257 5  -7081806.807 4
 95  2 18 17 57 59.9950000  0  5 18 14 22 29 19
  20975966.218   -17806161.020 6 -13696997.725 6
  19186211.468   -12496147.410 7  -9659136.670 8
  19909254.358   -15946493.604 7 -12245324.456 8
  19536242.093   -19780651.310 7 -15271268.927 9
  21885440.288    -9326806.488 5  -7169468.514 4
 95  2 18 17 58 29.9950000  0  5 18 14 22 29 19
  20954783.358   -17917494.422 6 -13783751.006 6
  19187735.952   -12488140.986 7  -9652897.941 8
  19908685.835   -15949465.519 7 -12247640.282 8
  19522761.507   -19851487.502 7 -15326465.977 9
  21864073.858    -9439075.860 5  -7256951.110 3
 95  2 18 17 58 59.9950000  0  5 18 14 22 29 19
  20933617.327   -18028729.756 6 -13870427.876 6
  19189362.851   -12479596.174 7  -9646239.688 8
  19908232.601   -15951852.041 7 -12249499.947 8
  19509317.874   -19922137.725 7 -15381518.108 9
  21842755.397    -9551119.867 5  -7344258.105 4
 95  2 18 17 59 29.9950000  0  5 18 14 22 29 19
  20912466.015   -18139867.595 6 -13957028.771 6
  19191091.093   -12470515.070 7  -9639163.552 8
  19907884.554   -15953665.083 7 -12250912.740 8
  19495907.741   -19992603.133 7 -15436426.245 9
  21821469.976    -9662961.944 5  -7431407.759 4
 95  2 18 17 59 59.9950000  0  5 18 14 22 29 19
  20891341.507   -18250878.577 6 -14043530.811 6
  19192925.874   -12460872.347 7  -9631649.785 8
  19907648.733   -15954913.982 7 -12251885.948 8
  19482537.202   -20062870.926 7 -15491180.384 9
  21800225.515    -9774599.954 5  -7518398.390 4
 95  2 18 18  0 29.9950000  0  5 18 14 22 29 19
  20870241.194   -18361753.216 6 -14129926.626 6
  19194865.812   -12450685.964 7  -9623712.390 8
  19907511.007   -15955615.549 7 -12252432.657 8
  19469206.616   -20132924.038 7 -15545767.243 9
  21779021.679    -9886038.701 5  -7605233.762 4
 95  2 18 18  0 59.9950000  0  5 18 14 22 29 19
  20849169.780   -18472500.090 6 -14216222.874 6
  19196907.296   -12439960.923 7  -9615355.261 8
  19907482.991   -15955770.568 7
  19455918.491   -20202755.615 7 -15600181.476 9
  21757851.187    -9997277.060 5  -7691912.975 5
 95  2 18 18  1 29.9950000  0  5 18 14 22 29 19
  20828115.218   -18583134.221 6 -14302431.270 6
  19199052.593   -12428689.530 7  -9606572.409 8
  19907558.812   -15955368.570 7
  19442669.132   -20272385.958 7 -15654438.902 9
  21736726.194   -10108311.778 5  -7778433.498 4
 95  2 18 18  1 59.9950000  0  5 18 14 22 29 19
  20807078.405   -18693677.833 6 -14388569.139 6
  19201297.335   -12416888.681 7  -9597376.992 8
  19907742.679   -15954408.020 7 -12251491.829 8
  19429452.632   -20341831.628 7 -15708552.434 9
  21715634.983   -10219144.638 5  -7864796.727 4
 95  2 18 18  2 29.9950000  0  5 18 14 22 29 19
  20786059.765   -18804141.627 6
  19203641.976   -12404570.813 7  -9587778.695 8
  19908037.398   -15952867.038 7 -12250291.088 8
  19416274.085   -20411089.198 7 -15762519.400 9
  21694585.226   -10329767.694 5
 95  2 18 18  2 59.9950000  0  5 18 14 22 29 19
  20765051.374   -18914538.824 6
  19206085.038   -12391734.026 7  -9577776.058 8
  19908436.929   -15950757.899 7 -12248647.632 8
  19403126.085   -20480181.081 7 -15816357.260 9
  21673570.241   -10440195.431 5
 95  2 18 18  3 29.9950000  0  5 18 14 22 29 19
  20744057.640   -19024860.048 6
  19208628.296   -12378369.931 7  -9567362.532 8
  19908944.194   -15948084.080 7 -12246564.151 8
  19390012.687   -20549091.584 7 -15870053.782 9
  21652592.835   -10550428.934 5
 95  2 18 18  3 59.9950000  0  5 18 14 22 29 19
  20723075.929   -19135110.173 6 -14732542.345 6
  19211270.593   -12364482.804 7  -9556541.456 8
  19909559.194   -15944859.861 7 -12244051.805 8
  19376938.796   -20617790.490 7 -15923585.418 9
  21631653.819   -10660462.781 5  -8057443.804 5
 95  2 18 18  4 29.9950000  0  5 18 14 22 29 19
  20702115.898   -19245278.713 6 -14818387.956 6
  19214014.546   -12350058.935 7  -9545302.132 8
  19910279.655   -15941086.978 7 -12241111.916 8
  19363912.155   -20686246.312 7 -15976927.643 9
  21610752.319   -10770281.375 5  -8143016.679 5
 95  2 18 18  4 59.9950000  0  5 18 14 22 29 19
  20681168.937   -19355351.315 6 -14904158.805 6
  19216862.429   -12335083.731 7  -9533633.189 8
  19911101.601   -15936760.131 7 -12237740.367 8
  19350932.382   -20754459.385 7 -16030080.717 9
  21589895.874   -10879879.005 5  -8228417.387 5
 95  2 18 18  5 29.9950000  0  5 18 14 22 29 19
  20660238.038   -19465332.452 6 -14989858.379 6
  19219814.483   -12319572.040 7  -9521546.208 8
  19912037.874   -15931860.686 7 -12233922.642 8
  19337997.796   -20822426.223 7 -16083041.912 9
  21569088.163   -10989260.919 5  -8313649.993 5
 95  2 18 18  5 59.9950000  0  5 18 14 22 29 19
  20639328.444   -19575213.728 6 -15075480.141 6
  19222867.015   -12303527.864 7  -9509044.304 8
  19913080.819   -15926379.622 7 -12229651.704 8
  19325111.437   -20890151.558 7 -16135814.929 9
  21548308.452   -11098429.924 5  -8398716.704 5
 95  2 18 18  6 29.9950000  0  5 18 14 22 29 19
  20618441.608   -19684981.821 6 -15161013.717 6
  19226021.077   -12286961.578 7  -9496135.567 8
  19914232.991   -15920319.659 7 -12224929.672 8
  19312261.726   -20957670.331 7 -16188426.983 9
  21527573.538   -11207402.568 5  -8483630.405 5
 95  2 18 18  6 59.9950000  0  5 18 14 22 29 19
  20597578.624   -19794619.653 6 -15246445.776 6
  19229271.585   -12269886.147 7  -9482830.076 8
  19915490.577   -15913694.426 7 -12219767.172 8
  19299449.976   -21025003.706 7 -16240894.578 9
  21506871.390   -11316192.321 5  -8568401.591 5
 95  2 18 18  7 29.9950000  0  5 18 14 22 29 19
  20576741.288   -19904126.699 6 -15331775.943 6
  19232617.351   -12252305.982 7  -9469131.299 8
  19916855.522   -15906525.041 7 -12214180.661 8
  19286674.585   -21092136.162 7 -16293205.605 9
  21486202.976   -11424797.103 5  -8653028.645 5
 95  2 18 18  7 59.9950000  0  5 18 14 22 29 19
  20555923.257   -20013498.761 6 -15417000.918 6
  19236055.273   -12234215.523 7  -9455034.897 8
  19918320.710   -15898839.910 7 -12208192.267 8
  19273939.187   -21159067.357 7 -16345359.811 9
  21465573.429   -11533215.465 5  -8737510.454 5
 95  2 18 18  8 29.9950000  0  5 18 14 22 29 19
  20535136.624   -20122747.980 6 -15502130.176 6
  19239595.608   -12215614.467 7  -9440540.618 8
  19919880.085   -15890645.523 7 -12201807.052 8
  19261239.257   -21225804.932 7 -16397363.138 9
  21444974.976   -11641451.000 5  -8821849.794 5
 95  2 18 18  8 59.9950000  0  5 18 14 22 29 19
  20514368.710   -20231888.706 6 -15587174.897 6
  19243237.421   -12196498.018 7  -9425644.736 8
  19921533.491   -15881937.906 7 -12195021.918 8
  19248581.374   -21292318.128 7 -16449191.624 9
  21424418.765   -11749487.522 5  -8906034.056 5
 95  2 18 18  9 29.9940000  0  5 18 14 22 29 19
  20493618.432   -20340923.573 6 -15672137.117 6
  19246975.525   -12176844.322 7  -9410330.226 8
  19923294.104   -15872685.472 7 -12187812.251 8
  19235973.791   -21358577.563 7 -16500822.370 9
  21403902.705   -11857302.681 5  -8990045.831 5
 95  2 18 18  9 59.9940000  0  5 18 14 22 29 19
  20472886.861   -20449874.478 6 -15757033.922 6
  19250813.330   -12156667.877 7  -9394608.376 8
  19925161.877   -15862888.621 7 -12180178.358 8
  19223407.791   -21424610.734 7 -16552276.809 9
  21383421.400   -11964926.873 5  -9073908.798 5
 95  2 18 18 10 29.9940000  0  5 18 14 22 29 19
  20452169.486   -20558725.469 6 -15841852.862 6
  19254753.869   -12135962.911 7  -9378474.694 8
  19927134.439   -15852524.458 7 -12172102.401 8
  19210888.244   -21490391.270 7 -16603534.392 9
  21362984.064   -12072335.380 5  -9157603.689 5
 95  2 18 18 10 59.9940000  0  5 18 14 22 29 19
  20431480.346   -20667461.456 6 -15926582.186 6
  19258795.314   -12114738.869 7  -9361936.546 8
  19929209.057   -15841602.739 7 -12163591.988 8
  19198424.291   -21555903.139 7 -16654582.616 9
  21342585.518   -12179514.966 5  -9241120.205 5
 95  2 18 18 11 29.9940000  0  5 18 14 22 29 19
  20410811.244   -20776075.253 6 -16011216.305 6
  19262927.697   -12093005.601 7  -9345001.585 8
  19931393.088   -15830135.633 7 -12154656.600 8
  19186001.205   -21621177.467 7 -16705445.742 9
  21322228.439   -12286492.754 5  -9324479.480 5
 95  2 18 18 11 59.9940000  0  5 18 14 22 29 19
  20390166.924   -20884563.935 6 -16095752.938 6
  19267156.939   -12070779.251 7  -9327682.409 8
  19933678.440   -15818135.631 7 -12145305.971 8
  19173623.518   -21686225.640 7 -16756132.641 9
  21301912.510   -12393266.033 5  -9407679.393 5
 95  2 18 18 12 29.9940000  0  5 18 14 22 29 19
  20369548.518   -20992922.421 6 -16180188.100 6
  19271484.143   -12048063.081 7  -9309981.557 8
  19936059.830   -15805604.839 7 -12135541.740 8
  19161288.190   -21751046.290 7 -16806642.248 9
  21281637.221   -12499812.303 5  -9490702.436 5
 95  2 18 18 12 59.9940000  0  5 18 14 22 29 19
  20348954.275   -21101146.299 6 -16264518.385 6
  19275895.541   -12024856.972 7  -9291898.926 8
  19938547.635   -15792546.916 7 -12125366.767 8
  19148994.791   -21815657.973 7 -16856989.023 9
  21261401.838   -12606136.483 5  -9573552.412 5
 95  2 18 18 13 29.9940000  0  5 18 14 22 29 19
  20328387.705   -21209231.521 6 -16348740.616 6
  19280410.314   -12001150.333 7  -9273426.271 8
  19941132.533   -15778949.373 7 -12114771.310 7
  19136737.314   -21880065.413 7 -16907176.645 9
  21241213.541   -12712236.641 5  -9656227.824 5
 95  2 18 18 13 59.9940000  0  5 18 14 22 29 19
  20307842.057   -21317180.693 6 -16432856.848 6
  19285013.260   -11976950.664 7  -9254569.456 8
  19943821.268   -15764823.167 7 -12103763.904 7
  19124522.486   -21944253.849 7 -16957193.616 9
  21221069.330   -12818104.634 6  -9738722.328 5
 95  2 18 18 14 29.9940000  0  5 18 14 22 29 19
  20287331.939   -21424976.365 6 -16516853.458 6
  19289716.182   -11952244.543 7  -9235318.008 8
  19946609.033   -15750179.122 7 -12092352.997 7
  19112351.838   -22008212.904 7 -17007031.848 9
  21200962.916   -12923748.926 5  -9821042.537 5
 95  2 18 18 14 59.9940000  0  5 18 14 22 29 19
  20266844.533   -21532628.333 6 -16600738.093 6
  19294511.791   -11927035.210 7  -9215674.434 8
  19949492.947   -15735023.851 7 -12080543.743 7
  19100224.455   -22071936.535 7 -17056686.627 9
  21180895.947   -13029190.690 5  -9903204.939 5
 95  2 18 18 15 29.9940000  0  5 18 14 22 29 19
  20246388.244   -21640132.713 6 -16684507.724 6
  19299407.494   -11901319.287 7  -9195636.124 8
  19952475.713   -15719349.447 7 -12068329.955 7
  19088148.674   -22135402.853 7 -17106140.902 9
  21160873.041   -13134423.201 5  -9985204.278 5
 95  2 18 18 15 59.9940000  0  5 18 14 22 29 19
  20225958.635   -21747483.362 6 -16768157.558 6
  19304394.635   -11875100.181 7  -9175205.714 8
  19955558.549   -15703154.395 7 -12055710.478 7
  19076123.494   -22198594.231 7 -17155380.939 9
  21140887.658   -13239439.726 5 -10067035.314 5
 95  2 18 18 16 29.9940000  0  5 18 14 22 29 19
  20205558.166   -21854693.254 6 -16851697.709 7
  19309478.799   -11848388.334 7  -9154391.347 8
  19958737.822   -15686437.763 7 -12042684.578 7
  19064148.768   -22261519.443 7 -17204413.575 9
  21120945.885   -13344239.406 5 -10148697.402 5
 95  2 18 18 16 59.9940000  0  5 18 14 22 29 19
  20185181.471   -21961768.624 6 -16935133.046 6
  19314652.760   -11821194.519 7  -9133201.423 8
  19962020.752   -15669188.412 7 -12029243.570 7
  19052224.611   -22324182.137 7 -17253241.657 9
  21101048.010   -13448820.387 5 -10230189.051 5
 95  2 18 18 17 29.9940000  0  5 18 14 22 29 19
  20164833.408   -22068713.870 6 -17018466.988 6
  19319918.658   -11793532.491 7  -9111646.665 8
  19965397.822   -15651433.472 7 -12015408.613 7
  19040343.221   -22386606.846 7 -17301884.300 8
  21081182.080   -13553203.202 5 -10311526.292 5
 95  2 18 18 17 59.9940000  0  5 18 14 22 29 19
  20144508.400   -22175516.415 6 -17101689.732 6
  19325268.736   -11765396.224 7  -9089722.357 8
  19968878.088   -15633167.524 7 -12001175.451 7
  19028512.111   -22448791.625 7 -17350339.988 8
  21061357.150   -13657377.775 5 -10392701.254 5
 95  2 18 18 18 29.9940000  0  5 18 14 22 29 19
  20124214.096   -22282160.372 6 -17184788.904 6
  19330721.611   -11736765.170 7  -9067412.504 8
  19972450.689   -15614372.875 7 -11986530.313 7
  19016724.447   -22510735.990 7 -17398608.330 8
  21041576.861   -13761337.921 5 -10473709.121 5
 95  2 18 18 18 59.9940000  0  5 18 14 22 29 19
  20103950.549   -22388650.269 6 -17267768.025 7
  19336260.354   -11707653.814 7  -9044728.403 8
  19976124.697   -15595074.959 7 -11971493.023 7
  19004978.690   -22572455.257 7 -17446701.266 8
  21021827.049   -13865106.047 5 -10554567.367 5
 95  2 18 18 19 29.9940000  0  5 18 14 22 29 19
  20083713.096   -22494993.033 6 -17350632.509 6
  19341887.541   -11678071.209 7  -9021677.084 8
  19979894.244   -15575273.807 7 -11956063.601 7
  18993278.885   -22633944.404 7 -17494614.902 9
  21002119.650   -13968663.723 5 -10635261.609 5
 95  2 18 18 19 59.9940000  0  5 18 14 22 29 19
  20063503.557   -22601193.434 6 -17433386.051 7
  19347608.869   -11648021.808 7  -8998262.034 8
  19983757.377   -15554954.047 7 -11940230.056 7
  18981624.158   -22695188.494 7 -17542337.571 8
  20982454.682   -14071997.680 6 -10715781.540 5
 95  2 18 18 20 29.9940000  0  5 18 14 22 29 19
  20043320.822   -22707262.285 6 -17516037.087 6
  19353416.440   -11617499.638 7  -8974478.586 8
  19987721.354   -15534133.496 7 -11924006.293 7
  18970019.518   -22756171.780 7 -17589857.020 8
  20962833.744   -14175109.408 6 -10796128.300 5
 95  2 18 18 20 59.9940000  0  5 18 14 22 29 19
  20023161.611   -22813206.715 6 -17598591.176 7
  19359312.307   -11586510.193 7  -8950331.027 8
  19991777.158   -15512831.185 7 -11907407.128 7
  18958465.525   -22816878.197 7 -17637160.730 9
  20943254.119   -14277990.987 6 -10876295.723 5
 95  2 18 18 21 29.9940000  0  6 28 18 14 22 29 19
  23075698.244     -108503.386 3
  20003022.471   -22919023.777 6 -17681046.004 6
  19365300.939   -11555043.158 7  -8925811.322 8
  19995921.244   -15491036.623 7 -11890424.386 7
  18946970.314   -22877297.081 7 -17684240.387 8
  20923726.635   -14380640.896 6 -10956282.598 5
 95  2 18 18 21 59.9940000  0  6 28 18 14 22 29 19
  23055063.690     -216933.571 2        -0.48013
  19982911.307   -23024709.161 6 -17763398.244 6
  19371384.275   -11523088.592 7  -8900911.718 7
  20000158.197   -15468770.301 7 -11873074.041 7
  18935526.674   -22937429.069 7 -17731096.494 8
  20904230.635   -14483082.509 6 -11036107.183 5
 95  2 18 18 22 29.9940000  0  6 28 18 14 22 29 19
  23034448.463     -325278.641 2    -84425.073 2
  19962829.197   -23130238.968 6 -17845629.246 6
  19377555.377   -11490637.939 7  -8875625.566 7
  20004488.783   -15446033.100 7 -11855356.774 7
  18924140.127   -22997270.411 7 -17777726.104 8
  20884780.299   -14585298.495 6 -11115755.954 5
 95  2 18 18 22 59.9940000  0  6 28 18 14 22 29 19
  23013844.658     -433532.906 3   -168778.919 2
  19942784.619   -23235581.855 7 -17927714.599 7
  19383824.010   -11457694.448 6  -8849955.389 8
  20008909.322   -15422788.495 7 -11837244.125 7
  18912806.861   -23056831.789 7 -17824137.574 8
  20865373.252   -14687288.777 6 -11195228.862 5
 95  2 18 18 23 29.9940000  0  6 28 18 14 22 29 19
  22993260.479     -541699.691 2   -253064.629 3
  19922772.643   -23340737.946 7 -18009654.391 7
  19390190.315   -11424263.586 6  -8823905.448 7
  20013429.768   -15399026.434 7 -11818728.268 7
  18901520.744   -23116136.329 7 -17870348.912 8
  20846004.799   -14789067.737 6 -11274537.107 6
 95  2 18 18 23 59.9940000  0  6 28 18 14 22 29 19
  22972691.736     -649772.953 2   -337277.432 2
  19902799.791   -23445705.269 7 -18091447.092 7
  19396641.275   -11390354.624 7  -8797482.955 7
  20018049.979   -15374756.720 7 -11799816.846 7
  18890284.549   -23175184.791 7 -17916360.709 8
  20826675.744   -14890628.484 6 -11353675.325 6
 95  2 18 18 24 29.9940000  0  6 28 18 14 22 29 19
  22952143.369     -757766.766 3   -421428.368 3
  19882858.611   -23550496.319 7 -18173102.444 7
  19403179.197   -11355989.714 7  -8770705.181 7
  20022764.713   -15349985.268 7 -11780514.451 7
  18879089.736   -23234001.046 7 -17962191.560 9
  20807389.455   -14991991.214 6 -11432659.239 6
 95  2 18 18 24 59.9940000  0  6 28 18 14 22 29 19
  22931615.619     -865661.789 3   -505502.277 1
  19862950.721   -23655110.737 7 -18254620.153 7
  19409809.682   -11321150.225 7  -8743557.591 7
  20027576.221   -15324690.403 7 -11760804.210 7
  18867946.627   -23292564.197 7 -18007825.190 8
  20788138.057   -15093155.232 6 -11511488.320 6
 95  2 18 18 25 29.9940000  0  6 28 18 14 22 29 19
  22911096.385     -973462.265 3   -589502.509 2
  19843069.908   -23759585.123 7 -18336028.749 7
  19416529.361   -11285851.852 7  -8716052.447 7
  20032481.314   -15298912.200 7 -11740717.333 7
  18856852.768   -23350861.211 7 -18053251.445 8
  20768926.650   -15194118.869 6 -11590161.246 5
 95  2 18 18 25 59.9940000  0  6 28 18 14 22 29 19
  22890601.635    -1081165.854 3   -673427.249 2
  19823215.229   -23863919.943 7 -18417328.600 7
  19423330.471   -11250107.393 7  -8688199.699 7
  20037478.088   -15272660.631 7 -11720261.615 7
  18845813.104   -23408874.098 7 -18098456.304 8
  20749750.893   -15294874.095 6 -11668671.768 6
 95  2 18 18 26 29.9940000  0  6 28 18 14 22 29 19
  22870127.690    -1188764.484 3   -757270.191 2
  19803388.244   -23968110.844 7 -18498516.299 7
  19430218.010   -11213919.295 7  -8660001.246 7
  20042565.744   -15245924.167 7 -11699428.054 7
  18834831.674   -23466592.614 7 -18143431.779 8
  20730621.854   -15395413.557 6 -11747014.165 6
 95  2 18 18 26 59.9940000  0  6 28 18 14 22 29 19
  22849672.525    -1296253.820 3   -841027.956 1
  19783586.502   -24072164.035 7 -18579596.698 7
  19437182.955   -11177302.432 7  -8631468.697 7
  20047743.135   -15218720.005 6 -11678230.045 7
  18823906.221   -23524007.092 7 -18188170.347 8
  20711531.041   -15495724.955 6 -11825178.852 6
 95  2 18 18 27 29.9940000  0  6 28 18 14 22 29 19
  22829238.604    -1403635.592 3   -924701.919 2
  19763817.479   -24176063.528 7 -18660557.325 7
  19444230.650   -11140271.861 7  -8602613.780 7
  20053005.807   -15191068.104 6 -11656683.158 7
  18813035.424   -23581126.837 7 -18232679.249 8
  20692485.854   -15595804.795 6 -11903163.111 6
 95  2 18 18 27 59.9940000  0  6 28 18 14 22 29 19
  22808822.650    -1510905.712 3  -1008288.842 2
  19744079.666   -24279783.624 7 -18741378.169 7
  19451353.213   -11102824.604 6  -8573434.174 7
  20058354.596   -15162959.132 6 -11634780.108 7
  18802220.440   -23637965.158 7 -18276968.863 8
  20673487.463   -15695658.148 6 -11980970.871 5
 95  2 18 18 28 29.9940000  0  6 28 18 14 22 29 19
  22788429.588    -1618057.568 3  -1091783.601 2
  19724376.955   -24383320.764 7 -18822056.446 7
  19458562.729   -11064950.453 7  -8543921.922 7
  20063790.260   -15134400.046 6 -11612526.326 7
  18791455.557   -23694528.562 7 -18321044.255 8
  20654524.744   -15795286.527 6 -12058603.316 5
 95  2 18 18 28 59.9940000  0  6 28 18 14 22 29 19
  22768065.877    -1725093.123 3  -1175187.746 1
  19704708.479   -24486676.466 7 -18902593.355 7
  19465851.416   -11026648.534 6  -8514076.341 7
  20069306.799   -15105406.192 6 -11589933.768 7
  18780742.510   -23750829.029 7 -18364914.765 9
  20635608.385   -15894704.858 6 -12136072.104 5
 95  2 18 18 29 29.9940000  0  6 28 18 14 22 29 19
  22747725.104    -1831989.255 3  -1258483.254 2
  19685081.252   -24589818.682 7 -18982963.903 7
  19473228.541   -10987883.308 6  -8483869.741 7
  20074914.338   -15075945.566 6 -11566977.487 7
  18770083.221   -23806843.410 7 -18408562.352 8
  20616732.768   -15993899.888 6 -12213366.881 5
 95  2 18 18 29 59.9940000  0  6 28 18 14 22 29 19
  22727408.346    -1938760.504 3  -1341681.418 3
  19665490.127   -24692769.501 7 -19063185.308 7
  19480691.760   -10948662.127 6  -8453307.848 7
  20080602.924   -15046035.310 6 -11543670.842 7
  18759476.502   -23862585.050 7 -18451997.413 8
  20597894.057   -16092886.838 6 -12290499.511 6
 95  2 18 18 30 29.9930000  0  6 28 18 14 22 29 19
  22707112.692    -2045398.659 4  -1424775.903 2
  19645937.606   -24795519.635 7 -19143250.326 7
  19488242.349   -10908985.862 6  -8422391.343 7
  20086382.888   -15015677.571 6 -11520015.520 7
  18748923.114   -23918044.948 7 -18495212.937 8
  20579100.599   -16191661.984 6 -12367467.099 6
 95  2 18 18 30 59.9930000  0  6 28 18 14 22 29 19
  22686848.411    -2151911.354 4  -1507772.650 2
  19626424.091   -24898070.387 7 -19223159.994 7
  19495879.122   -10868857.755 6  -8391122.762 7
  20092244.997   -14984864.611 6 -11496005.477 7
  18738423.294   -23973218.371 7 -18538205.228 8
  20560339.114   -16290238.150 6 -12444279.642 6
 95  2 18 18 31 29.9930000  0  6 28 18 14 22 29 19
  22666603.521    -2258287.827 4  -1590663.247 2
  19606948.536   -25000409.793 7 -19302904.983 7
  19503602.083   -10828278.080 6  -8359502.308 7
  20098194.966   -14953592.379 6 -11471637.550 7
  18727981.122   -24028093.557 7 -18580965.142 8
  20541621.958   -16388601.518 6 -12520926.372 5
 95  2 18 18 31 59.9930000  0  6 28 18 14 22 29 19
  22646383.396    -2364528.995 3  -1673448.455 2
  19587511.458   -25102549.302 7 -19382494.203 7
  19511404.341   -10787274.586 6  -8327551.596 7
  20104233.927   -14921863.665 6 -11446913.932 7
  18717592.817   -24082681.639 7 -18623501.332 8
  20522945.646   -16486749.696 6 -12597405.423 6
 95  2 18 18 32 29.9930000  0  6 28 18 14 22 29 19
  22626199.810    -2470629.854 4  -1756124.322 3
  19568112.942   -25204492.137 7 -19461930.170 7
  19519285.685   -10745858.558 6  -8295279.427 7
  20110360.552   -14889668.986 6 -11421827.211 7
  18707261.731   -24136976.403 7 -18665808.964 8
  20504305.966   -16584698.737 6 -12673729.299 5
 95  2 18 18 32 59.9930000  0  6 28 18 14 22 29 19
  22606033.606    -2576584.986 4  -1838686.663 2
  19548749.474   -25306246.749 7 -19541219.462 7
  19527241.700   -10704042.751 6  -8262695.745 7
  20116574.028   -14857010.619 6 -11396379.178 7
  18696986.778   -24190975.761 7 -18707886.405 8
  20485707.099   -16682444.513 6 -12749894.795 6
 95  2 18 18 33 29.9930000  0  6 28 18 14 22 29 19
  22585898.403    -2682392.387 3  -1921133.908 2
  19529422.708   -25407816.625 7 -19620364.803 7
  19535271.810   -10661839.983 6  -8229810.528 7
  20122875.880   -14823894.889 6 -11370574.767 7
  18686763.685   -24244687.958 7 -18749740.086 8
  20467143.333   -16779979.359 6 -12825895.934 6
 95  2 18 18 33 59.9930000  0  6 28 18 14 22 29 19
  22565791.739    -2788051.979 3  -2003466.008 2
  19510126.513   -25509215.040 7 -19699376.544 7
  19543377.114   -10619252.263 6  -8196625.356 7
  20129263.778   -14790334.996 6 -11344424.249 7
  18676597.786   -24298111.300 7 -18791368.684 8
  20448624.247   -16877308.320 6 -12901736.648 6
 95  2 18 18 34 29.9930000  0  6 28 18 14 22 29 19
  22545719.989    -2893557.123 3  -2085677.751 1
  19490865.013   -25610433.930 7 -19778248.402 7
  19551555.817   -10576269.448 6  -8163132.319 7
  20135730.771   -14756345.620 6 -11317939.071 7
  18666489.614   -24351237.984 7 -18832766.113 8
  20430145.841   -16974424.301 6 -12977411.419 6
 95  2 18 18 34 59.9930000  0  6 28 18 14 22 29 19
  22525663.591    -2998918.894 4  -2167777.824 2
  19471634.442   -25711482.980 7 -19856987.916 7
  19559811.458   -10532896.892 6  -8129335.587 7
  20142275.896   -14721946.092 6 -11291134.281 7
  18656433.880   -24404083.249 7 -18873944.263 8
  20411702.716   -17071318.044 6 -13052913.016 6
 95  2 18 18 35 29.9930000  0  6 28 18 14 22 29 19
  22505647.521    -3104113.725 3  -2249747.817 1
  19452444.989   -25812334.949 7 -19935573.862 7
  19568147.935   -10489089.575 6  -8095200.084 7
  20148901.622   -14687118.085 6 -11263995.615 7
  18646433.669   -24456630.165 7 -18914889.928 8
  20393311.114   -17167967.755 6 -13128224.441 6
 95  2 18 18 35 59.9930000  0  6 28 18 14 22 29 19
  22485657.817    -3209147.296 3  -2331592.123 1
  19433287.731   -25912995.963 7 -20014011.008 7
  19576567.231   -10444844.849 6  -8060723.739 7
  20155610.310   -14651870.254 6 -11236529.815 7
  18636488.606   -24508887.538 7 -18955609.977 8
  20374967.771   -17264388.593 6 -13203357.533 6
 95  2 18 18 36 29.9930000  0  6 28 18 14 22 29 19
  22465701.067    -3314011.303 3  -2413304.344 1
  19414173.255   -26013446.563 7 -20092284.201 7
  19585068.044   -10400169.045 6  -8025911.492 7
  20162404.560   -14616185.216 6 -11208723.332 7
  18626601.192   -24560851.845 7 -18996101.654 8
  20356662.231   -17360578.392 6 -13278310.582 6
 95  2 18 18 36 59.9930000  0  6 28 18 14 22 29 19
  22445785.083    -3418710.738 3  -2494888.294 2
  19395097.716   -26113688.283 7 -20170394.633 7
  19593648.958   -10355068.537 6  -7990768.309 7
  20169276.755   -14580064.837 6 -11180577.630 7
  18616767.536   -24612523.638 7 -19036365.395 8
  20338396.552   -17456558.539 6 -13353100.278 6
 95  2 18 18 37 29.9930000  0  6 28 18 14 22 29 19
  22425892.583    -3523232.718 3  -2576333.991 1
  19376065.380   -26213713.098 7 -20248336.035 7
  19602310.935   -10309553.037 6  -7955301.752 7
  20176233.286   -14543508.383 6 -11152092.130 7
  18606993.646   -24663887.416 7 -19076389.124 8
  20320171.528   -17552331.771 6 -13427728.737 6
 95  2 18 18 37 59.9930000  0  6 28 18 14 22 29 19
  22406034.724    -3627579.342 3  -2657643.006 1
  19357068.021   -26313530.485 7 -20326115.806 7
  19611044.942   -10263659.898 6  -7919540.927 7
  20183269.716   -14506524.067 6 -11123273.220 7
  18597280.950   -24714933.380 7 -19116165.211 8
  20301984.552   -17647911.461 6 -13502206.381 6
 95  2 18 18 38 29.9930000  0  6 28 18 14 22 29 19
  22386213.044    -3731748.328 3  -2738813.631 1
  19338113.817   -26413139.504 7 -20403733.210 7
  19619847.200   -10217406.355 6  -7883499.265 7
  20190387.591   -14469114.986 6 -11094123.328 7
  18587628.419   -24765652.387 7 -19155686.516 8
  20283833.060   -17743293.525 6 -13576530.036 6
 95  2 18 18 38 59.9930000  0  6 28 18 14 22 29 19
  22366424.310    -3835741.721 3  -2819847.421 2
  19319197.294   -26512558.075 7 -20481202.215 7
  19628715.606   -10170790.371 6  -7847175.188 7
  20197586.200   -14431300.111 6 -11064657.237 7
  18578037.028   -24816050.894 7 -19194958.080 8
  20265718.138   -17838469.285 6 -13650692.926 6
 95  2 18 18 39 29.9930000  0  6 28 18 14 22 29 19
  22346670.614    -3939562.748 3  -2900746.880 2
  19300311.825   -26611795.893 7 -20558530.373 7
  19637655.747   -10123819.240 6  -7810574.374 7
  20204856.138   -14393092.044 6 -11034884.767 7
  18568506.935   -24866142.339 7 -19233990.377 8
  20247647.341   -17933436.437 6 -13724693.268 6
 95  2 18 18 39 59.9930000  0  6 28 18 14 22 29 19
  22326941.489    -4043198.630 3  -2981502.049 3
  19281465.841   -26710829.939 7 -20635699.752 7
  19646668.419   -10076463.917 6  -7773674.183 7
  20212202.028   -14354470.403 6 -11004790.030 7
  18559035.044   -24915916.759 7 -19272775.646 8
  20229623.310   -18028174.043 6 -13798514.738 6
 95  2 18 18 40 29.9930000  0  6 28 18 14 22 29 19
  22307260.325    -4146643.102 3  -3062108.097 2
  19262660.544   -26809645.385 7 -20712698.789 7
  19655754.763   -10028702.133 6  -7736457.278 7
  20219631.364   -14315440.134 6 -10974376.878 7
  18549621.552   -24965376.732 7 -19311315.892 8
  20211641.489   -18122667.442 6 -13872145.939 6
 95  2 18 18 40 59.9930000  0  6 28 18 14 22 29 19
  22287613.380    -4249899.284 4  -3142567.434 2
  19243899.763   -26908240.170 7 -20789525.879 7
  19664923.317    -9980531.564 6  -7698921.830 7
  20227133.044   -14276022.318 6 -10943661.733 7
  18540268.794   -25014531.170 7 -19349618.052 8
  20193700.325   -18216940.469 6 -13945605.406 6
 95  2 18 18 41 29.9930000  0  6 28 18 14 22 29 19
  22267998.114    -4352964.033 5  -3222877.603 3
  19225184.325   -27006594.342 7 -20866165.470 7
  19674167.599    -9931957.366 6  -7661071.867 7
  20234708.013   -14236213.423 6 -10912641.865 7
  18530974.411   -25063370.469 7 -19387674.648 8
  20175797.458   -18311006.895 6 -14018903.876 6
 95  2 18 18 41 59.9930000  0  6 28 18 14 22 29 19
  22248423.778    -4455837.987 5  -3303039.045 2
  19206512.513   -27104713.293 7 -20942621.778 8
  19683481.349    -9882996.539 6  -7622920.634 7
  20242357.724   -14196021.697 6 -10881323.677 7
  18521742.864   -25111885.484 7 -19425478.561 8
  20157936.669   -18404873.582 6 -14092046.724 6
 95  2 18 18 42 29.9930000  0  6 28 18 14 22 29 19
  22228885.364    -4558511.556 5  -3383044.336 3
  19187883.669   -27202606.296 7 -21018902.025 8
  19692870.575    -9833665.198 6  -7584480.693 7
  20250076.271   -14155459.491 6 -10849716.809 7
  18512572.021   -25160071.830 7 -19463026.364 8
  20140114.731   -18498551.100 6 -14165042.164 6
 95  2 18 18 42 59.9930000  0  6 28 18 14 22 29 19
  22209384.427    -4660979.959 5  -3462889.748 2
  19169294.138   -27300288.113 7 -21095017.709 8
  19702327.536    -9783972.881 6  -7545759.475 7
  20257865.286   -14114517.586 6 -10817814.063 7
  18503465.169   -25207931.078 7 -19500319.290 8
  20122322.677   -18592038.796 6 -14237889.688 6
 95  2 18 18 43 29.9930000  0  6 28 18 14 22 29 19
  22189922.153    -4763238.868 5  -3542571.892 3
  19150746.810   -27397764.622 7 -21170973.410 8
  19711848.013    -9733931.096 6  -7506765.943 7
  20265730.380   -14073192.887 6 -10785613.041 7
  18494422.771   -25255453.864 7 -19537350.029 8
  20104568.310   -18685317.178 6 -14310574.113 6
 95  2 18 18 43 59.9930000  0  6 28 18 14 22 29 19
  22170501.505    -4865302.091 5  -3622101.572 4
  19132233.075   -27495060.272 7 -21246788.176 8
  19721433.255    -9683562.545 6  -7467517.788 6
  20273663.106   -14031509.222 6 -10753132.299 7
  18485438.864   -25302664.187 7 -19574137.295 8
  20086857.981   -18778398.963 6 -14383105.332 6
 95  2 18 18 44 29.9930000  0  6 28 18 14 22 29 19
  22151123.474    -4967152.331 5  -3701465.263 4
  19113755.997   -27592144.172 7 -21322437.960 8
  19731086.888    -9632844.855 6  -7427997.577 6
  20281667.794   -13989444.108 6 -10720354.327 6
  18476513.036   -25349565.199 7 -19610683.540 8
  20069187.614   -18871263.386 6 -14455467.183 6
 95  2 18 18 44 59.9930000  0  6 28 18 14 22 29 19
  22131782.528    -5068788.921 5  -3780662.472 5
  19095326.708   -27688995.897 7 -21397906.825 8
  19740805.341    -9581764.311 6  -7388194.631 7
  20289746.021   -13946987.524 6 -10687271.308 6
  18467648.583   -25396148.492 7 -19646982.207 8
  20051557.427   -18963899.422 6 -14527651.059 6
 95  2 18 18 45 29.9930000  0  6 28 18 14 22 29 19
  22112484.278    -5170207.407 5  -3859689.720 4
  19076947.013   -27785588.200 7 -21473173.546 8
  19750596.786    -9530317.982 6  -7348106.650 6
  20297900.411   -13904134.830 6 -10653879.636 6
  18458845.708   -25442406.983 7 -19683027.783 8
  20033975.606   -19056303.760 6 -14599654.405 6
 95  2 18 18 45 59.9930000  0  6 28 18 14 22 29 19
  22093224.989    -5271398.686 5  -3938539.923 5
  19058617.028   -27881906.082 7 -21548226.430 8
  19760457.075    -9478493.231 6  -7307723.801 6
  20306135.685   -13860866.177 6 -10620163.843 6
  18450104.778   -25488341.237 7 -19718820.715 8
  20016435.216   -19148477.214 6 -14671477.819 6
 95  2 18 18 46 29.9930000  0  6 28 18 14 22 29 19
  22074011.091    -5372374.047 5  -4017221.873 4
  19040337.560   -27977963.191 7 -21623076.114 8
  19770391.161    -9426300.948 6  -7267054.562 6
  20314443.052   -13817202.597 6 -10586140.322 6
  18441425.794   -25533950.380 7 -19754360.313 8
  19998938.161   -19240431.603 6 -14743130.550 6
 95  2 18 18 46 59.9930000  0  6 28 18 14 22 29 19
  22054837.981    -5473124.711 5  -4095728.759 4
  19022109.333   -28073767.391 7 -21697728.731 8
  19780389.521    -9373747.101 6  -7226103.600 6
  20322823.950   -13773157.778 6 -10551819.730 6
  18432811.614   -25579218.954 7 -19789634.534 8
  19981476.567   -19332174.025 6 -14814618.086 6
 95  2 18 18 47 29.9930000  0  7 28 18 14 22 29 31 19
  22035707.825    -5573652.349 5  -4174061.857 3
  19003921.349   -28169335.432 7 -21772197.338 8
  19790456.856    -9320848.476 6  -7184883.966 6
  20331274.919   -13728753.704 6 -10517219.201 7
  18424259.255   -25624159.121 7 -19824652.847 8
  22574219.114          -0.83213
  19964059.247   -19423724.150 6 -14885955.807 6
 95  2 18 18 47 59.9930000  0  7 28 18 14 22 29 31 19
  22016627.052    -5673942.062 5  -4252209.582 3
  18985778.349   -28264674.531 7 -21846487.541 8
  19800589.880    -9267596.581 6  -7143389.061 6
  20339792.380   -13683997.333 6 -10482344.161 6
  18415770.747   -25668768.895 7 -19859413.718 8
  22550551.521     -124347.752 3
  19946671.052   -19515079.730 6 -14957141.933 6
 95  2 18 18 48 29.9930000  0  7 28 18 14 22 29 31 19
  21997584.950    -5773996.351 4  -4330173.862 4
  18967676.153   -28359800.895 7 -21920611.983 8
  19810786.810    -9214005.336 6  -7101629.724 6
  20348371.278   -13638910.652 6 -10447211.731 6
  18407343.544   -25713055.432 7 -19893922.716 8
  22526876.052     -248755.214 3
  19929325.192   -19606243.741 6 -15028178.766 6
 95  2 18 18 48 59.9930000  0  7 28 18 14 22 29 31 19
  21978592.466    -5873807.737 5  -4407948.869 3
  18949617.622   -28454702.707 7 -21994561.433 8
  19821050.919    -9160081.587 6  -7059611.303 6
  20357017.317   -13593475.344 6 -10411807.639 6
  18398975.450   -25757028.302 7 -19928187.302 8
  22503196.013     -373207.728 3
  19912013.192   -19697213.531 6 -15099064.271 6
 95  2 18 18 49 29.9930000  0  7 28 18 14 22 29 31 19
  21959645.435    -5973373.234 4  -4485532.286 2
  18931602.528   -28549375.100 7 -22068332.118 8
  19831375.099    -9105830.426 6  -7017337.753 6
  20365735.794   -13547668.262 6 -10376113.858 6
  18390668.560   -25800684.667 7 -19962205.259 8
  22479502.067     -497702.141 3
  19894739.513   -19787981.106 6 -15169792.200 6
 95  2 18 18 49 59.9930000  0  7 28 18 14 22 29 31 19
  21940742.474    -6072699.791 4  -4562929.513 2
  18913627.911   -28643824.928 7 -22141929.377 8
  19841754.591    -9051280.365 6  -6974831.293 6
  20374519.989   -13501496.044 6 -10340135.569 6
  18382421.614   -25844021.547 7 -19995974.264 8
  22455807.411     -622240.199 3        -0.20911
  19877508.005   -19878538.860 6 -15240356.643 6
 95  2 18 18 50 29.9930000  0  7 28 18 14 22 29 31 19
  21921890.458    -6171773.885 4  -4640129.996 2
  18895703.028   -28738027.740 7 -22215334.164 8
  19852189.646    -8996443.676 6  -6932101.492 6
  20383379.271   -13454945.881 6 -10303862.768 6
  18374241.700   -25887008.505 7 -20029470.606 8
  22432105.856     -746796.357 3    -97056.873 1
  19860315.521   -19968877.858 6 -15310750.626 6
 95  2 18 18 50 59.9930000  0  7 28 18 14 22 29 31 19
  21903085.888    -6270595.206 4  -4717133.545 1
  18877824.724   -28831970.904 7 -22288536.621 8
  19862676.677    -8941326.554 6  -6889153.174 6
  20392310.677   -13408021.734 6 -10267298.546 6
  18366127.606   -25929644.759 7 -20062693.665 8
  22408399.411     -871379.972 2   -194134.955 1
  19843168.271   -20059005.811 6 -15380980.175 6
 95  2 18 18 51 29.9920000  0  7 28 18 14 22 29 31 19
  21884324.930    -6369164.493 4  -4793940.673 2
  18859998.781   -28925659.985 7 -22361541.093 8
  19873218.797    -8885933.702 6  -6845990.000 6
  20401302.477   -13360756.936 6 -10230468.885 6
  18358083.750   -25971923.401 7 -20095638.069 8
  22384672.266     -996011.401 2   -291250.253 1
  19826053.789   -20148930.673 6 -15451051.465 6
 95  2 18 18 51 59.9920000  0  7 28 18 14 22 29 31 19
  21865619.391    -6467477.095 3  -4870547.774 2
  18842219.141   -29019084.538 7 -22434339.435 8
  19883818.031    -8830240.426 6  -6802592.732 6
  20410356.992   -13313175.129 6 -10193392.215 6
  18350106.227   -26013830.816 7 -20128293.213 8
  22360950.039    -1120699.721 3   -388409.888 1
  19808981.016   -20238647.203 6 -15520960.425 6
 95  2 18 18 52 29.9920000  0  7 28 18 14 22 29 31 19
  21846956.774    -6565513.007 3  -4946939.287 3
  18824498.109   -29112212.164 7 -22506906.403 8
  19894480.398    -8774203.447 6  -6758927.646 6
  20419477.109   -13265264.854 6 -10156059.592 6
  18342205.430   -26055363.463 7 -20160656.318 8
  22337217.688    -1245430.739 3   -485602.796 2
  19791951.414   -20328147.931 6 -15590701.209 6
 95  2 18 18 52 59.9920000  0  7 28 18 14 22 29 31 19
  21828357.539    -6663278.777 4  -5023120.291 2
  18806833.469   -29205040.897 7 -22579240.468 8
  19905214.086    -8717797.892 6  -6714975.361 6
  20428654.102   -13217029.647 6 -10118473.764 6
  18334369.609   -26096532.954 7 -20192736.456 8
  22313470.555    -1370226.800 3   -582846.348 1
  19774957.180   -20417436.828 6 -15660276.949 6
 95  2 18 18 53 29.9920000  0  7 28 18 14 22 29 31 19
  21809808.453    -6760783.161 5  -5099097.661 3
  18789223.953   -29297583.800 7 -22651351.810 8
  19916018.883    -8661029.218 6  -6670740.125 6
  20437888.320   -13168495.898 6 -10080655.317 6
  18326602.367   -26137348.923 7 -20224541.122 8
  22289712.524    -1495080.073 3   -680134.444 1
  19758003.859   -20506523.628 6 -15729695.219 6
 95  2 18 18 53 59.9920000  0  7 28 18 14 22 29 31 19
  21791298.836    -6858027.215 4  -5174872.185 2
  18771667.328   -29389839.456 7 -22723239.317 8
  19926888.188    -8603903.761 6  -6626226.869 6
  20447186.250   -13119645.785 6 -10042590.357 6
  18318900.867   -26177823.487 7 -20256079.753 8
  22265944.539    -1619968.365 3   -777449.835 2
  19741091.195   -20595411.540 6 -15798958.506 6
 95  2 18 18 54 29.9920000  0  7 28 18 14 22 29 31 19
  21772843.797    -6954997.570 5  -5250433.394 3
  18754165.102   -29481808.324 7 -22794903.356 8
  19937824.039    -8546424.968 6  -6581438.296 6
  20456550.352   -13070437.177 6 -10004246.047 6
  18311264.852   -26217952.449 7 -20287349.091 8
  22242180.313    -1744853.987 3   -874763.082 2
  19724219.367   -20684094.402 6 -15868062.022 6
 95  2 18 18 54 59.9920000  0  7 28 18 14 22 29 31 19
  21754446.820    -7051686.015 5  -5325774.953 2
  18736716.133   -29573503.863 7 -22866354.415 8
  19948829.992    -8488611.125 6  -6536388.644 6
  20465982.500   -13020871.899 6  -9965623.826 6
  18303694.672   -26257732.341 7 -20318346.412 8
  22218420.859    -1869707.873 3   -972051.631 2
  19707382.594   -20772565.748 6 -15937000.711 6
 95  2 18 18 55 29.9920000  0  7 28 18 14 22 29 31 19
  21736102.773    -7148086.614 5  -5400892.263 2
  18719314.500   -29664943.061 7 -22937605.730 8
  19959885.219    -8430494.890 6  -6491103.353 6
  20475478.563   -12970953.916 6  -9926726.764 6
  18296191.578   -26297168.133 7 -20349075.629 8
  22194673.297    -1994510.837 3  -1069300.424 2
  19690589.883   -20860815.875 6 -16005767.029 6
 95  2 18 18 55 59.9920000  0  7 28 18 14 22 29 31 19
  21717811.711    -7244209.272 5  -5475792.975 3
  18701959.922   -29756142.362 7 -23008670.112 8
  19970997.953    -8372102.988 6  -6445603.268 6
  20485047.430   -12920678.125 6  -9887550.895 6
  18288750.227   -26336266.659 7 -20379542.028 8
  22170924.055    -2119287.765 3  -1166528.938 1
  19673836.438   -20948847.290 6 -16074362.909 6
 95  2 18 18 56 29.9920000  0  7 28 18 14 22 29 31 19
  21699574.563    -7340048.299 5  -5550472.655 3
  18684653.750   -29847098.408 7 -23079544.946 8
  19982163.148    -8313432.460 6  -6399886.067 6
  20494678.102   -12870071.558 6  -9848117.279 6
  18281376.203   -26375019.003 7 -20409738.680 8
  22147184.492    -2244051.615 3  -1263747.244 2
  19657125.266   -21036653.128 6 -16142783.012 6
 95  2 18 18 56 59.9920000  0  7 28 18 14 22 29 31 19
  21681388.086    -7435601.124 5  -5624929.341 3
  18667394.297   -29937801.216 7 -23150222.447 8
  19993381.320    -8254484.698 6  -6353952.837 6
  20504365.711   -12819159.099 6  -9808445.307 6
  18274067.289   -26413423.851 7 -20439664.546 8
  22123443.383    -2368831.447 4  -1360977.979 1
  19640459.578   -21124234.688 6 -16211028.361 6
 95  2 18 18 57 29.9920000  0  8 28 18 14 22 29 31 19 27
  21663260.586    -7530862.637 5  -5699159.017 4
  18650183.406   -30028240.090 7 -23220694.287 8
  20004649.297    -8195264.530 6  -6307807.349 6
  20514113.578   -12767940.801 6  -9768535.021 6
  18266828.484   -26451468.872 7 -20469310.036 8
  22099688.750    -2493651.018 4  -1458239.687 2
  19623837.406   -21211584.752 6 -16279093.329 6
  22773319.945          -0.61313
 95  2 18 18 57 59.9920000  0  8 28 18 14 22 29 31 19 27
  21645191.102    -7625823.899 5  -5773154.706 3
  18633027.086   -30118392.338 7 -23290942.786 8
  20015972.109    -8135753.705 6  -6261435.366 6
  20523917.852   -12716417.634 6  -9728387.190 6
  18259659.766   -26489144.815 7 -20498667.929 8
  22075927.883    -2618519.281 3  -1555539.314 2
  19607259.414   -21298710.359 6 -16346983.398 6
  22751241.797     -116037.926 3
 95  2 18 18 58 29.9920000  0  8 28 18 14 22 29 31 19 27
  21627178.680    -7720486.252 5  -5846917.486 4
  18615926.570   -30208253.267 7 -23360964.289 8
  20027354.023    -8075950.783 6  -6214835.792 6
  20533776.906   -12664608.271 6  -9688016.346 6
  18252560.031   -26526448.671 7 -20527735.881 8
  22052154.023    -2743429.011 4  -1652871.245 2
  19590716.789   -21385638.261 6 -16414719.400 6
  22729168.711     -232021.302 3
 95  2 18 18 58 59.9920000  0  8 28 18 14 22 29 31 19 27
  21609223.547    -7814847.378 5  -5920445.520 4
  18598881.719   -30297818.293 7 -23430755.218 8
  20038789.633    -8015869.012 6  -6168018.918 6
  20543691.992   -12612501.906 6  -9647414.064 6
  18245533.148   -26563376.113 7 -20556510.532 8
  22028381.836    -2868362.981 4  -1750222.133 3
  19574213.203   -21472368.361 6 -16482301.280 6
  22707106.203     -347943.014 3        -0.01411
 95  2 18 18 59 29.9920000  0  8 28 18 14 22 29 31 19 27
  21591324.117    -7908905.870 5  -5993737.749 3
  18581898.414   -30387082.983 7 -23500312.114 8
  20050274.859    -7955512.957 6  -6120988.329 6
  20553663.438   -12560098.730 6  -9606580.499 6
  18238578.539   -26599924.383 7 -20584989.723 8
  22004608.688    -2993297.670 4  -1847573.583 1
  19557743.664   -21558897.289 6 -16549726.395 6
  22685069.469     -463788.121 3    -90268.850 2
 95  2 18 18 59 59.9920000  0  8 28 18 14 22 29 31 19 27
  21573485.047    -8002657.192 5  -6066790.597 5
  18564970.492   -30476045.779 7 -23569633.772 8
  20061811.984    -7894873.217 6  -6073736.679 6
  20563693.242   -12507395.616 6  -9565513.211 6
  18231694.594   -26636092.367 7 -20613172.593 8
  21980840.336    -3118205.508 3  -1944904.109 1
  19541313.750   -21645236.226 6 -16617003.467 6
  22663035.047     -579551.428 2   -180473.954 1
 95  2 18 19  0 29.9920000  0  7 28 18 14 22 29 31 19
  21555701.180    -8096108.364 5  -6139609.578 3
  18548092.883   -30564723.298 7 -23638733.124 8
  20073401.734    -7833972.770 6  -6026281.875 6
  20573778.422   -12454402.258 6  -9524219.778 6
  18224882.930   -26671889.957 7 -20641066.832 8
  21957077.109          -0.59013
  19524925.750   -21731381.759 6 -16684129.830 6
 95  2 18 19  0 59.9920000  0  7 28 18 14 22 29 31 19
  21537977.172    -8189244.958 5  -6212183.423 4
  18531275.133   -30653114.254 7 -23707609.190 8
  20085039.453    -7772812.566 6  -5978624.669 5
  20583920.656   -12401107.338 6  -9482691.344 6
  18218139.336   -26707327.634 7 -20668680.629 8
  21933317.430     -124836.795 4        -0.34011
  19508571.180   -21817300.840 6 -16751079.739 6
 95  2 18 19  1 29.9920000  0  7 28 18 14 22 29 31 19
  21520312.297    -8282069.043 5  -6284513.749 5
  18514506.688   -30741225.870 7 -23776267.589 8
  20096728.305    -7711389.611 6  -5930762.726 6
  20594119.484   -12347511.430 6  -9440928.387 6
  18211463.242   -26742413.565 7 -20696020.338 8
  21909564.656     -249652.288 3    -97258.999 1
  19492265.250   -21903000.339 6 -16817858.542 7
 95  2 18 19  1 59.9920000  0  7 28 18 14 22 29 31 19
  21502699.586    -8374584.840 5  -6356603.881 5
  18497793.070   -30829057.818 7 -23844708.068 8
  20108466.594    -7649704.661 6  -5882696.634 6
  20604373.414   -12293619.343 6  -9398934.638 6
  18204853.531   -26777151.419 7 -20723088.814 8
  21885815.148     -374467.511 3   -194517.441 1
  19475995.508   -21988495.357 6 -16884478.019 6
 95  2 18 19  2 29.9920000  0  7 28 18 14 22 29 31 19
  21485160.680    -8466787.572 5  -6428450.056 4
  18481133.031   -30916601.773 7 -23912924.137 8
  20120254.656    -7587759.751 6  -5834427.978 6
  20614685.930   -12239434.974 6  -9356713.124 6
  18198310.516   -26811539.707 7 -20749884.910 8
  21862060.695     -499291.725 3   -291782.854 1
  19459767.750   -22073778.370 6 -16950932.283 6
 95  2 18 19  2 59.9920000  0  8 28 18 14 22 29 31 19 27
  21467677.750    -8558670.311 5  -6500046.907 5
  18464534.570   -31003840.211 7 -23980902.134 8
  20132094.898    -7525541.503 6  -5785946.324 6
  20625052.094   -12184953.170 6  -9314259.853 6
  18191836.328   -26845559.432 7 -20776393.806 8
  21838308.672     -624113.988 3   -389046.753 3
  19443575.328   -22158854.272 6 -17017225.174 6
  22531242.906          -0.87912
 95  2 18 19  3 29.9920000  0  8 28 18 14 22 29 31 19 27
  21450253.391    -8650227.168 5  -6571389.842 5
  18447991.258   -31090755.177 7 -24048628.080 8
  20143987.258    -7463045.846 6  -5737248.519 6
  20635477.773   -12130174.987 6  -9271575.638 6
  18185435.391   -26879186.534 7 -20802596.773 8
  21814561.024     -748907.768 3   -486288.493 2
  19427427.055   -22243737.847 6 -17083368.184 6
  22509328.141     -115156.692 3
 95  2 18 19  3 59.9920000  0  8 28 18 14 22 29 31 19 27
  21432891.266    -8741462.294 5  -6642482.083 4
  18431512.156   -31177356.233 7 -24116109.415 8
  20155927.063    -7400296.080 6  -5688352.697 5
  20645955.063   -12075122.924 6  -9228678.009 6
  18179110.016   -26912426.908 7 -20828498.390 8
  21790821.297     -873654.883 3   -583493.898 2
  19411308.852   -22328438.449 7 -17149368.630 7
  22487425.906     -230259.437 3        -0.04212
 95  2 18 19  4 29.9920000  0  8 28 18 14 22 29 31 19 27
  21415592.617    -8832368.045 5  -6713317.686 5
  18415093.633   -31263648.965 7 -24183350.497 8
  20167918.430    -7337298.231 6  -5639263.571 5
  20656480.141   -12019799.240 6  -9185568.728 6
  18172858.383   -26945283.035 7 -20854100.595 8
  21767102.273     -998319.952 4   -680635.367 2
  19395225.477   -22412945.139 7 -17215217.981 6
  22465528.453     -345301.325 3    -89642.958 3
 95  2 18 19  4 59.9920000  0  8 28 18 14 22 29 31 19 27
  21398354.727    -8922943.375 5  -6783895.819 5
  18398730.875   -31349642.289 7 -24250358.274 8
  20179947.617    -7274069.820 6  -5589994.779 5
  20667060.305   -11964205.559 6  -9142249.057 6
  18166676.656   -26977769.416 7 -20879414.681 8
  21743394.977    -1122892.946 4   -777705.075 2
  19379179.742   -22497257.685 7 -17280916.048 7
  22443653.633     -460287.811 3   -179242.659 3
 95  2 18 19  5 29.9920000  0  8 28 18 14 22 29 31 19 27
  21381184.992    -9013189.466 5  -6854217.401 5
  18382421.258   -31435347.074 7 -24317141.214 8
  20192022.078    -7210621.094 6  -5540554.316 5
  20677688.649   -11908358.459 6  -9098731.920 6
  18160561.227   -27009906.149 7 -20904456.315 8
  21719705.797    -1247386.645 4   -874713.023 2
  19363173.305   -22581372.190 6 -17346459.774 7
  22421779.094     -575219.521 4   -268799.714 2
 95  2 18 19  5 59.9920000  0  8 28 18 14 22 29 31 19 27
  21364074.649    -9103106.221 5  -6924282.358 5
  18366164.281   -31520775.884 7 -24383709.112 8
  20204138.320    -7146958.747 6  -5490947.406 6
  20688361.797   -11852266.666 6  -9055024.106 6
  18154512.211   -27041694.620 7 -20929226.573 8
  21696021.844    -1371816.398 3   -971671.137 2
  19347206.094   -22665280.064 7 -17411842.515 7
  22399923.961     -690077.291 3   -358299.146 2
 95  2 18 19  6 29.9920000  0  8 28 18 14 22 29 31 19 27
  21347029.727    -9192681.205 5  -6994081.005 5
  18349962.625   -31605912.504 7 -24450049.336 8
  20216295.305    -7083069.517 6  -5441163.690 5
  20699083.758   -11795920.424 6  -9011118.032 6
  18148532.508   -27073114.662 7 -20953709.743 8
  21672359.094    -1496194.734 5  -1068589.178 2
  19331281.891   -22748963.646 7 -17477050.468 7
  22378081.273     -804855.208 3   -447736.352 1
 95  2 18 19  6 59.9920000  0  8 28 18 14 22 29 31 19 27
  21330047.805    -9281907.560 5  -7063608.003 5
  18333820.250   -31690738.897 7 -24516147.825 9
  20228497.633    -7018946.991 6  -5391198.180 5
  20709853.508   -11739319.009 6  -8967013.107 6
  18142628.266   -27104144.891 7 -20977889.159 8
  21648692.844    -1620544.058 4  -1165484.623 3
  19315403.688   -22832418.152 7 -17542079.925 7
  22356260.664     -919548.367 4   -537107.529 2
 95  2 18 19  7 29.9920000  0  8 28 18 14 22 29 31 19 27
  21313131.727    -9370801.149 5  -7132875.681 5
  18317735.547   -31775253.284 7 -24582003.187 9
  20240742.930    -6954598.023 6  -5341056.242 5
  20720668.211   -11682487.444 6  -8922728.869 6
  18136799.750   -27134778.927 7 -21001759.859 8
  21625032.695    -1744888.849 4  -1262376.521 2
  19299562.555   -22915668.072 7 -17606949.957 7
  22334452.867    -1034162.439 4   -626417.102 2
 95  2 18 19  7 59.9920000  0  8 28 18 14 22 29 31 19 27
  21296282.289    -9459347.640 5  -7201872.886 4
  18301716.516   -31859445.006 7 -24647607.126 9
  20253032.336    -6890022.775 6  -5290737.972 5
  20731532.414   -11625402.868 6  -8878247.460 6
  18131048.688   -27164998.982 7 -21025307.964 8
  21601372.508    -1869209.591 4  -1359249.679 4
  19283758.906   -22998717.318 7 -17671663.624 6
  22312652.047    -1148677.575 3   -715649.598 2
 95  2 18 19  8 29.9920000  0  8 28 18 14 22 29 31 19 27
  21279497.094    -9547538.855 5  -7270593.236 5
  18285761.492   -31943299.504 7 -24712948.279 8
  20265363.516    -6825217.695 6  -5240240.604 5
  20742444.461   -11568054.046 6  -8833560.152 6
  18125374.039   -27194814.511 7 -21048540.860 8
  21577725.523    -1993486.291 4  -1456088.535 4
  19267988.313   -23081564.688 7 -17736219.989 7
  22290883.992    -1263093.352 4   -804804.645 2
 95  2 18 19  8 59.9920000  0  8 28 18 14 22 29 31 19 27
  21262783.453    -9635375.382 5  -7339037.204 5
  18269865.641   -32026816.228 7 -24778026.245 9
  20277735.992    -6760192.652 6  -5189571.846 5
  20753408.383   -11510438.975 6  -8788665.363 6
  18119773.680   -27224247.157 7 -21071475.408 8
  21554088.195    -2117697.544 4  -1552876.394 2
  19252265.102   -23164221.950 7 -17800628.211 7
  22269129.289    -1377402.232 3   -893876.488 1
 95  2 18 19  9 29.9920000  0  8 28 18 14 22 29 31 19 27
  21246139.805    -9722861.495 5  -7407208.121 5
  18254035.188   -32110019.053 7 -24842859.621 8
  20290148.961    -6694963.133 6  -5138743.748 5
  20764421.227   -11452559.151 6  -8743564.280 6
  18114241.195   -27253319.912 7 -21094129.521 8
  21530464.914    -2241826.632 4  -1649600.228 4
  19236564.508   -23246700.216 7 -17864896.964 7
  22247400.039    -1491620.863 3   -982877.917 2
 95  2 18 19  9 59.9920000  0  8 28 18 14 22 29 31 19 27
  21229559.313    -9809994.573 5  -7475103.930 5
  18238257.414   -32192915.024 7 -24907453.887 8
  20302599.938    -6629538.171 6  -5087763.360 5
  20775487.453   -11394419.962 6  -8698261.096 6
  18108775.523   -27282046.723 7 -21116514.066 8
  21506862.070    -2365860.283 5  -1746249.685 2
  19220907.930   -23328995.729 7 -17929023.321 7
  22225673.008    -1605768.174 3  -1071823.874 1
 95  2 18 19 10 29.9920000  0  8 28 18 14 22 29 31 19 27
  21213045.297    -9896765.836 5  -7542717.828 5
  18222546.688   -32275483.152 7 -24971792.695 8
  20315090.766    -6563899.426 5  -5036616.384 5
  20786598.383   -11336028.340 5  -8652761.223 6
  18103375.086   -27310420.832 7 -21138623.783 8
  21483280.172    -2489789.760 5  -1842818.004 2
  19205285.813   -23411089.213 7 -17992992.255 7
  22203962.234    -1719855.070 3  -1160722.712 1
 95  2 18 19 10 59.9920000  0  8 28 18 14 22 29 31 19 27
  21196601.070    -9983172.139 5  -7610047.324 5
  18206899.234   -32357723.447 7 -25035876.051 8
  20327621.406    -6498039.906 5  -4985297.392 5
  20797756.625   -11277389.652 5  -8607068.823 6
  18098046.406   -27338422.436 7 -21160443.234 8
  21459712.867    -2613626.732 5  -1939314.250 1
  19189698.430   -23492989.802 7 -18056810.881 7
  22182262.633    -1833892.032 3  -1249582.666 1
 95  2 18 19 11 29.9920000  0  8 28 18 14 22 29 31 19 27
  21180229.391   -10069214.923 5  -7677093.554 5
  18191313.055   -32439632.789 7
  20340200.297    -6431954.313 5  -4933802.219 5
  20808959.617   -11218519.256 5  -8561195.856 6
  18092791.719   -27366037.263 7 -21181961.299 8
  21436166.133    -2737385.002 5  -2035749.171 3
  19174148.031   -23574697.159 7
  22160568.047    -1947896.231 3  -1338417.081 1
 95  2 18 19 11 59.9920000  0  8 28 18 14 22 29 31 19 27
  21163925.359   -10154887.209 5  -7743851.107 5
  18175791.820   -32521194.033 7
  20352819.336    -6365637.550 5  -4882126.935 5
  20820203.680   -11159415.543 5  -8515141.082 6
  18087613.953   -27393248.491 7 -21203164.881 8
  21412629.399    -2861069.878 5  -2132126.911 3
  19158639.469   -23656201.363 7
  22138881.414    -2061854.972 3  -1427216.120 2
 95  2 18 19 12 29.9910000  0  8 28 18 14 22 29 31 19 27
  21147696.597   -10240179.494 5  -7810312.547 5
  18160340.128   -32602394.244 7
  20365483.331    -6299079.658 5  -4830263.738 5
  20831501.839   -11100065.742 5  -8468894.574 6
  18082514.394   -27420038.422 7 -21224040.175 8
  21389107.136    -2984673.787 5  -2228441.543 3
  19143170.894   -23737490.786 7
  22117214.886    -2175753.604 3  -1515968.252 2
 95  2 18 19 12 59.9910000  0  8 28 18 14 22 29 31 19 27
  21131536.847   -10325102.970 5  -7876486.634 5
  18144954.144   -32683244.405 7 -25289528.787 9
  20378193.237    -6232295.003 5  -4778223.857 5
  20842841.042   -11040470.043 5  -8422456.445 6
  18077495.003   -27446419.786 7 -21244597.111 8
  21365599.901    -3108206.721 5  -2324700.899 3
  19127742.198   -23818575.196 7 -18310513.736 7
  22095544.011    -2289603.869 3  -1604682.702 1
 95  2 18 19 13 29.9910000  0  8 28 18 14 22 29 31 19 27
  21115445.558   -10409649.158 5  -7942366.734 5
  18129636.417   -32763727.909 7 -25352243.220 9
  20390941.190    -6165302.225 5  -4726021.802 5
  20854227.370   -10980637.475 5  -8375833.745 6
  18072551.683   -27472401.564 7 -21264842.676 8
  21342111.503    -3231645.158 4  -2420886.624 2
  19112355.581   -23899442.111 7 -18373526.900 7
  22073890.495    -2403390.555 3  -1693347.561 2
 95  2 18 19 13 59.9910000  0  8 28 18 14 22 29 31 19 27
  21099427.120   -10493822.072 5  -8007955.942 5
  18114387.542   -32843859.679 7 -25414683.574 9
  20403724.659    -6098125.360 5  -4673676.295 5
  20865658.316   -10920578.164 5  -8329034.354 6
  18067682.292   -27497992.389 7 -21284783.606 8
  21318638.628    -3354991.547 4  -2517000.599 2
  19097006.503   -23980101.782 7 -18436378.586 7
  22052258.722    -2517101.134 3  -1781953.212 1
 95  2 18 19 14 29.9910000  0  8 28 18 14 22 29 31 19 27
  21083483.800   -10577613.042 5  -8073247.558 5
  18099210.261   -32923630.521 7 -25476842.688 9
  20416542.339    -6030771.323 5  -4621192.741 5
  20877126.230   -10860298.009 5  -8282062.874 5
  18062885.800   -27523195.008 7 -21304422.036 8
  21295188.120    -3478228.836 4  -2613029.552 3
  19081694.745   -24060552.749 7 -18499067.643 7
  22030625.347    -2630731.496 3  -1870496.278 2
 95  2 18 19 14 59.9910000  0  8 28 18 14 22 29 31 19 27
  21067611.245   -10661013.634 5  -8138234.972 5
  18084094.448   -33003052.980 7 -25538730.331 9
  20429387.941    -5963252.210 5  -4568580.554 5
  20888640.019   -10799806.867 5  -8234927.007 5
  18058163.597   -27548007.841 7 -21323756.737 8
  21271759.753    -3601347.600 5  -2708966.156 3
  19066427.144   -24140798.369 7 -18561596.693 7
  22009025.659    -2744268.237 3  -1958966.383 3
 95  2 18 19 15 29.9910000  0  8 28 18 14 22 29 31 19 27
  21051817.105   -10744029.978 5  -8202922.990 5
  18069041.698   -33082158.526 7 -25600371.029 9
  20442265.823    -5895582.031 5  -4515850.675 5
  20900187.784   -10739119.238 5  -8187638.043 6
  18053518.683   -27572423.750 7 -21342782.153 8
  21248350.683    -3724355.463 5  -2804816.385 2
  19051191.784   -24220856.940 7 -18623979.984 7
  21987435.526    -2857706.209 3  -2047359.501 2
 95  2 18 19 15 59.9910000  0  8 28 18 14 22 29 31 19 27
  21036086.144   -10826662.888 5  -8267312.225 5
  18054049.034   -33160962.287 7 -25661776.567 8
  20455175.925    -5827753.099 5  -4462997.071 5
  20911771.495   -10678236.664 5  -8140197.183 5
  18048947.808   -27596436.865 7 -21361493.702 8
  21224965.573    -3847259.845 5  -2900585.918 1
  19035991.597   -24300722.168 7 -18686212.624 7
  21965866.472    -2971053.378 3  -2135681.877 2
 95  2 18 19 16 29.9910000  0  8 28 18 14 22 29 31 19 27
  21020442.144   -10908905.451 5  -8331397.269 5
  18039108.105   -33239458.517 7 -25722942.471 8
  20468116.808    -5759747.391 5  -4410005.733 5
  20923393.050   -10617160.594 5  -8092605.516 5
  18044454.769   -27620050.618 7 -21379894.062 8
  21201596.034    -3970049.554 5  -2996266.113 2
  19020830.753   -24380394.047 7 -18748294.600 7
  21944314.620    -3084320.265 3  -2223941.680 2
 95  2 18 19 16 59.9910000  0  8 28 18 14 22 29 31 19 27
  21004865.409   -10990750.557 5  -8395172.621 5
  18024229.589   -33317645.152 7 -25783867.129 8
  20481092.995    -5691547.573 5  -4356863.139 5
  20935054.433   -10555889.199 5  -8044861.640 5
  18040039.542   -27643255.943 7 -21397976.166 8
  21178250.433    -4092728.096 5  -3091859.697 3
  19005710.550   -24459868.792 7 -18810222.960 7
  21922778.269    -3197496.145 3  -2312130.568 2
 95  2 18 19 17 29.9910000  0  8 28 18 14 22 29 31 19 27
  20989367.339   -11072201.303 5  -8458640.697 5
  18009413.620   -33395504.367 7 -25844536.663 9
  20494108.230    -5623153.947 5  -4303569.515 5
  20946749.683   -10494436.886 5  -7996976.819 5
  18035697.816   -27666067.755 7 -21415751.638 8
  21154926.901    -4215307.033 5  -3187375.605 2
  18990624.894   -24539146.803 7 -18871998.016 7
  21901260.097    -3310597.145 4  -2400261.159 2
 95  2 18 19 17 59.9910000  0  8 28 18 14 22 29 31 19 27
  20973946.753   -11153251.860 5  -8521796.926 5
  17994664.144   -33473009.606 7 -25904930.356 8
  20507160.612    -5554560.266 5  -4250120.021 5
  20958477.612   -10432800.094 5  -7948948.240 5
  18031431.995   -27688492.647 7 -21433225.617 8
  21131621.730    -4337784.407 5  -3282812.410 2
  18975575.870   -24618227.744 7 -18933619.511 7
  21879744.901    -3423632.834 4  -2488340.825 3
 95  2 18 19 18 29.9910000  0  8 28 18 14 22 29 31 19 27
  20958593.355   -11233909.817 5  -8584647.226 5
  17979984.097   -33550160.757 7 -25965048.144 8
  20520249.683    -5485791.808 5  -4196534.335 5
  20970240.894   -10370984.434 5  -7900780.284 5
  18027235.690   -27710540.442 7 -21450405.752 8
  21108332.245    -4460159.277 5  -3378169.312 2
  18960559.519   -24697133.732 7 -18995104.690 7
  21858250.011    -3536602.290 4  -2576368.885 2
 95  2 18 19 18 59.9910000  0  8 28 18 14 22 29 31 19 27
  20943317.222   -11314172.414 5  -8647189.463 5
  17965374.284   -33626943.953 7 -26024879.213 8
  20533363.159    -5416872.056 5  -4142830.746 5
  20982041.026   -10308976.729 5  -7852462.677 5
  18023113.565   -27732204.488 7 -21467286.870 8
  21085063.050    -4582426.415 5  -3473442.251 3
  18945577.745   -24775850.431 7 -19056442.361 7
  21836753.237    -3649499.565 3  -2664340.735 3
 95  2 18 19 19 29.9910000  0  8 28 18 14 22 29 31 19 27
  20928125.167   -11394032.150 5  -8709417.785 5
  17950833.191   -33703344.494 7 -26084412.102 8
  20546503.339    -5347822.376 5  -4089025.945 5
  20993878.151   -10246760.522 5  -7803982.613 5
  18019065.753   -27753476.069 7 -21483862.163 8
  21061822.136    -4704559.639 5  -3568610.840 3
  18930638.464   -24854369.348 7 -19117625.924 7
  21815296.714    -3762318.426 3  -2752251.476 2
 95  2 18 19 19 59.9910000  0  8 28 18 14 22 29 31 19 27
  20913004.636   -11473493.241 5  -8771335.484 5
  17936368.394   -33779367.296 7 -26143650.647 8
  20559664.034    -5278662.399 5  -4035135.169 5
  21005760.831   -10184331.572 5  -7755336.763 5
  18015091.800   -27774348.852 7 -21500126.712 8
  21038610.487    -4826549.366 5  -3663667.602 3
  18915731.753   -24932696.792 7 -19178660.274 7
  21793845.448    -3875045.241 3  -2840090.516 1
 95  2 18 19 20 29.9910000  0  8 28 18 14 22 29 31 19 27
  20897960.370   -11552544.386 5  -8832933.783 5
  17921972.128   -33855006.785 7 -26202590.501 8
  20572846.675    -5209384.209 5  -3981152.285 5
  21017679.511   -10121696.246 5  -7706530.111 5
  18011198.386   -27794819.956 7 -21516078.255 8
  21015427.784    -4948372.599 5  -3758594.620 4
  18900869.776   -25010818.023 7 -19239533.937 7
  21772408.745    -3987672.942 3  -2927852.367 2
 95  2 18 19 20 59.9910000  0  8 28 18 14 22 29 31 19 27
  20882994.253   -11631195.848 5  -8894220.629 5
  17907652.784   -33930274.769 7 -26261240.876 8
  20586051.636    -5139993.570 5  -3927081.790 5
  21029632.511   -10058881.447 5  -7657583.608 5
  18007375.417   -27814910.424 7 -21531733.202 8
  20992270.308    -5070056.469 5  -3853413.049 3
  18886037.316   -25088740.805 7 -19300252.973 7
  21750996.394    -4100235.735 4  -3015563.585 1
 95  2 18 19 21 29.9910000  0  8 28 18 14 22 29 31 19 27
  20868102.644   -11709428.704 5  -8955181.280 5
  17893400.714   -34005168.279 7 -26319599.457 8
  20599283.237    -5070460.544 5  -3872900.338 5
  21041619.144    -9995887.958 5  -7608497.889 5
  18003627.956   -27834599.244 7 -21547075.168 8
  20969142.784    -5191586.776 5  -3948111.819 4
  18871245.925   -25166464.403 7 -19360816.796 7
  21729584.347    -4212727.764 3  -3103219.686 1
 95  2 18 19 21 59.9910000  0  8 28 18 14 22 29 31 19 27
  20853298.581   -11787245.086 5
  17879217.456   -34079700.198 7 -26377676.268 8
  20612545.409    -5000762.177 5  -3818590.047 5
  21053639.230    -9932732.859 5  -7559286.217 5
  17999959.058   -27853882.687 7 -21562101.256 8
  20946050.292    -5312967.531 5  -4042694.045 4
  18856493.034   -25243993.114 7
  21708185.011    -4325177.837 4  -3190843.102 2
 95  2 18 19 22 29.9910000  0  8 28 18 14 22 29 31 19 27
  20838567.722   -11864641.561 5
  17865103.269   -34153879.752 7 -26435478.520 8
  20625842.612    -4930893.780 5  -3764147.292 5
  21065686.894    -9869417.258 5  -7509949.488 5
  17996366.948   -27872758.536 7 -21576809.735 8
  20922974.284    -5434201.699 5  -4137162.064 3
  18841776.808   -25321327.425 7 -19481489.261 7
  21686787.566    -4437611.115 3  -3278453.398 3
 95  2 18 19 22 59.9910000  0  8 28 18 14 22 29 31 19 27
  20823919.472   -11941625.810 5
  17851050.183   -34227721.972 7 -26493017.910 8
  20639165.769    -4860884.595 5  -3709594.808 5
  21077764.261    -9805937.066 5  -7460484.497 5
  17992851.917   -27891223.614 7 -21591198.127 8
  20899931.136    -5555306.160 5  -4231529.007 5
  18827094.105   -25398487.148 7 -19541613.711 7
  21665398.612    -4550027.434 4  -3366050.497 2
 95  2 18 19 23 29.9910000  0  8 28 18 14 22 29 31 19 27
  20809350.409   -12018192.682 5        -0.12115
  17837059.972   -34301229.028 7 -26550296.130 8
  20652512.956    -4790737.931 5  -3654935.224 5
  21089879.472    -9742278.677 5  -7410880.676 5
  17989420.050   -27909260.917 7 -21605253.193 8
  20876913.901    -5676254.758 5  -4325774.506 5
  18812446.972   -25475469.753 7 -19601600.146 7
  21644016.909    -4662405.608 4  -3453617.871 1
 95  2 18 19 23 59.9910000  0  8 28 18 14 22 29 31 19 27
  20794857.808   -12094331.639 5    -59329.185 5
  17823141.065   -34374375.901 7 -26607293.694 8
  20665886.964    -4720452.020 5  -3600167.134 5
  21102029.347    -9678431.545 5  -7361129.768 5
  17986070.917   -27926869.318 7 -21618974.040 8
  20853929.433    -5797036.397 5  -4419889.924 4
  18797831.011   -25552266.458 7 -19661441.721 7
  21622640.526    -4774724.341 4  -3541138.930 1
 95  2 18 19 24 29.9910000  0  8 28 18 14 22 29 31 19 27
  20780452.605   -12170042.252 5   -118324.480 5
  17809293.636   -34447150.690 7 -26664001.309 8
  20679285.855    -4650045.859 5  -3545305.331 5
  21114215.441    -9614397.548 5  -7311233.264 5
  17982798.308   -27944063.025 7 -21632371.756 8
  20830977.362    -5917661.661 5  -4513883.487 4
  18783252.026   -25628889.021 7 -19721147.603 7
  21601281.456    -4886964.090 4  -3628598.418 3
 95  2 18 19 24 59.9910000  0  8 28 18 14 22 29 31 19 27
  20766124.050   -12245327.291 5   -176988.144 5
  17795519.011   -34519540.962 7 -26720409.321 8
  20692706.316    -4579528.854 5  -3490357.168 5
  21126435.792    -9550185.750 5  -7261198.196 5
  17979603.198   -27960848.490 7 -21645451.355 8
  20808050.925    -6038123.666 5  -4607749.863 2
  18768702.245   -25705337.261 7 -19780717.651 7
  21579939.448    -4999109.242 4  -3715984.205 3
 95  2 18 19 25 29.9910000  0  8 28 18 14 22 29 31 19 27
  20751877.167   -12320187.440 5   -235320.705 5
  17781817.886   -34591528.564 7 -26776503.553 8
  20706149.839    -4508883.814 5  -3435309.222 5
  21138685.175    -9485809.242 5  -7211034.784 5
  17976491.230   -27977224.513 7 -21658211.909 8
  20785163.706    -6158409.612 5  -4701479.076 4
  18754190.300   -25781603.611 7 -19840145.963 7
  21558616.394    -5111168.062 5  -3803302.704 2
 95  2 18 19 25 59.9910000  0  8 28 18 14 22 29 31 19 27
  20737715.058   -12394617.106 5   -293317.822 5
  17768196.761   -34663102.403 7 -26832275.377 8
  20719617.894    -4438112.412 5  -3380162.836 5
  21150966.714    -9421275.819 5  -7160749.093 5
  17973448.995   -27993191.476 7 -21670653.718 8
  20762307.011    -6278518.189 5  -4795070.058 4
  18739713.800   -25857689.010 7 -19899433.273 7
  21537310.284    -5223143.276 5  -3890556.055 3
 95  2 18 19 26 29.9910000  0  8 28 18 14 22 29 31 19 27
  20723639.401   -12468613.128 5   -350977.036 5
  17754653.566   -34734280.741 7 -26887739.016 8
  20733108.550    -4367229.941 5  -3324929.882 5
  21163273.519    -9356593.237 5  -7110347.174 5
  17970487.808   -28008754.791 7 -21682780.993 8
  20739488.503    -6398434.861 5  -4888511.557 4
  18725268.534   -25933595.863 7 -19958581.460 7
  21516023.105    -5335034.081 5  -3977743.658 2
 95  2 18 19 26 59.9910000  0  8 28 18 14 22 29 31 19 27
  20709634.128   -12542184.443 5   -408305.307 5
  17741179.862   -34805092.920 7 -26942917.327 8
  20746615.589    -4296245.107 5  -3269617.176 5
  21175608.886    -9291774.130 5  -7059838.884 5
  17967602.831   -28023914.072 7 -21694593.444 8
  20716703.605    -6518158.947 5  -4981802.987 3
  18710854.300   -26009326.370 7 -20017592.237 7
  21494738.073    -5446853.322 4  -4064875.453 4
 95  2 18 19 27 29.9910000  0  8 28 18 14 22 29 31 19 27
  20695720.292   -12615322.103 5   -465295.652 5
  17727773.347   -34875548.208 7 -26997817.543 8
  20760144.019    -4225152.028 5  -3214220.127 5
  21187971.894    -9226817.714 5  -7009223.611 5
  17964794.183   -28038667.714 7 -21706089.810 8
  20693959.714    -6637693.070 5  -5074946.386 2
  18696477.519   -26084881.558 7 -20076466.403 7
  21473475.933    -5558604.856 4  -4151954.500 4
 95  2 18 19 27 59.9910000  0  8 28 18 14 22 29 31 19 27
  20681886.886   -12688006.482 5   -521932.796 5
  17714430.620   -34945644.838 7 -27052438.289 8
  20773690.800    -4153947.798 5  -3158736.467 5
  21200359.784    -9161714.776 5  -6958494.142 5
  17962065.472   -28053009.190 7 -21717265.016 8
  20671248.269    -6757030.522 5  -5167936.555 4
  18682140.464   -26160243.568 7 -20135190.040 7
  21452224.651    -5670267.118 5  -4238964.007 4
 95  2 18 19 28 29.9910000  0  8 28 18 14 22 29 31 19 27
  20668139.105   -12760250.885 5   -578227.084 5
  17701163.784   -35015384.387 7 -27106780.794 8
  20787262.331    -4082636.716 5  -3103169.549 5
  21212771.472    -9096480.528 5  -6907662.342 5
  17959412.237   -28066952.983 7 -21728130.338 8
  20648572.690    -6876184.041 5  -5260783.401 4
  18667833.511   -26235409.561 7 -20193760.934 7
  21430991.097    -5781848.790 4  -4325910.713 4
 95  2 18 19 28 59.9910000  0  8 28 18 14 22 29 31 19 27
  20654473.394   -12832048.961 5   -634173.583 5
  17687962.855   -35084741.888 7 -27160825.594 8
  20800856.948    -4011203.504 5  -3047507.450 5
  21225213.144    -9031102.982 5  -6856718.868 5
  17956837.050   -28080489.987 7 -21738678.675 8
  20625935.191    -6995157.417 5  -5353489.875 4
  18653572.050   -26310354.261 7 -20252159.393 7
  21409770.714    -5893358.112 4  -4412801.026 4
 95  2 18 19 29 29.9910000  0  8 28 18 14 22 29 31 19 27
  20640903.581   -12903399.849 5   -689771.640 5
  17674838.597   -35153700.785 7 -27214559.795 8
  20814468.769    -3939655.987 5  -2991756.281 5
  21237679.120    -8965597.783 5  -6805675.956 5
  17954332.519   -28093646.017 7 -21748930.161 8
  20603328.378    -7113948.486 5  -5446054.281 4
  18639356.386   -26385079.455 7 -20310386.810 7
  21388561.597    -6004804.299 4  -4499642.177 2
 95  2 18 19 29 59.9910000  0  8 28 18 14 22 29 31 19 27
  20627409.183   -12974297.416 5   -745016.441 5
  17661796.417   -35222249.845 7 -27267974.643 8
  20828106.105    -3867998.257 5  -2935919.254 5
  21250168.690    -8899963.510 5  -6754532.459 5
  17951903.198   -28106416.356 7 -21758881.115 8
  20580763.370    -7232537.751 5  -5538461.439 4
  18625175.589   -26459582.940 7 -20368441.473 7
  21367371.214    -6116181.848 4  -4586429.808 4
 95  2 18 19 30 29.9910000  0  8 28 18 14 22 29 31 19 27
  20614004.058   -13044744.895 5   -799910.561 5
  17648826.573   -35290393.903 7 -27321073.906 8
  20841760.792    -3796245.864 5  -2880008.440 4
  21262680.011    -8834208.311 5  -6703294.739 5
  17949546.933   -28118799.937 7 -21768530.684 8
  20558234.823    -7350929.685 5  -5630714.815 4
  18611040.073   -26533879.551 7 -20426334.927 7
  21346180.050    -6227505.346 3  -4673175.356 3
 95  2 18 19 30 59.9910000  0  8 28 18 14 22 29 31 19 27
  20600678.730   -13114746.691 5   -854457.388 5
  17635934.058   -35358153.033 7 -27373873.224 8
  20855428.636    -3724423.886 5  -2824043.423 4
  21275216.370    -8768345.307 5  -6651973.007 5
  17947264.503   -28130795.947 7 -21777878.268 8
  20535740.901    -7469134.121 5  -5722822.083 4
  18596934.987   -26607997.947 7 -20484089.511 7
  21325010.128    -6338780.717 4  -4759883.394 2
 95  2 18 19 31 29.9910000  0  8 28 18 14 22 29 31 19 27
  20587451.315   -13184287.987 5   -908645.375 5
  17623114.394   -35425521.004 7 -27426367.744 8
  20869109.894    -3652524.657 5  -2768018.208 4
  21287769.355    -8702370.645 5  -6600564.287 4
  17945061.706   -28142368.450 7 -21786895.844 8
  20513284.550    -7587136.816 5  -5814772.155 4
  18582860.972   -26681946.107 7 -20541711.444 7
  21303845.425    -6449976.728 4  -4846529.604 4
 95  2 18 19 31 59.9910000  0  8 28 18 14 22 29 31 19 27
  20574302.651   -13253376.931 5   -962480.885 5
  17610370.855   -35492498.466 7 -27478557.976 8
  20882803.753    -3580566.973 4  -2711947.457 4
  21300348.019    -8636278.430 5  -6549063.924 4
  17942945.191   -28153492.100 7 -21795563.673 8
  20490865.448    -7704955.100 5  -5906578.526 5
  18568818.605   -26755736.750 7 -20599210.635 7
  21282703.417    -6561092.496 4  -4933113.269 1
 95  2 18 19 32 29.9910000  0  8 28 18 14 22 29 31 19 27
  20561240.378   -13322003.070 5  -1015955.784 5
  17597703.659   -35559060.795 7 -27530424.724 8
  20896508.683    -3508538.492 4  -2655821.539 3
  21312947.714    -8570054.503 5  -6497460.956 4
  17940915.980   -28164149.497 7 -21803868.186 8
  20468480.917    -7822591.028 5  -5998242.770 5
  18554811.667   -26829352.831 7 -20656573.807 7
  21261576.855    -6672118.120 5  -5019626.698 2
 95  2 18 19 32 59.9910000  0  8 28 18 14 22 29 31 19 27
  20548271.901   -13390178.123 5  -1069079.186 5
  17585114.878   -35625207.460 7 -27581967.586 8
  20910225.894    -3436458.634 4  -2599655.600 5
  21325576.175    -8503700.969 5  -6445756.994 5
  17938973.089   -28174365.786 7 -21811828.982 8
  20446129.019    -7940040.239 5  -6089761.527 4
  18540833.737   -26902812.668 7 -20713815.228 7
  21240467.417    -6783059.842 4  -5106074.805 3
 95  2 18 19 33 29.9900000  0  8 28 18 14 22 29 31 19 27
  20535380.717   -13457889.718 5  -1121841.476 5
  17572610.498   -35690917.154 7 -27633169.947 8
  20923955.693    -3364324.416 5  -2543447.298 5
  21338226.568    -8437201.479 4  -6393939.321 4
  17937112.928   -28184143.627 7 -21819448.134 8
  20423822.053    -8057273.039 5  -6181111.651 5
  18526888.326   -26976096.068 7 -20770919.169 7
  21219370.436    -6893916.515 5  -5192456.598 2
 95  2 18 19 33 59.9900000  0  8 28 18 14 22 29 31 19 27
  20522585.451   -13525136.469 5  -1174241.540 5
  17560189.553   -35756185.452 7 -27684028.362 8
  20937692.959    -3292132.912 5  -2487194.350 5
  21350913.592    -8370547.148 5  -6342000.990 5
  17935330.686   -28193500.449 7 -21826739.218 8
  20401553.779    -8174279.977 5  -6272285.774 5
  18512977.607   -27049194.207 7 -20827878.754 7
  21198284.186    -7004706.939 5  -5278786.754 3
 95  2 18 19 34 29.9900000  0  8 28 18 14 22 29 31 19 27
  20509880.053   -13591913.280 5  -1226275.437 5
  17547853.600   -35821024.647 7 -27734552.415 8
  20951439.272    -3219883.147 5  -2430895.999 4
  21363623.178    -8303765.527 5  -6289963.458 5
  17933628.209   -28202451.386 7 -21833714.022 8
  20379339.061    -8291030.420 5  -6363260.055 4
  18499101.756   -27122104.454 7 -20884691.922 7
  21177215.240    -7115433.918 5  -5365067.471 3
 95  2 18 19 34 59.9900000  0  8 28 18 14 22 29 31 19 27
  20497262.389   -13658223.955 5  -1277946.123 6
  17535593.178   -35885460.008 7 -27784761.792 8
  20965200.522    -3147582.837 5  -2374558.275 4
  21376352.279    -8236867.076 5  -6237834.895 5
  17932002.584   -28210997.738 7 -21840373.566 8
  20357173.287    -8407510.189 5  -6454023.416 5
  18485262.631   -27194834.791 7 -20941364.910 7
  21156157.162    -7226103.633 5  -5451303.566 3
 95  2 18 19 35 29.9900000  0  8 28 18 14 22 29 31 19 27
  20484734.842   -13724067.090 5  -1329252.472 5
  17523401.490   -35949504.841 7 -27834666.861 8
  20978969.428    -3075216.311 5  -2318168.932 4
  21389100.787    -8169874.262 5  -6185632.798 5
  17930457.498   -28219125.059 7 -21846706.584 8
  20335055.404    -8523729.369 5  -6544583.721 5
  18471459.404   -27267369.125 7 -20997885.172 7
  21135109.045    -7336725.150 5  -5537502.104 1
 95  2 18 19 35 59.9900000  0  8 28 18 14 22 29 31 19 27
  20472291.311   -13789441.265 5  -1380193.406 5
  17511289.170   -36013165.657 7 -27884272.701 8
  20992757.631    -3002774.168 5  -2261720.670 4
  21401864.522    -8102802.763 5  -6133369.394 5
  17928989.053   -28226834.419 7 -21852713.927 8
  20312989.811    -8639693.647 5  -6634945.385 5
  18457695.068   -27339707.970 7 -21054253.101 7
  21114067.342    -7447293.412 5  -5623659.149 3
 95  2 18 19 36 29.9900000  0  8 28 18 14 22 29 31 19 27
  20459939.764   -13854339.703 5  -1430763.628 5
  17499250.756   -36076438.614 7 -27933576.306 8
  21006559.147    -2930249.540 5  -2205208.167 4
  21414644.678    -8035645.779 5  -6081039.380 5
  17927602.420   -28234126.127 7 -21858395.825 8
  20290972.764    -8755405.157 5  -6725110.096 5
  18443961.193   -27411857.697 7 -21110473.662 7
  21093034.912    -7557804.392 5  -5709771.546 2
 95  2 18 19 36 59.9900000  0  8 28 18 14 22 29 31 19 27
  20447683.225   -13918757.514 5  -1480959.331 5
  17487286.014   -36139314.713 7 -27982570.673 8
  21020373.834    -2857635.669 5  -2148626.093 4
  21427442.350    -7968380.737 5  -6028625.167 5
  17926291.982   -28241005.149 7 -21863756.133 8
  20268996.897    -8870877.758 5  -6815088.657 5
  18430267.522   -27483820.438 7 -21166548.537 7
  21072021.857    -7668248.627 5  -5795831.914 3
 95  2 18 19 37 29.9900000  0  8 28 18 14 22 29 31 19 27
  20435517.357   -13982708.712 5  -1530791.439 5
  17475396.459   -36201795.623 7 -28031257.104 8
  21034203.037    -2784948.409 5  -2091986.861 5
  21440260.443    -7901026.827 5  -5976141.704 5
  17925057.162   -28247501.474 7 -21868818.244 8
  20247065.756    -8986125.611 5  -6904892.079 5
  18416606.795   -27555609.065 7 -21222487.741 7
  21051012.139    -7778645.817 5  -5881855.615 4
 95  2 18 19 37 59.9900000  0  8 28 18 14 22 29 31 19 27
  20423435.420   -14046173.415 5  -1580244.449 5
  17463586.818   -36263853.990 7 -28079614.280 8
  21048053.826    -2712184.265 5  -2035287.741 5
  21453102.178    -7833555.584 5  -5923566.828 5
  17923895.811   -28253596.848 7 -21873567.932 8
  20225183.123    -9101110.606 5  -6994490.674 5
  18402982.865   -27627213.831 7 -21278283.664 7
  21030018.147    -7888965.696 5  -5967819.073 4
 95  2 18 19 38 29.9900000  0  8 28 18 14 22 29 31 19 27
  20411453.256   -14109152.233 5  -1629318.839 5
  17451855.037   -36325486.084 7 -28127639.295 8
  21061911.186    -2639359.250 5  -1978541.149 4
  21465963.092    -7765972.314 5  -5870904.649 5
  17922812.959   -28259285.143 7 -21878000.407 8
  20203354.240    -9215831.924 5  -7083883.826 5
  18389392.772   -27698641.645 7 -21333941.702 7
  21009044.350    -7999204.042 5  -6053718.985 5
 95  2 18 19 38 59.9900000  0  8 28 18 14 22 29 31 19 27
  20399559.842   -14171646.678 5  -1678015.785 5
  17440212.186   -36386690.249 7 -28175330.858 8
  21075778.576    -2566486.763 5  -1921757.581 2
  21478845.459    -7698286.961 5  -5818162.943 5
  17921813.639   -28264545.151 7 -21882099.153 8
  20181574.912    -9330279.926 5  -7173063.974 5
  18375832.404   -27769881.375 7 -21389453.191 7
  20988075.834    -8109363.587 5  -6139557.508 4
 95  2 18 19 39 29.9900000  0  8 28 18 14 22 29 31 19 27
  20387759.459   -14233650.540 5  -1726330.449 5
  17428646.803   -36447458.372 7 -28222682.656 8
  21089655.365    -2493575.103 5  -1864943.501 4
  21491736.607    -7630512.879 5  -5765352.078 5
  17920899.311   -28269352.654 7 -21885845.292 8
  20159849.889    -9444441.732 5  -7262021.127 5
  18362314.022   -27840923.786 7 -21444810.917 7
  20967130.772    -8219448.053 5  -6225337.507 4
 95  2 18 19 39 59.9900000  0  8 28 18 14 22 29 31 19 27
  20376050.842   -14295170.552 5  -1774268.076 5
  17417163.100   -36507795.317 7 -28269698.470 8
  21103529.201    -2420652.049 4  -1808120.538 3
  21504651.287    -7562666.344 5  -5712484.729 5
  17920068.264   -28273706.010 7 -21889237.555 8
  20138176.225    -9558340.834 5  -7350773.569 5
  18348830.467   -27911789.829 7 -21500031.204 7
  20946197.357    -8329460.642 5  -6311061.524 4
 95  2 18 19 40 29.9900000  0  8 28 18 14 22 29 31 19 27
  20364440.365   -14356204.939 5  -1821827.301 6
  17405764.662   -36567697.162 7 -28316375.243 8
  21117409.100    -2347718.104 4  -1751289.076 2
  21517571.358    -7494747.082 5  -5659560.733 5
  17919326.639   -28277611.938 7 -21892281.171 8
  20116547.654    -9671996.670 5  -7439336.444 5
  18335380.022   -27982478.298 7 -21555113.133 7
  20925270.436    -8439411.055 5  -6396737.110 3
 95  2 18 19 40 59.9900000  0  8 28 18 14 22 29 31 19 27
  20352923.342   -14416744.072 6  -1869000.596 5
  17394450.373   -36627158.778 7 -28362708.974 8
  21131289.733    -2274772.230 4  -1694448.350 2
  21530512.740    -7426750.383 5  -5606576.396 5
  17918668.436   -28281076.261 7 -21894980.682 8
  20094969.365    -9785400.394 5  -7527702.868 5
  18321962.522   -28052970.140 7 -21610041.846 8
  20904362.264    -8549297.535 5  -6482362.863 5
 95  2 18 19 41 29.9900000  0  8 28 18 14 22 29 31 19 27
  20341490.264   -14476792.066 5  -1915791.190 5
  17383220.600   -36686189.328 7 -28408706.812 8
  21145173.154    -2201816.403 4  -1637599.864 2
  21543465.170    -7358684.733 5  -5553538.329 3
  17918085.529   -28284132.680 7 -21897362.343 8
  20073432.904    -9898569.235 5  -7615886.281 5
  18308584.490   -28123271.397 7 -21664822.045 7
  20883464.412    -8659111.780 5  -6567932.353 4
 95  2 18 19 41 59.9900000  0  8 28 18 14 22 29 31 19 27
  20330157.928   -14536350.260 5  -1962200.120 6
  17372064.959   -36744786.850 7 -28454367.228 8
  21159060.850    -2128848.688 3  -1580742.085 3
  21556432.670    -7290547.382 4  -5500444.363 4
  17917575.639   -28286805.984 7 -21899445.474 8
  20051944.459   -10011501.380 5  -7703885.267 5
  18295247.529   -28193382.513 7 -21719454.082 8
  20862581.600    -8768854.743 5  -6653446.291 5
 95  2 18 19 42 29.9900000  0  8 28 18 14 22 29 31 19 27
  20318918.865   -14595411.252 5  -2008221.625 6
  17361000.412   -36802946.563 7 -28499686.495 8
  21172948.295    -2055851.907 3  -1523861.688 2
  21569414.389    -7222325.231 3  -5447284.324 3
  17917139.873   -28289096.471 7 -21901230.299 8
  20030501.100   -10124175.542 5  -7791683.214 5
  18281940.920   -28263292.756 7 -21773929.602 7
  20841710.904    -8878524.066 5  -6738902.880 4
 95  2 18 19 42 59.9900000  0  8 28 18 14 22 29 31 19 27
  20307777.998   -14653966.683 5  -2053849.188 5
  17350019.873   -36860658.515 7 -28544656.849 8
  21186848.865    -1982816.436 3  -1466951.158 1
  21582414.787    -7154014.244 3  -5394055.046 2
  17916781.834   -28290985.159 7 -21902702.036 8
  20009113.678   -10236562.098 5  -7879257.066 5
  18268674.131   -28333005.011 7 -21828250.835 8
  20820857.701    -8988110.790 5  -6824295.100 4
 95  2 18 19 43 29.9900000  0  8 28 18 14 22 29 31 19 27
  20296732.037   -14712020.869 5  -2099086.169 6
  17339123.482   -36917917.635 7 -28589274.358 8
  21200754.420    -1909740.599 3  -1410009.153 1
  21595429.092    -7085618.122 3  -5340759.461 3
  17916501.740   -28292462.176 7 -21903852.990 8
  19987783.990   -10348658.308 5  -7966604.667 5
  18255441.897   -28402540.988 7 -21882434.716 8
  20800017.725    -9097621.164 5  -6909627.813 5
 95  2 18 19 43 59.9900000  0  8 28 18 14 22 29 31 19 27
  20285775.897   -14769590.798 6  -2143945.815 6
  17328309.303   -36974742.645 7 -28633553.600 8
  21214662.193    -1836654.147 4  -1353058.823 3
  21608455.881    -7017153.204 3  -5287410.261 2
  17916298.045   -28293520.782 7 -21904677.916 8
  19966505.108   -10460469.664 5  -8053730.329 5
  18242234.607   -28471936.988 7 -21936509.520 8
  20779188.693    -9207082.448 5  -6994922.298 5
 95  2 18 19 44 29.9900000  0  8 28 18 14 22 29 31 19 27
  20274918.545   -14826654.297 6  -2188410.847 6
  17317578.967   -37031114.835 7 -28677479.986 8
  21228575.615    -1763547.400 5  -1296092.753 2
  21621502.678    -6948606.394 3  -5233997.216 2
  17916182.615   -28294135.183 7 -21905156.701 8
  19945289.498   -10571969.548 5  -8140613.268 5
  18229062.029   -28541178.940 7 -21990464.293 8
  20758370.748    -9316470.474 5  -7080159.682 4
 95  2 18 19 44 59.9900000  0  8 28 18 14 22 29 31 19 27
  20264156.201   -14883210.369 5  -2232480.473 6
  17306938.928   -37087048.427 7 -28721064.619 8
  21242490.311    -1690431.815 4  -1239119.758 2
  21634561.365    -6879991.432 3  -5180531.089 1
  17916147.967   -28294310.294 7
  19924129.748   -10683157.375 5  -8227253.058 5
  18215914.584   -28610250.039 7 -22044285.930 8
  20737570.740    -9425779.577 5  -7165335.576 5
 95  2 18 19 45 29.9900000  0  8 28 18 14 22 29 31 19 27
  20253483.256   -14939263.667 5  -2276158.335 6
  17296371.545   -37142563.056 7 -28764322.783 8
  21256405.795    -1617321.486 5  -1182150.864 2
  21647627.139    -6811319.940 4  -5127020.908 2
  17916195.873   -28294061.788 7
  19903026.209   -10794047.434 5  -8313660.822 5
  18202809.826   -28679139.843 7 -22097966.296 8
  20716787.100    -9535013.848 5  -7250453.161 4
 95  2 18 19 45 59.9900000  0  8 28 18 14 22 29 31 19 27
  20242917.834   -14994819.447 5  -2319448.524 6
  17285884.115   -37197673.597 7 -28807266.075 7
  21270309.951    -1544227.489 4  -1125194.724 1
  21660703.303    -6742605.085 4  -5073476.943 2
  17916322.498   -28293403.468 7 -21904586.619 8
  19881983.498   -10904639.657 5  -8399836.516 5
  18189736.326   -28747843.626 7 -22151501.710 8
  20696013.811    -9644182.185 5  -7335519.360 5
 95  2 18 19 46 29.9900000  0  8 28 18 14 22 29 31 19 27
  20232440.998   -15049870.351 5  -2362345.310 6
  17275474.248   -37252368.946 7 -28849885.838 7
  21284217.654    -1471139.202 5  -1068243.017 2
  21673791.350    -6673843.057 4  -5019896.218 2
  17916523.053   -28292341.864 7 -21903759.428 8
  19860999.795   -11014914.030 5  -8485764.538 5
  18176702.709   -28816335.266 7 -22204871.817 8
  20675252.311    -9753274.000 5  -7420525.916 5
 95  2 18 19 46 59.9900000  0  8 28 18 14 22 29 31 19 27
  20222059.576   -15104406.876 5  -2404841.290 6
  17265146.686   -37306648.161 7 -28892181.343 7
  21298127.975    -1398041.284 5  -1011283.787 2
  21686885.865    -6605022.944 5  -4966270.224 2
  17916806.365   -28290852.171 7 -21902598.653 8
  19840076.717   -11124862.797 5  -8571438.864 5
  18163711.506   -28884606.062 7 -22258069.831 8
  20654508.233    -9862283.189 5  -7505468.063 5
 95  2 18 19 47 29.9900000  0  8 28 18 14 22 29 31 19 27
  20211779.818   -15158432.703 5
  17254900.311   -37360498.514 7
  21312042.537    -1324934.357 4   -954317.563 3
  21699993.897    -6536144.806 5  -4912599.011 2
  17917171.373   -28288937.018 7 -21901106.354 8
  19819215.490   -11234483.002 6  -8656857.151 5
  18150752.201   -28952690.047 7 -22311122.287 8
  20633779.420    -9971222.016 5  -7590355.381 4
 95  2 18 19 47 59.9900000  0  8 28 18 14 22 29 31 19 27
  20201599.397   -15211941.989 5
  17244740.076   -37413898.930 7
  21325954.272    -1251816.908 3   -897343.197 2
  21713110.022    -6467204.118 5  -4858879.049 2
  17917615.772   -28286594.560 7 -21899281.097 8
  19798421.467   -11343764.722 6  -8742011.695 5
  18137829.709   -29020596.811 7 -22364036.637 8
  20613061.318   -10080085.935 5  -7675184.340 4
 95  2 18 19 48 29.9900000  0  8 28 18 14 22 29 31 19 27
  20191509.154   -15264943.333 5
  17234664.240   -37466849.001 7
  21339869.998    -1178702.171 4   -840370.898 3
  21726238.772    -6398214.121 5  -4805120.707 4
  17918142.873   -28283831.039 7 -21897127.730 8
  19777685.662   -11452727.943 6
  18124938.318   -29088342.275 7 -22416825.297 8
  20592355.561   -10188887.074 5
 95  2 18 19 48 59.9900000  0  8 28 18 14 22 29 31 19 27
  20181523.756   -15317420.571 5
  17224676.029   -37519321.762 7
  21353785.201    -1105583.588 3   -783395.566 3
  21739377.428    -6329171.090 5  -4751321.023 4
  17918751.365   -28280629.032 7 -21894632.695 8
  19757013.014   -11561370.004 5  -8911574.174 5
  18112084.834   -29155911.944 7 -22469476.972 8
  20571665.506   -10297626.585 5  -7844696.401 5
 95  2 18 19 49 29.9900000  0  8 28 18 14 22 29 31 19 27
  20171633.022   -15369383.888 5
  17214783.514   -37571309.478 7 -29098410.986 7
  21367694.443    -1032484.824 3   -726435.747 3
  21752522.428    -6260095.439 5  -4697495.939 4
  17919441.600   -28277004.791 7 -21891808.645 8
  19736396.131   -11669699.107 5  -8995986.439 5
  18099256.826   -29223314.032 7 -22521998.073 8
  20550981.975   -10406318.922 5  -7929391.668 5
 95  2 18 19 49 59.9900000  0  8 28 18 14 22 29 31 19 27
  20161844.779   -15420833.509 5
  17204986.967   -37622806.751 7
  21381596.037     -959422.609 3   -669504.402 3
  21765670.482    -6190990.903 5  -4643648.325 4
  17920214.467   -28272944.860 7 -21888645.099 8
  19715841.951   -11777713.648 6  -9080153.583 5
  18086463.326   -29290524.632 7 -22574369.958 8
  20530306.123   -10514965.388 5  -8014051.185 4
 95  2 18 19 50 29.9900000  0  8 28 18 14 22 29 31 19 27
  20152155.178   -15471770.296 5
  17195279.436   -37673820.309 7
  21395490.209     -886402.474 2   -612605.852 4
  21778824.561    -6121863.529 4  -4589782.892 4
  17921071.443   -28268445.357 7 -21885139.032 8
  19695347.022   -11885416.999 6  -9164078.236 5
  18073712.240   -29357541.991 7 -22626591.271 8
  20509642.303   -10623568.079 5  -8098676.596 5
 95  2 18 19 50 59.9900000  0  8 28 18 14 22 29 31 19 27
  20142561.451   -15522188.166 5
  17185661.084   -37724362.343 7
  21409376.029     -813430.264 2   -555744.655 3
  21791986.740    -6052701.101 4  -4535890.181 3
  17922009.381   -28263509.204 7 -21881292.711 8
  19674913.959   -11992786.084 6  -9247742.429 5
  18060993.490   -29424371.080 7 -22678665.887 8
  20488984.818   -10732108.380 5  -8183253.407 5
 95  2 18 19 51 29.9900000  0  8 28 18 14 22 29 31 19 27
  20133064.889   -15572076.359 5        -0.12316
  17176130.951   -37774432.578 7 -29256688.753 7
  21423259.451     -740499.913 3   -498916.066 2
  21805159.693    -5983481.591 3  -4481952.985 4
  17923034.217   -28258134.614 7 -21877104.759 8
  19654549.959   -12099809.568 6  -9331137.316 5
  18048315.529   -29491016.515 7 -22730597.390 8
  20468346.967   -10840559.382 5  -8267760.617 5
 95  2 18 19 51 59.9900000  0  8 28 18 14 22 29 31 19 27
  20123675.475   -15621441.009 5    -38466.104 5
  17166689.108   -37824047.330 7 -29295349.609 7
  21437125.061     -667612.009 3   -442120.533 2
  21818336.553    -5914216.816 3  -4427980.527 5
  17924136.154   -28252337.211 7 -21872587.330 8
  19634249.912   -12206496.039 6  -9414269.581 5
  18035664.529   -29557494.575 7 -22782398.466 8
  20447729.225   -10948925.559 5  -8352201.755 4
 95  2 18 19 52 29.9900000  0  8 28 18 14 22 29 31 19 27
  20114380.795   -15670277.421 5    -76520.480 6
  17157331.936   -37873216.927 7 -29333663.592 7
  21450992.795     -594746.407 3   -385342.432 2
  21831522.600    -5844912.802 2  -4373977.523 5
  17925319.131   -28246127.014 7 -21867748.275 8
  19614011.061   -12312843.817 6  -9497137.929 5
  18023041.686   -29623823.867 7 -22834083.624 8
  20427120.420   -11057209.976 5  -8436579.171 5
 95  2 18 19 52 59.9900000  0  8 28 18 14 22 29 31 19 27
  20105183.592   -15718594.549 5   -114170.217 5
  17148065.311   -37921942.334 7 -29371631.446 7
  21464850.029     -521918.944 3   -328593.999 2
  21844718.397    -5775580.172 2  -4319952.200 5
  17926577.857   -28239513.069 7 -21862594.595 8
  19593840.670   -12418849.445 6  -9579739.659 5
  18010441.904   -29690013.218 7 -22885659.738 8
  20406532.006   -11165425.601 5  -8520902.987 4
 95  2 18 19 53 29.9900000  0  7 28 18 14 29 31 19 27
  20096088.576   -15766389.188 5   -151412.822 5
  17138876.045   -37970202.474 7 -29409236.763 7
  21478702.928     -449118.232 3   -271866.437 2
  17927914.748   -28232483.483 7 -21857117.042 8
  19573731.873   -12524513.896 6  -9662075.531 5
  17997880.857   -29756047.121 7 -22937114.730 8
  20385945.084   -11273587.926 5  -8605185.278 5
 95  2 18 19 53 59.9900000  0  7 28 18 14 29 31 19 27
  20087098.686   -15813653.288 5   -188241.995 6
  17129782.701   -38017993.483 7 -29446476.522 7
  21492556.076     -376334.837 3   -215152.381 2
  17929335.693   -28225019.567 7 -21851301.046 8
  19553694.514   -12629810.555 6  -9744124.807 5
  17985344.834   -29821912.767 7 -22988438.607 8
  20365371.404   -11381691.723 5  -8689421.926 5
 95  2 18 19 54 29.9890000  0  7 28 18 14 29 31 19 27
  20078202.876   -15860389.367 5   -224659.724 6
  17120782.150   -38065309.270 7 -29483345.977 7
  21506400.165     -303591.119 3   -158469.210 1
  17930839.157   -28217123.609 7 -21845148.399 8
  19533727.407   -12734730.335 6  -9825880.417 5
  17972845.392   -29887596.530 7 -23039620.760 8
  20344815.095   -11489724.998 5  -8773603.629 5
 95  2 18 19 54 59.9890000  0  7 28 18 14 29 31 19 27
  20069409.626   -15906600.707 5   -260668.561 6
  17111868.720   -38112135.885 7 -29519834.254 7
  21520233.462     -230898.586 3   -101825.974 1
  17932422.220   -28208796.574 7 -21838659.842 8
  19513833.423   -12839278.278 6  -9907346.269 5
  17960386.907   -29953079.707 7 -23090646.617 8
  20324271.212   -11597675.984 5  -8857721.216 5
 95  2 18 19 55 29.9890000  0  7 28 18 14 29 31 19 27
  20060715.525   -15952279.350 5   -296262.285 5
  17103051.642   -38158466.628 7 -29555936.140 7
  21534063.196     -158250.572 3    -45217.347 1
  17934089.040   -28200043.743 7 -21831839.498 8
  19494008.009   -12943455.173 6  -9988522.976 5
  17947966.235   -30018346.270 7 -23141503.688 8
  20303750.415   -11705530.941 5  -8941763.985 5
 95  2 18 19 55 59.9890000  0  7 28 18 14 29 31 19 27
  20052125.900   -15997439.367 5   -331451.885 5
  17094329.142   -38204322.781 7 -29591668.211 7
  21547865.696      -85671.492 3     11337.473 1
  17935829.860   -28190887.353 7 -21824704.688 8
  19474251.009   -13047291.038 6 -10069433.965 5
  17935582.860   -30083407.895 7 -23192201.062 8
  20283242.337   -11813298.057 5  -9025738.297 5
 95  2 18 19 56 29.9890000  0  7 28 18 14 29 31 19 27
  20043629.657   -16042063.844 5   -366224.166 5
  17085692.728   -38249690.787 7 -29627019.914 7
  21561667.759      -13147.745 3     67849.214 1
  17937652.126   -28181317.186 7 -21817247.455 8
  19454557.603   -13150779.849 6 -10150074.521 5
  17923247.274   -30148240.122 7 -23242719.685 8
  20262751.384   -11920975.808 5  -9109642.949 5
 95  2 18 19 56 59.9890000  0  7 28 18 14 29 31 19 27
  20035240.360   -16086150.551 5   -400577.399 6
  17077148.993   -38294582.986 7 -29662000.852 7
  21575460.493       59328.994 3    124324.275 2
  17939551.337   -28171335.195 7 -21809469.316 8
  19434928.774   -13253923.116 6 -10230445.829 5
  17910951.618   -30212860.241 7 -23293073.025 8
  20242273.603   -12028593.238 5  -9193500.609 5
 95  2 18 19 57 29.9890000  0  7 28 18 14 29 31 19 27
  20026955.079   -16129700.322 5   -434512.236 6
  17068693.954   -38339022.821 7 -29696629.304 7
  21589242.595      131763.232 3    180766.277 1
  17941528.251   -28160946.132 7 -21801373.979 8
  19415366.970   -13356728.249 6 -10310553.650 5
  17898691.626   -30277291.853 7 -23343279.467 8
  20221800.892   -12136170.082 5  -9277326.675 5
 95  2 18 19 57 59.9890000  0  7 28 18 14 29 31 19 27
  20018772.978   -16172715.032 5   -468030.128 5
  17060321.189   -38383012.653 7 -29730907.102 7
  21603019.439      204147.540 3    237169.315 2
  17943586.150   -28150137.507 7 -21792951.711 8
  19395871.493   -13459182.550 6 -10390388.088 5
  17886459.837   -30341553.040 7 -23393353.129 8
  20201336.235   -12243715.881 5  -9361128.544 5
 95  2 18 19 58 29.9890000  0  7 28 18 14 29 31 19 27
  20010685.517   -16215197.430 5   -501133.233 5
  17052039.962   -38426548.666 7 -29764831.277 7
  21616781.165      276477.476 2    293529.993 1
  17945720.673   -28138915.878 7 -21784207.620 8
  19376443.704   -13561263.690 6 -10469931.766 5
  17874258.525   -30405666.831 7 -23443311.922 8
  20180876.774   -12351240.303 5  -9444913.761 5
 95  2 18 19 58 59.9890000  0  7 28 18 14 29 31 19 27
  20002699.509   -16257144.579 5   -533819.293 6
  17043841.095   -38469618.486 7 -29798392.185 7
  21630534.775      348751.695 2    349847.213 1
  17947934.134   -28127280.052 7 -21775140.781 8
  19357091.829   -13662959.424 6 -10549175.135 5
  17862087.782   -30469642.160 7 -23493162.837 8
  20160422.040   -12458721.103 5  -9528664.987 5
 95  2 18 19 59 29.9890000  0  6 28 18 29 31 19 27
  19994819.329   -16298563.152 5   -566093.470 6
  17035734.860   -38512223.320 7 -29831590.767 7
  17950229.040   -28115225.654 7 -21765747.778 8
  19337815.048   -13764257.412 6 -10628108.575 5
  17849942.829   -30533466.461 7 -23542896.062 8
  20139982.329   -12566139.592 5  -9612367.663 5
 95  2 18 19 59 59.9890000  0  6 28 18 29 31 19 27
  19987045.814   -16339439.202 5   -597944.902 6
  17027719.610   -38554340.691 7 -29864409.512 7
  17952606.587   -28102725.808 7 -21756007.670 8
  19318622.548   -13865110.083 6 -10706695.019 6
  17837829.298   -30597120.117 7 -23592496.306 8
  20119560.157   -12673473.873 5  -9696004.744 5
 95  2 18 20  0 29.9890000  0  6 28 18 29 31 19 27
  19979362.696   -16379800.428 5   -629395.198 6
  17019789.142   -38596010.708 7 -29896879.665 7
  17955064.189   -28089809.788 7 -21745943.275 8
  19299512.071   -13965545.604 6 -10784956.415 6
  17825746.321   -30660622.550 7 -23641978.711 8
  20099141.939   -12780737.664 5  -9779586.902 5
 95  2 18 20  0 59.9890000  0  7 28 18  2 29 31 19 27
  19971779.157   -16419654.648 5   -660450.416 6
  17011946.423   -38637237.020 7 -29929004.079 7
  21671834.790          -0.11413
  17957600.814   -28076481.460 7 -21735557.603 8
  19280475.821   -14065583.464 6 -10862907.954 5
  17813688.517   -30723961.143 7 -23691333.456 8
  20078746.056   -12887930.580 5  -9863113.830 5
 95  2 18 20  1 29.9890000  0  7 28 18  2 29 31 19 27
  19964299.431   -16458953.897 5   -691073.223 6
  17004194.446   -38677959.604 7 -29960735.972 7
  21646867.970     -131217.154 3        -0.31912
  17960225.087   -28062694.672 7 -21724814.694 8
  19261519.415   -14165190.886 6 -10940524.100 5
  17801680.673   -30787085.942 7 -23740521.607 8
  20058369.142   -12995021.345 5  -9946561.158 5
 95  2 18 20  1 59.9890000  0  7 28 18  2 29 31 19 27
  19956927.845   -16497689.170 5   -721256.570 6
  16996548.329   -38718159.620 7 -29992060.674 7
  21621931.407     -262267.625 3   -102117.403 2
  17962934.743   -28048453.035 7 -21713717.354 8
  19242643.165   -14264384.717 6 -11017817.965 5
  17789706.149   -30850003.596 7 -23789548.351 8
  20038008.821   -13102006.885 5 -10029926.474 5
 95  2 18 20  2 29.9890000  0  7 28 18  2 29 31 19 27
  19949663.243   -16535860.136 5   -751000.195 5
  16989000.485   -38757822.655 7 -30022966.940 7
  21597021.946     -393144.078 3   -204098.908 3
  17965728.931   -28033772.608 7 -21702278.103 8
  19223840.079   -14363201.405 6 -11094817.957 6
  17777771.525   -30912716.160 7 -23838415.274 8
  20017669.517   -13208883.128 5 -10113206.632 5
 95  2 18 20  2 59.9890000  0  7 28 18  2 29 31 19 27
  19942503.142   -16573478.419 5   -780313.164 6
  16981553.595   -38796950.291 7 -30053456.018 7
  21572151.587     -523866.867 3   -305960.651 1
  17968601.235   -28018681.538 7 -21690518.877 8
  19205105.642   -14461650.732 6 -11171531.686 6
  17765876.064   -30975241.558 7 -23887136.356 8
  19997348.454   -13315677.945 5 -10196423.341 5
 95  2 18 20  3 29.9890000  0  7 28 18  2 29 31 19 27
  19935450.329   -16610543.113 6   -809194.759 6
  16974206.587   -38835558.353 7 -30083540.232 7
  21547306.306     -654432.447 3   -407699.880 2
  17971551.962   -28003173.239 7 -21678434.525 8
  19186444.696   -14559714.751 6 -11247945.171 6
  17754009.056   -31037595.786 7 -23935724.068 8
  19977040.868   -13422386.002 5 -10279572.423 5
 95  2 18 20  3 59.9890000  0  7 28 18  2 29 31 19 27
  19928504.571   -16647062.380 5   -837651.339 6
  16966950.150   -38873682.382 7 -30113247.277 7
  21522485.923     -784845.811 3   -509320.501 2
  17974581.931   -27987253.130 7 -21666029.295 8
  19167860.829   -14657382.156 6 -11324049.602 6
  17742176.556   -31099786.902 7 -23984184.669 8
  19956751.775   -13529009.330 5 -10362655.485 5
 95  2 18 20  4 29.9890000  0  7 28 18  2 29 31 19 27
  19921657.853   -16683035.523 5   -865682.359 6
  16959788.556   -38911329.844 7 -30142582.970 7
  21497696.876     -915112.567 3   -610826.900 2
  17977690.751   -27970919.046 7 -21653301.487 8
  19149355.345   -14754625.740 6 -11399823.789 6
  17730373.228   -31161799.049 7 -24032505.820 8
  19936476.548   -13635558.518 5 -10445680.774 5
 95  2 18 20  4 59.9890000  0  7 28 18  2 29 31 19 27
  19914915.126   -16718462.648 5   -893287.906 6
  16952711.806   -38948519.685 7 -30171562.077 7
  21472931.829    -1045236.927 3   -712222.365 2
  17980880.321   -27954158.720 7 -21640241.551 8
  19130937.189   -14851423.867 6 -11475250.845 6
  17718608.314   -31223625.667 7 -24080682.401 8
  19916212.290   -13742038.929 5 -10528652.467 5
 95  2 18 20  5 29.9890000  0  7 28 18  2 29 31 19 27
  19908277.657   -16753353.973 5   -920475.940 6
  16945717.274   -38985266.067 7 -30200195.632 7
  21448191.048    -1175232.385 3   -813517.365 2
  17984151.681   -27936964.852 7 -21626843.788 8
  19112595.540   -14947786.851 6 -11550338.830 6
  17706880.329   -31285270.925 7 -24128717.662 8
  19895963.282   -13848454.542 5 -10611573.664 5
 95  2 18 20  5 59.9890000  0  7 28 18  2 29 31 19 27
  19901741.204   -16787693.202 5   -947233.771 6
  16938816.407   -39021537.547 7 -30228459.126 7
  21423486.556    -1305087.753 3   -914703.259 2
  17987504.673   -27919338.637 7 -21613109.119 8
  19094343.696   -15043698.832 6 -11625075.380 6
  17695185.275   -31346710.876 7 -24176592.942 8
  19875727.400   -13954803.493 5 -10694442.912 5
 95  2 18 20  6 29.9890000  0  7 28 18  2 29 31 19 27
  19895312.774   -16821480.643 5   -973561.650 6
  16932007.696   -39057317.591 7 -30256339.691 7
  21398798.368    -1434805.858 3  -1015782.164 4
  17990941.064   -27901283.473 6 -21599040.225 8
  19076181.751   -15139155.868 6 -11699457.414 6
  17683533.392   -31407950.038 7 -24224311.769 8
  19855502.884   -14061079.120 5 -10777255.038 5
 95  2 18 20  6 59.9890000  0  7 28 18  2 29 31 19 27
  19888989.939   -16854724.975 5   -999466.311 6
  16925292.845   -39092608.383 7 -30283839.014 7
  21374141.298    -1564388.288 3  -1116755.411 2
  17994455.993   -27882817.647 6 -21584651.325 8
  19058097.814   -15234174.876 6 -11773498.124 6
  17671911.462   -31469007.925 7 -24271889.332 8
  19835292.798   -14167281.461 5 -10860010.049 5
 95  2 18 20  7 29.9890000  0  7 28 18  2 29 31 19 27
  19882759.353   -16887428.908 5  -1024949.882 6
  16918673.501   -39127394.724 7 -30310945.259 7
  21349515.626    -1693826.092 3  -1217615.885 2
  17998043.274   -27863964.878 6 -21569960.915 7
  19040102.087   -15328752.510 6 -11847194.907 6
  17660325.337   -31529893.455 7 -24319332.602 8
  19815095.954   -14273417.981 5 -10942713.788 5
 95  2 18 20  7 59.9890000  0  7 28 18  2 29 31 19 27
  19876643.040   -16919590.268 5  -1050010.668 6
  16912151.892   -39161661.250 7 -30337646.453 7
  21324907.946    -1823116.499 4  -1318361.511 2
  18001701.235   -27844736.478 6 -21554977.809 7
  19022189.665   -15422883.004 6 -11920543.256 6
  17648774.064   -31590607.459 7 -24366642.217 8
  19794910.306   -14379489.093 5 -11025366.552 5
 95  2 18 20  8 29.9890000  0  7 28 18  2 29 31 19 27
  19870630.728   -16951200.675 5  -1074642.151 6
  16905727.142   -39195409.816 7 -30363944.047 7
  21300335.853    -1952248.891 3  -1418984.015 3
  18005434.899   -27825113.339 6 -21539687.102 7
  19004362.392   -15516569.618 6 -11993545.732 6
  17637256.134   -31651141.865 7 -24413811.874 8
  19774740.134   -14485481.622 5 -11107958.089 5
 95  2 18 20  8 59.9890000  0  7 28 18  2 29 31 19 27
  19864716.696   -16982263.242 5  -1098846.747 5
  16899406.665   -39228645.800 7 -30389842.212 7
  21275794.689    -2081216.341 3  -1519477.935 3
  18009244.306   -27805099.620 7 -21524092.052 7
  18986613.415   -15609826.362 6 -12066213.238 6
  17625769.681   -31711495.314 7 -24460840.528 8
  19754582.431   -14591412.774 5 -11190501.795 5
 95  2 18 20  9 29.9890000  0  7 28 18  2 29 31 19 27
  19858912.540   -17012783.337 5  -1122628.651 6
  16893176.095   -39261379.720 7 -30415349.172 7
  21251280.696    -2210025.540 3  -1619848.509 2
  18013127.470   -27784696.759 6 -21508193.777 7
  18968948.610   -15702658.636 6 -12138549.991 6
  17614317.282   -31771666.711 7 -24507727.331 8
  19734434.243   -14697291.486 5 -11273004.643 5
 95  2 18 20  9 59.9890000  0  7 28 18  2 29 31 19 27
  19853201.970   -17042760.307 5  -1145987.320 6
  16887040.079   -39293629.828 7 -30440479.129 7
  21226796.907    -2338681.896 3  -1720100.052 2
  18017084.564   -27763893.390 6 -21491983.417 8
  18951361.462   -15795074.770 6 -12210562.486 6
  17602904.806   -31831648.730 7 -24554466.563 8
  19714298.126   -14803114.444 5 -11355464.033 5
 95  2 18 20 10 29.9890000  0  7 28 18  2 29 31 19 27
  19847609.228   -17072188.055 5  -1168918.030 6
  16880993.173   -39325399.110 7 -30465234.418 7
  21202344.649    -2467164.550 2  -1820216.222 1
  18021124.071   -27742680.313 7 -21475453.802 7
  18933856.907   -15887070.849 6 -12282247.657 6
  17591527.314   -31891431.326 7 -24601050.402 8
  19694172.876   -14908879.826 5 -11437878.562 5
 95  2 18 20 10 59.9890000  0  7 28 18  2 29 31 19 27
  19842108.110   -17101063.577 5  -1191418.421 6
  16875040.681   -39356672.268 7 -30489603.111 7
  21177947.157    -2595474.730 2  -1920198.017 2
  18025237.548   -27721059.590 6 -21458606.543 8
  18916428.970   -15978635.046 6 -12353596.312 6
  17580191.392   -31951016.882 7 -24647480.701 8
  19674056.603   -15014584.566 5 -11520245.849 5
 95  2 18 20 11 29.9890000  0  7 28 18  2 29 31 19 27
  19836720.439   -17129390.862 5  -1213491.623 6
  16869183.946   -39387455.335 7 -30513589.913 7
  21153550.790    -2723634.710 3  -2020062.782 1
  18029430.298   -27699029.335 6 -21441440.168 7
  18899093.876   -16069756.604 6 -12424600.043 6
  17568883.876   -32010421.178 7 -24693769.753 8
  19653953.329   -15120222.823 5 -11602561.334 5
 95  2 18 20 11 59.9890000  0  7 28 18  2 29 31 19 27
  19831432.595   -17157169.368 5  -1235137.193 6
  16863420.673   -39417745.951 7 -30537192.995 7
  21129187.571    -2851644.237 3  -2119810.342 2
  18033699.946   -27676585.547 6 -21423951.565 7
  18881838.040   -16160420.721 6 -12495247.332 6
  17557612.165   -32069659.927 7 -24739929.805 8
  19633862.853   -15225794.545 5 -11684824.968 6
 95  2 18 20 12 29.9890000  0  7 28 18  2 29 31 19 27
  19826247.259   -17184404.949 5  -1256359.703 6
  16857753.509   -39447533.454 7 -30560404.031 7
  21104855.798    -2979508.334 3  -2219444.630 1
  18038048.665   -27653735.632 6 -21406146.487 7
  18864671.782   -16250625.368 6 -12565536.593 6
  17546367.712   -32128754.158 7 -24785977.254 8
  19613785.524   -15331300.653 5 -11767037.455 5
 95  2 18 20 12 59.9890000  0  7 28 18  2 29 31 19 27
  19821176.853   -17211080.174 5  -1277145.566 6
  16852182.376   -39476801.393 7 -30583210.219 7
  21080553.048    -3107214.096 3  -2318955.550 2
  18042476.712   -27630463.255 7 -21388012.232 7
  18847602.798   -16340335.876 6 -12635440.817 6
  17535150.165   -32187707.911 7 -24831915.232 8
  19593727.110   -15436713.834 5 -11849177.544 5
 95  2 18 20 13 29.9890000  0  7 28 18  2 29 31 19 27
  19816202.548   -17237207.012 5  -1297504.103 6
  16846708.056   -39505568.843 7 -30605626.412 7
  21056280.907    -3234750.233 3  -2418334.301 2
  18046983.235   -27606782.807 6 -21369559.987 7
  18830623.204   -16429557.122 6 -12704963.796 6
  17523955.470   -32246532.725 7 -24877752.732 8
  19573681.868   -15542046.057 5 -11931254.545 6
 95  2 18 20 13 59.9890000  0  7 28 18  2 29 31 19 27
  19811333.110   -17262788.554 5  -1317437.735 6
  16841329.868   -39533827.016 7 -30627645.767 7
  21032051.321    -3362097.862 3  -2517566.177 1
  18051567.181   -27582697.236 6 -21350792.072 7
  18813737.064   -16518300.389 6 -12774114.327 6
  17512787.548   -32305223.120 7 -24923485.500 8
  19553652.556   -15647304.956 5 -12013274.415 5
 95  2 18 20 14 29.9890000  0  7 28 18  2 29 31 19 27
  19806572.267   -17287822.068 5  -1336944.331 6
  16836050.079   -39561573.482 7 -30649266.394 7
  21007857.181    -3489249.299 3  -2616645.151 2
  18056227.884   -27558197.771 6 -21331701.626 7
  18796938.517   -16606576.034 6 -12842900.481 6
  17501646.790   -32363765.342 7 -24969102.796 8
  19533636.743   -15752485.710 5 -12095233.380 6
 95  2 18 20 14 59.9890000  0  7 28 18  2 29 31 19 27
  19801913.790   -17312304.197 5  -1356021.282 6
  16830865.954   -39588813.348 7 -30670492.273 7
  20983693.939    -3616203.436 3  -2715570.377 4
  18060972.689   -27533273.727 6 -21312280.343 7
  18780228.353   -16694385.072 6 -12911323.038 6
  17490540.814   -32422131.904 7 -25014583.219 8
  19513636.314   -15857592.564 5 -12177134.769 5
 95  2 18 20 15 29.9880000  0  7 28 18  2 29 31 19 27
  19797359.707   -17336238.191 5  -1374671.125 6
  16825780.090   -39615550.543 7 -30691326.449 7
  20959571.418    -3742973.532 3  -2814352.185 3
  18065795.270   -27507933.120 6 -21292534.469 7
  18763604.902   -16781742.853 6 -12979393.982 6
  17479470.527   -32480293.071 7 -25059903.592 8
  19493650.481   -15962637.775 5 -12258988.109 6
 95  2 18 20 15 59.9880000  0  7 28 18  2 29 31 19 27
  19792905.652   -17359623.756 5  -1392893.624 6
  16820785.481   -39641791.289 7 -30711773.788 7
  20935477.863    -3869595.691 4  -2913018.703 4
  18070694.879   -27482174.963 6 -21272463.235 7
  18747065.340   -16868655.903 6 -13047118.379 6
  17468445.613   -32538236.967 7 -25105054.653 8
  19473670.059   -16067627.536 6 -12340798.265 6
 95  2 18 20 16 29.9880000  0  7 28 18  2 29 31 19 27
  19788561.957   -17382455.308 5  -1410684.408 5
  16815885.684   -39667538.561 7 -30731836.605 7
  20911405.965    -3996078.831 4  -3011576.851 4
  18075674.840   -27456002.544 6 -21252069.189 7
  18730615.395   -16955102.522 6 -13114479.332 6
  17457467.777   -32595940.380 7 -25150018.339 8
  19453703.387   -16172550.863 6 -12422556.642 6
 95  2 18 20 16 59.9880000  0  7 28 18  2 29 31 19 27
  19784318.848   -17404736.717 5  -1428046.528 6
  16811080.910   -39692791.956 7 -30751514.581 7
  20887362.856    -4122433.255 3  -3110034.683 4
  18080730.106   -27429439.749 6 -21231370.955 7
  18714254.121   -17041074.664 6 -13181470.564 6
  17446533.207   -32653402.680 7 -25194794.138 8
  19433747.270   -16277410.274 5 -12504265.212 6
 95  2 18 20 17 29.9880000  0  7 28 18  2 29 31 19 27
  19780183.910   -17426472.590 5  -1444983.546 6
  16806368.973   -39717547.927 7 -30770804.968 7
  20863344.168    -4248648.729 4  -3208384.240 5
  18085855.379   -27402507.382 6 -21210384.746 7
  18697989.371   -17126559.408 6 -13248082.009 6
  17435637.324   -32710652.135 7 -25239404.081 8
  19413809.340   -16382194.441 6 -12585915.152 6
 95  2 18 20 17 59.9880000  0  7 28 18  2 29 31 19 27
  19776151.465   -17447649.109 5  -1461484.711 6
  16801760.598   -39741773.734 7 -30789682.232 7
  20839361.785    -4374694.466 5  -3306601.501 3
  18091053.465   -27375190.985 6 -21189099.291 7
  18681818.738   -17211533.935 6 -13314295.874 6
  17424780.543   -32767694.834 7 -25283852.925 8
  19393885.996   -16486881.798 6 -12667489.669 5
 95  2 18 20 18 29.9880000  0  7 28 18  2 29 31 19 27
  19772229.598   -17468275.932 5  -1477557.534 5
  16797252.176   -39765461.360 7 -30808140.138 7
  20815408.793    -4500555.587 5  -3404674.930 5
  18096323.027   -27347503.121 6 -21167524.384 7
  18665744.777   -17296003.806 6 -13380116.509 6
  17413961.332   -32824560.471 7 -25328163.793 8
  19373980.207   -16591485.362 5 -12748998.878 5
 95  2 18 20 18 59.9880000  0  7 28 18  2 29 31 19 27
  19768408.590   -17488356.827 5  -1493204.958 5
  16792847.098   -39788617.355 7 -30826183.786 7
  20791495.816    -4626212.115 5  -3502588.913 4
  18101660.957   -27319458.517 6 -21145671.493 7
  18649763.363   -17379975.899 6 -13445549.266 6
  17403164.348   -32881288.322 7 -25372367.295 8
  19354092.676   -16696010.814 6 -12830447.224 5
 95  2 18 20 19 29.9880000  0  7 28 18  2 29 31 19 27
  19764688.910   -17507891.765 5  -1508426.946 6
  16788538.934   -39811248.783 7 -30843818.688 7
  20767621.942    -4751660.753 4  -3600340.931 3
  18107067.895   -27291040.438 6 -21123527.581 7
  18633880.840   -17463450.324 6 -13510594.229 6
  17392394.223   -32937882.033 7 -25416466.274 8
  19334214.676   -16800462.583 6 -12911838.155 6
 95  2 18 20 19 59.9880000  0  7 28 18  2 29 31 19 27
  19761078.754   -17526874.551 5  -1523218.678 6
  16784330.535   -39833364.868 7 -30861052.020 7
  20743788.723    -4876906.462 5  -3697934.819 3
  18112549.996   -27262223.810 6 -21101073.117 7
  18618092.121   -17546431.488 6 -13575254.841 6
  17381659.223   -32994314.478 7 -25460439.591 8
  19314348.262   -16904847.685 6 -12993177.132 6
 95  2 18 20 20 29.9880000  0  7 28 18  2 29 31 19 27
  19757571.473   -17545305.592 5  -1537580.487 6
  16780215.410   -39854994.675 7 -30877906.438 7
  20719995.449    -5001960.135 4  -3795379.092 3
  18118111.199   -27233007.741 6 -21078307.382 7
  18602392.801   -17628926.022 6 -13639536.257 6
  17370947.387   -33050586.086 7 -25504287.576 8
  19294500.059   -17009156.904 6 -13074456.990 6
 95  2 18 20 20 59.9880000  0  7 28 18  2 29 31 19 27
  19754168.941   -17563183.596 5  -1551511.353 6
  16776186.004   -39876159.192 7 -30894398.294 7
  20696229.660    -5126836.049 4  -3892684.852 3
  18123749.223   -27203375.901 6 -21055217.694 7
  18586785.629   -17710930.630 6 -13703435.920 6
  17360276.785   -33106674.114 7 -25547992.517 8
  19274670.395   -17113384.807 6 -13155673.487 6
 95  2 18 20 21 29.9880000  0  7 28 18  2 29 31 19 27
  19750874.629   -17580510.892 5  -1565013.106 6
  16772248.379   -39896854.541 7 -30910524.559 7
  20672499.098    -5251552.541 4  -3989866.389 3
  18129469.270   -27173314.260 6 -21031793.088 7
  18571274.020   -17792449.548 6 -13766957.117 6
  17349643.652   -33162558.260 7 -25591538.598 8
  19254847.660   -17217532.647 6 -13236827.601 6
 95  2 18 20 21 59.9880000  0  7 28 18  2 29 31 19 27
  19747682.215   -17597287.752 5  -1578085.956 6
  16768400.785   -39917072.913 7 -30926279.157 7
  20648793.840    -5376103.086 4  -4086918.653 4
  18135269.918   -27142842.636 6 -21008049.012 7
  18555854.059   -17873485.307 6 -13830101.834 6
  17339042.309   -33218259.723 7 -25634942.325 8
  19235043.566   -17321604.451 6 -13317922.456 6
 95  2 18 20 22 29.9880000  0  7 28 18  2 29 31 19 27
  19744589.387   -17613523.513 5  -1590737.164 6
  16764646.590   -39936806.987 7 -30941656.373 7
  20625124.957    -5500489.588 4  -4183843.105 4
  18141140.879   -27111983.335 6 -20984002.865 7
  18540522.543   -17954036.885 6 -13892869.260 6
  17328472.637   -33273803.211 7 -25678222.949 8
  19215252.871   -17425611.971 6 -13398967.214 6
 95  2 18 20 22 59.9880000  0  7 28 18  2 29 31 19 27
  19741606.176   -17629204.406 5  -1602956.025 6
  16760989.699   -39956020.585 7 -30956628.032 7
  20601493.004    -5624677.953 4  -4280613.143 4
  18147089.723   -27080723.874 6 -20959644.892 7
  18525293.879   -18034072.158 6 -13955234.381 6
  17317936.645   -33329168.205 7 -25721364.490 8
  19195469.465   -17529553.743 6 -13479960.742 6
 95  2 18 20 23 29.9880000  0  7 28 18  2 29 31 19 27
  19738728.418   -17644340.891 5  -1614750.676 6
  16757435.699   -39974699.700 7 -30971183.200 7
  20577901.684    -5748662.699 4  -4377224.537 3
  18153110.051   -27049086.371 6 -20934992.360 7
  18510162.309   -18113595.745 6 -14017200.789 6
  17307427.934   -33384381.857 7 -25764388.106 8
  19175704.238   -17633435.988 6 -13560907.880 6
 95  2 18 20 23 59.9880000  0  7 28 18  2 29 31 19 27
  19735952.145   -17658931.030 5  -1626119.615 6
  16753985.332   -39992834.063 7 -30985313.884 7
  20554347.660    -5872426.067 4  -4473663.419 4
  18159201.441   -27017073.223 6 -20910047.110 7
  18495129.106   -18192590.569 6 -14078755.174 6
  17296954.910   -33439427.165 7 -25807280.538 8
  19155946.598   -17737246.683 6 -13641799.264 6
 95  2 18 20 24 29.9880000  0  7 28 18  2 29 31 19 27
  19733275.934   -17672981.904 5  -1637068.364 6
  16750638.551   -40010423.363 7 -30999019.851 7
  20530838.801    -5995965.013 4  -4569927.446 4
  18165366.481   -26984677.253 6 -20884803.561 7
  18480200.902   -18271044.861 6 -14139888.366 6
  17286516.309   -33494277.312 7 -25850020.902 8
  19136208.973   -17840983.439 6 -13722633.045 6
 95  2 18 20 24 59.9880000  0  7 28 18  2 29 31 19 27
  19730707.949   -17686483.968 5  -1647589.476 6
  16747394.434   -40027458.434 7 -31012293.946 7
  20507374.434    -6119270.998 4  -4666009.967 3
  18171606.457   -26951885.340 6 -20859251.489 7
  18465376.559   -18348947.606 6 -14200591.780 6
  17276118.949   -33548917.352 7 -25892597.545 8
  19116485.067   -17944631.206 6 -13803397.484 6
 95  2 18 20 25 29.9880000  0  7 28 18  2 29 31 19 27
  19728245.152   -17699436.585 5  -1657682.461 5
  16744259.191   -40043938.676 7 -31025135.705 7
  20483951.754    -6242357.632 4  -4761921.539 3
  18177921.301   -26918701.060 6 -20833393.673 7
  18450657.332   -18426302.334 6 -14260868.171 6
  17265760.973   -33603346.732 7 -25935010.033 8
  19096780.668   -18048183.945 6 -13884087.856 6
 95  2 18 20 25 59.9880000  0  7 28 18  2 29 31 19 27
  19725880.106   -17711844.915 5  -1667351.331 6
  16741224.691   -40059891.015 7 -31037566.113 7
  20460570.301    -6365231.069 5  -4857666.974 5
  18184313.035   -26885126.319 6 -20807231.596 7
  18436037.824   -18503113.652 6 -14320721.124 6
  17255443.262   -33657569.306 7 -25977261.376 8
  19077091.317   -18151657.032 6 -13964716.161 6
 95  2 18 20 26 29.9880000  0  7 28 18  2 29 31 19 27
  19723624.488   -17723710.164 5  -1676597.020 5
  16738284.488   -40075339.003 7 -31049603.521 7
  20437225.410    -6487912.208 5  -4953262.573 4
  18190774.238   -26851161.697 6 -20780765.719 7
  18421524.871   -18579394.840 6 -14380160.984 6
  17245159.254   -33711610.581 7 -26019371.455 8
  19057412.613   -18255063.941 6 -14045292.917 6
 95  2 18 20 26 59.9880000  0  7 28 18  2 29 31 19 27
  19721471.043   -17735031.042 5  -1685418.515 6
  16735438.723   -40090294.712 7 -31061257.336 7
  20413912.770    -6610414.392 5  -5048718.726 5
  18197310.652   -26816814.799 6 -20754001.968 6
  18407104.668   -18655153.989 6 -14439194.058 6
  17234908.606   -33765488.581 7 -26061354.306 8
  19037745.621   -18358405.679 6 -14125818.865 6
 95  2 18 20 27 29.9880000  0  8 28 18  2 16 29 31 19 27
  19719416.246   -17745801.283 5  -1693810.943 6
  16732686.668   -40104758.317 7 -31072527.685 7
  20390634.738    -6732737.190 5  -5144035.076 5
  21257609.754          -0.41413
  18203916.254   -26782091.998 6 -20726945.304 7
  18392789.879   -18730389.248 6 -14497818.897 6
  17224688.106   -33819188.620 7 -26103198.484 8
  19018094.090   -18461672.680 6 -14206286.597 6
 95  2 18 20 27 59.9880000  0  8 28 18  2 16 29 31 19 27
  19717476.481   -17756030.456 5  -1701781.763 5
  16730021.043   -40118749.739 7 -31083430.107 7
  20367392.723    -6854889.260 5  -5239218.395 3
  21238955.184      -98044.818 3        -0.28511
  18210596.246   -26746999.846 6 -20699600.840 6
  18378570.488   -18805118.648 6 -14556049.566 6
  17214501.848   -33872722.680 7 -26144913.320 8
  18998457.441   -18564873.885 6 -14286703.050 6
 95  2 18 20 28 29.9880000  0  8 28 18  2 16 29 31 19 27
  19715629.996   -17765702.859 5  -1709318.726 6
  16727457.973   -40132230.843 7 -31093934.874 7
  20344178.215    -6976861.167 5  -5334261.339 4
  21220386.020     -195643.058 3    -76050.811 1
  18217345.332   -26711536.466 6 -20671967.104 7
  18364445.527   -18879329.259 6 -14613875.975 6
  17204350.324   -33926067.449 7 -26186480.652 8
  18978837.231   -18667976.478 6 -14367042.653 6
 95  2 18 20 28 59.9880000  0  8 28 18  2 16 29 31 19 27
  19713898.707   -17774834.317 5  -1716434.181 6
  16724988.637   -40145203.366 7 -31104043.342 7
  20321001.574    -7098661.630 5  -5429170.695 3
  21201888.543     -292825.147 3   -151777.075 3
  18224157.051   -26675722.820 6 -20644060.430 7
  18350423.356   -18953027.724 6 -14671303.301 6
  17194234.777   -33979229.041 7 -26227905.246 8
  18959234.996   -18770987.253 6 -14447310.705 6
 95  2 18 20 29 29.9880000  0  8 28 18  2 16 29 31 19 27
  19712256.981   -17783424.552 5  -1723127.899 6
  16722619.426   -40157665.112 7 -31113753.807 7
  20297857.457    -7220281.469 5  -5523939.295 5
  21183474.824     -389604.783 3   -227189.736 1
  18231042.441   -26639548.828 6 -20615872.988 7
  18336496.059   -19026220.788 6 -14728336.805 6
  17184152.840   -34032201.301 7 -26269182.310 8
  18939649.684   -18873909.301 6 -14527509.636 6
 95  2 18 20 29 59.9880000  0  8 28 18  2 16 29 31 19 27
  19710729.379   -17791480.852 5  -1729405.557 6
  16720343.324   -40169616.481 7 -31123066.579 7
  20274748.887    -7341715.889 5  -5618563.402 5
  21165135.168     -485973.378 3   -302282.110 1
  18237996.668   -26603005.396 6 -20587397.661 6
  18322662.598   -19098906.738 6 -14784975.155 6
  17174106.684   -34084998.583 7 -26310323.029 8
  18920078.066   -18976746.925 6 -14607642.767 6
 95  2 18 20 30 29.9880000  0  8 28 18  2 16 29 31 19 27
  19709295.395   -17798991.502 5  -1735258.006 6
  16718171.957   -40181033.694 7 -31131963.124 7
  20251681.340    -7462944.657 5  -5713027.283 5
  21146874.121     -581910.846 3   -377038.526 2
  18245023.168   -26566082.345 6 -20558626.528 6
  18308933.660   -19171049.355 6 -14841190.116 6
  17164096.824   -34137602.394 7 -26351312.982 8
  18900528.332   -19079489.411 6 -14687701.774 6
 95  2 18 20 30 59.9880000  0  8 28 18  2 16 29 31 19 27
  19707973.848   -17805958.333 5  -1740686.689 6
  16716099.660   -40191926.699 7 -31140451.190 7
  20228651.067    -7583963.814 5  -5807327.842 5
  21128710.426     -677415.063 3   -451457.356 1
  18252124.598   -26528766.688 6 -20529549.459 7
  18295314.512   -19242635.321 6 -14896971.327 6
  17154121.207   -34190013.376 7 -26392152.678 8
  18880990.660   -19182155.786 6 -14767701.479 6
 95  2 18 20 31 29.9880000  0  8 28 18  2 16 29 31 19 27
  19706751.004   -17812383.943 5  -1745693.626 6
  16714127.090   -40202291.238 7 -31148527.475 7
  20205665.684    -7704765.906 5  -5901459.242 4
  21110614.223     -772467.978 3   -525524.475 1
  18259299.293   -26491063.353 6 -20500170.314 6
  18281796.113   -19313662.165 6 -14952316.858 6
  17144185.848   -34242230.972 7 -26432841.687 8
  18861471.934   -19284748.193 6 -14847643.540 6
 95  2 18 20 31 59.9880000  0  8 28 18  2 16 29 31 19 27
  19705625.668   -17818280.871 5  -1750288.582 6
  16712253.590   -40212135.954 7 -31156198.696 7
  20182714.801    -7825363.922 5  -5995431.659 5
  21092612.762     -867073.916 3   -599243.369 1
  18266542.926   -26452999.038 6 -20470509.879 6
  18268385.684   -19384120.305 6 -15007219.239 6
  17134286.285   -34294264.725 7 -26473387.429 8
  18841959.887   -19387272.453 6 -14927532.505 6
 95  2 18 20 32 29.9880000  0  8 28 18  2 16 29 31 19 27
  19704607.895   -17823637.881 5  -1754462.806 6
  16710479.363   -40221456.536 7 -31163461.506 7
  20159807.301    -7945745.729 5  -6089235.604 5
  21074699.356     -961217.283 3   -672601.791 1
  18273852.559   -26414578.654 6 -20440571.994 6
  18255092.434   -19453996.871 6 -15061668.447 6
  17124419.402   -34346106.079 7 -26513783.262 8
  18822464.231   -19489722.842 6 -15007363.903 6
 95  2 18 20 32 59.9880000  0  8 28 18  2 16 29 31 19 27
  19703688.762   -17828459.476 5  -1758219.820 6
  16708802.652   -40230274.015 7 -31170332.281 7
  20136942.145    -8065907.624 5  -6182868.198 5
  21056872.543    -1054892.628 3   -745595.548 1
  18281230.004   -26375814.373 6 -20410366.130 6
  18241898.082   -19523319.943 6 -15115686.364 6
  17114589.754   -34397759.546 7 -26554032.688 8
  18802983.551   -19592091.991 6 -15087132.009 6
 95  2 18 20 33 29.9880000  0  8 28 18  2 16 29 31 19 27
  19702875.566   -17832745.641 5  -1761559.610 6
  16707218.027   -40238597.339 7 -31176818.006 7
  20114120.895    -8185840.211 5  -6276322.096 5
  21039138.160    -1148091.079 3   -818217.662 2
  18288671.934   -26336707.297 6 -20379893.157 7
  18228809.535   -19592103.183 6 -15169283.623 6
  17104795.770   -34449228.942 7 -26594138.683 8
  18783518.809   -19694366.936 6 -15166826.709 6
 95  2 18 20 33 59.9880000  0  8 28 18  2 16 29 31 19 27
  19702157.457   -17836499.887 5  -1764484.905 6
  16705725.660   -40246436.610 7 -31182926.540 7
  20091341.238    -8305541.829 5  -6369596.044 5
  21021496.676    -1240808.037 4   -890464.601 3
  18296181.457   -26297250.141 6 -20349147.399 6
  18215822.488   -19660345.495 6 -15222459.387 6
  17095036.676   -34500521.331 7 -26634106.755 8
  18764076.051   -19796556.277 6 -15246454.696 6
 95  2 18 20 34 29.9880000  0  8 28 18  2 16 29 31 19 27
  19701542.168   -17839725.565 5  -1766998.341 5
  16704326.004   -40253796.870 7 -31188661.814 7
  20068606.832    -8425010.595 5  -6462688.545 5
  21003937.426    -1333046.589 3   -962338.762 1
  18303758.277   -26257435.962 6 -20318123.438 7
  18202937.957   -19728053.521 6 -15275218.822 6
  17085308.504   -34551641.869 7 -26673940.899 8
  18744643.340   -19898666.315 6 -15326020.906 6
 95  2 18 20 34 59.9880000  0  8 28 18  2 16 29 31 19 27
  19701036.137   -17842421.138 5  -1769098.697 6
  16703017.113   -40260671.048 7 -31194018.319 7
  20045916.606    -8544252.066 5  -6555603.949 5
  20986481.918    -1424811.200 4  -1033843.619 1
  18311405.160   -26217247.525 6 -20286807.845 6
  18190160.207   -19795220.847 6 -15327556.928 6
  17075611.449   -34602587.842 7 -26713639.030 8
  18725227.559   -20000694.902 6 -15405523.631 6
 95  2 18 20 35 29.9880000  0  8 28 18  2 16 29 31 19 27
  19700623.332   -17844586.630 5  -1770786.026 6
  16701805.621   -40267035.357 7 -31198977.536 7
  20023268.262    -8663277.860 5  -6648351.297 4
  20969104.481    -1516105.678 4  -1104982.106 2
  18319127.590   -26176665.188 6 -20255185.318 6
  18177484.418   -19861814.582 6 -15379448.091 6
  17065951.731   -34653362.160 7 -26753203.410 8
  18705826.590   -20102652.658 6 -15484971.172 6
 95  2 18 20 35 59.9880000  0  8 28 18  2 16 29 31 19 27
  19700308.574   -17846218.274 5  -1772057.386 5
  16700696.309   -40272868.319 7 -31203522.705 7
  20000655.801    -8782082.958 5  -6740926.660 5
  20951822.402    -1606931.746 3  -1175755.634 2
  18326925.090   -26135697.737 6 -20223262.713 6
  18164927.301   -19927813.262 6 -15430875.560 6
  17056323.668   -34703954.520 7 -26792626.009 8
  18686438.184   -20204535.233 6 -15564360.121 6
 95  2 18 20 36 29.9870000  0  8 28 18  2 16 29 31 19 27
  19700101.468   -17847313.007 5  -1772910.363 5
  16699688.390   -40278164.515 7 -31207649.617 7
  19978091.546    -8900667.870 5  -6833330.449 5
  20934627.616    -1697298.353 4  -1246171.116 2
  18334788.905   -26094361.470 6 -20191052.710 6
  18152481.687   -19993218.427 6 -15481840.551 6
  17046731.429   -34754352.373 7 -26831897.042 8
  18667067.327   -20306326.450 6 -15643677.891 6
 95  2 18 20 36 59.9870000  0  8 28 18  2 16 29 31 19 27
  19699997.382   -17847875.203 5  -1773348.394 5
  16698781.218   -40282922.897 7 -31211357.445 7
  19955565.843    -9019045.329 5  -6925572.582 5
  20917523.077    -1787205.880 3  -1316228.887 2
  18342726.484   -26052660.432 6 -20158558.480 6
  18140143.905   -20058041.065 6 -15532351.632 6
  17037179.890   -34804553.651 7 -26871014.906 8
  18647715.202   -20408030.864 6 -15722928.013 6
 95  2 18 20 37 29.9870000  0  8 28 18  2 16 29 31 19 27
  19699984.819   -17847918.122 5
  16697978.702   -40287150.461 7 -31214651.662 7
  19933078.163    -9137222.143 5  -7017658.362 5
  20900499.280    -1876665.476 3  -1385937.599 1
  18350722.046   -26010633.092 6 -20125809.988 6
  18127915.991   -20122293.592 6 -15582418.465 6
  17027663.210   -34854558.752 7 -26909979.894 8
  18628375.593   -20509661.434 6 -15802120.585 6
 95  2 18 20 37 59.9870000  0  8 28 18  2 16 29 31 19 27
  19700077.288   -17847436.087 5
  16697273.351   -40290853.467 7 -31217537.117 7
  19910626.726    -9255195.981 5  -7109585.973 5
  20883556.726    -1965669.424 4  -1455291.269 1
  18358776.608   -25968305.965 6 -20092827.894 6
  18115794.804   -20185991.506 6 -15632053.143 6
  17018187.218   -34904360.664 7 -26948786.557 8
  18609049.468   -20611218.251 6 -15881255.693 6
 95  2 18 20 38 29.9870000  0  8 28 18  2 16 29 31 19 27
  19700272.382   -17846430.194 5  -1772222.366 5
  16696666.866   -40294043.325 7 -31220022.729 7
  19888213.655    -9372973.784 5  -7201360.816 5
  20866704.015    -2054218.990 4  -1524290.878 1
  18366892.108   -25925668.463 6 -20059603.950 6
  18103777.671   -20249142.284 6 -15681261.475 7
  17008750.015   -34953958.930 7 -26987434.530 8
  18589740.304   -20712698.736 6 -15960331.333 6
 95  2 18 20 38 59.9870000  0  8 28 18  2 16 29 31 19 27
  19700563.601   -17844898.431 5  -1771028.793 5
  16696157.632   -40296720.418 7 -31222108.779 8
  19865840.608    -9490540.859 5  -7292971.445 5
  20849938.398    -2142311.329 3  -1592934.201 2
  18375065.937   -25882704.776 6 -20026125.839 6
  18091869.523   -20311733.187 6 -15730033.555 6
  16999345.280   -35003371.490 7 -27025937.811 8
  18570440.319   -20814105.674 6 -16039349.647 6
 95  2 18 20 39 29.9870000  0  8 28 18  2 16 29 31 19 27
  19700950.835   -17842845.214 5  -1769428.896 5
  16695741.718   -40298898.199 7 -31223805.754 7
  19843509.562    -9607902.226 5  -7384421.776 5
  20833266.741    -2229952.762 3  -1661226.156 1
  18383303.241   -25839419.332 6 -19992396.999 6
  18080062.015   -20373767.550 6 -15778371.965 7
  16989975.351   -35052618.172 7 -27064311.837 8
  18551159.015   -20915440.133 6 -16118311.490 6
 95  2 18 20 39 59.9870000  0  8 28 18  2 16 29 31 19 27
  19701440.093   -17840276.328 5  -1767427.177 5
  16695422.023   -40300589.623 7 -31225123.752 7
  19821212.538    -9725044.968 5  -7475701.754 5
  20816675.007    -2317141.384 3  -1729165.280 1
  18391607.866   -25795785.537 6 -19958396.728 6
  18068363.796   -20435242.831 6 -15826274.742 7
  16980634.319   -35101708.100 7 -27102563.721 8
  18531892.226   -21016681.790 6 -16197201.024 6
 95  2 18 20 40 29.9870000  0  8 28 18  2 16 29 31 19 27
  19702031.796   -17837177.119 5  -1765012.218 5
  16695192.218   -40301786.936 7 -31226056.727 8
  19798973.233    -9841938.796 5  -7566787.753 5
  20800178.734    -2403860.563 3  -1796738.617 2
  18399985.366   -25751760.209 6 -19924091.366 6
  18056779.116   -20496128.386 6 -15873717.978 7
  16971324.187   -35150628.199 7 -27140683.265 8
  18512652.444   -21117792.080 6 -16275988.185 6
 95  2 18 20 40 59.9870000  0  8 28 18  2 16 29 31 19 27
  19702720.796   -17833560.937 5  -1762194.422 5
  16695061.624   -40302485.835 7 -31226601.333 7
  19776771.851    -9958606.632 5  -7657697.650 5
  20783763.288    -2490113.082 3  -1863948.329 2
  18408432.905   -25707357.965 6 -19889492.299 6
  18045303.116   -20556432.139 6 -15920707.868 6
  16962044.624   -35199385.610 7 -27178676.035 8
  18493430.523   -21218798.201 6 -16354694.180 6
 95  2 18 20 41 29.9870000  0  8 28 18  2 16 29 31 19 27
  19703504.319   -17829431.775 5  -1758976.886 5
  16695024.233   -40302686.251 7
  19754611.273   -10075066.088 5  -7748445.190 5
  20767436.413    -2575891.875 3  -1930788.886 2
  18416953.702   -25662586.497 6 -19854605.537 6
  18033940.898   -20616161.255 6 -15967249.982 7
  16952802.444   -35247948.717 7 -27216517.396 8
  18474228.694   -21319703.448 6 -16433321.574 6
 95  2 18 20 41 59.9870000  0  8 28 18  2 16 29 31 19 27
  19704385.765   -17824785.905 5  -1755356.710 5
  16695079.749   -40302376.982 7
  19732490.773   -10191310.848 5  -7839025.428 5
  20751196.788    -2661196.836 3  -1997260.210 1
  18425544.882   -25617448.817 6 -19819433.410 6
  18022682.726   -20675310.765 6 -16013340.469 6
  16943601.148   -35296299.369 7 -27254193.208 8
  18455044.366   -21420522.013 6 -16511881.427 6
 95  2 18 20 42 29.9870000  0  8 28 18  2 16 29 31 19 27
  19705373.187   -17819609.582 5  -1751323.180 5
  16695243.007   -40301533.935 7 -31225859.615 8
  19710407.484   -10307351.468 5  -7929446.583 5
  20735065.366    -2746012.128 3  -2063349.992 2
  18434202.694   -25571951.542 6 -19783981.082 6
  18011536.796   -20733882.242 6 -16058980.532 7
  16934446.866   -35344414.457 7 -27291685.464 8
  18435871.601   -21521270.697 6 -16590386.845 6
 95  2 18 20 42 59.9870000  0  8 28 18  2 16 29 31 19 27
  19706457.148   -17813914.638 5  -1746885.522 5
  16695504.413   -40300159.621 7 -31224788.725 8
  19688366.796   -10423198.031 5  -8019716.531 5
  20719013.452    -2830345.430 3  -2129064.211 1
  18442922.937   -25526123.133 6 -19748270.712 6
  18000493.312   -20791898.478 6 -16104187.942 7
  16925336.991   -35392292.176 7 -27328992.757 8
  18416710.437   -21621972.029 6 -16668855.361 6
 95  2 18 20 43 29.9870000  0  8 28 18  2 16 29 31 19 27
  19707641.109   -17807707.279 5  -1742048.570 5
  16695859.905   -40298284.220 7 -31223327.378 8
  19666358.460   -10538821.348 5  -8109812.527 5
  20703056.687    -2914199.922 3  -2194405.294 2
  18451700.773   -25479984.626 6 -19712318.731 6
  17989560.546   -20849363.734 6 -16148966.009 7
  16916268.460   -35439948.145 7 -27366127.257 8
  18397559.859   -21722609.487 6 -16747274.098 6
 95  2 18 20 43 59.9870000  0  8 28 18  2 16 29 31 19 27
  19708919.663   -17800982.710 5  -1736808.590 5
  16696312.101   -40295904.974 7 -31221473.428 8
  19644402.171   -10654195.713 5  -8199714.554 5
  20687193.335    -2997569.354 3  -2259368.433 1
  18460541.976   -25433535.268 6 -19676124.516 6
  17978734.491   -20906269.586 6 -16193308.185 7
  16907237.062   -35487399.434 7 -27403102.260 8
  18378421.921   -21823168.424 6 -16825631.672 6
 95  2 18 20 44 29.9870000  0  8 28 18  2 16 29 31 19 27
  19710295.718   -17793743.648 5  -1731167.702 5
  16696861.210   -40293028.071 7 -31219231.689 8
  19622500.960   -10769310.056 5  -8289413.957 5
  20671425.116    -3080445.730 3  -2323947.376 2
  18469439.421   -25386772.557 6 -19639686.134 6
  17968010.851   -20962609.756 6 -16237209.567 7
  16898245.335   -35534663.357 7 -27439931.271 8
  18359303.835   -21923634.556 6 -16903916.911 6
 95  2 18 20 44 59.9870000  0  8 28 18  2 16 29 31 19 27
  19711772.202   -17785988.077 5  -1725124.331 5
  16697499.101   -40289663.402 7 -31216609.882 8
  19600648.687   -10884138.126 5  -8378890.306 5
  20655747.343    -3162827.151 3  -2388140.626 1
  18478399.140   -25339696.777 6 -19603003.794 6
  17957399.788   -21018359.687 6 -16280651.016 7
  16889284.046   -35581755.666 7 -27476626.559 8
  18340208.085   -22023980.700 6 -16982108.643 6
 95  2 18 20 45 29.9870000  0  8 28 18  2 16 29 31 19 27
  19713346.007   -17777720.962 5  -1718682.351 5
  16698232.319   -40285811.370 7 -31213608.299 8
  19578846.882   -10998695.280 5  -8468155.560 5
  20640166.444    -3244722.509 3  -2451955.126 2
  18487417.866   -25292306.967 6 -19566076.758 6
  17946906.890   -21073512.283 6 -16323627.013 7
  16880350.905   -35628694.272 7 -27513202.068 8
  18321135.179   -22124213.204 6 -17060211.833 6
 95  2 18 20 45 59.9870000  0  8 28 18  2 16 29 31 19 27
  19715011.413   -17768950.369 5  -1711848.074 5
  16699060.804   -40281462.164 7 -31210219.315 8
  19557090.835   -11113027.313 5  -8557245.399 5
  20624670.702    -3326143.058 3  -2515399.641 1
  18496494.976   -25244592.127 6 -19528896.444 6
  17936523.554   -21128073.937 6 -16366142.528 7
  16871448.015   -35675480.442 7 -27549658.800 8
  18302077.780   -22224358.511 6 -17138247.081 7
 95  2 18 20 46 29.9870000  0  8 28 18  2 16 29 31 19 27
  19716778.843   -17759680.270 5  -1704624.573 5
  16699983.882   -40276609.213 7 -31206437.808 8
  19535375.046   -11227154.016 5  -8646175.241 5
  20609262.085    -3407086.146 3  -2578472.159 2
  18505638.257   -25196554.904 6 -19491464.930 6
  17926251.890   -21182042.154 6 -16408195.624 7
  16862575.109   -35722107.026 7 -27585991.179 8
  18283037.273   -22324424.634 6 -17216220.618 7
 95  2 18 20 46 59.9870000  0  8 28 18  2 16 29 31 19 27
  19718641.624   -17749895.297 5  -1696999.880 5
  16701007.843   -40271231.112 7 -31202247.089 8
  19513696.991   -11341074.007 5  -8734944.025 5
  20593954.233    -3487539.848 3  -2641163.288 2
  18514841.179   -25148186.744 6 -19453775.541 6
  17916100.226   -21235401.297 6 -16449774.107 7
  16853740.444   -35768526.832 7 -27622162.426 8
  18264011.882   -22424397.596 6 -17294121.557 6
 95  2 18 20 47 29.9870000  0  8 28 18  2 16 29 31 19 27
  19720598.296   -17739609.676 5  -1688985.083 5
  16702131.140   -40265326.686 7 -31197646.248 8
  19492055.593   -11454802.819 5  -8823563.818 5
  20578737.374    -3567506.276 3  -2703474.715 2
  18524108.366   -25099492.451 6 -19415832.022 6
  17906056.515   -21288162.923 6 -16490886.988 7
  16844949.280   -35814733.750 7 -27658167.789 8
  18245000.444   -22524306.483 6 -17371972.567 7
 95  2 18 20 47 59.9870000  0  8 28 18  2 16 29 31 19 27
  19722652.429   -17728810.186 5  -1680569.871 5
  16703355.866   -40258884.506 7 -31192626.374 8
  19470453.491   -11568304.010 5  -8912006.257 5
  20563620.140    -3646958.266 3  -2765385.307 2
  18533441.054   -25050454.748 6 -19377620.906 6
  17896137.273   -21340302.910 6 -16531515.483 7
  16836201.726   -35860701.579 7 -27693986.847 8
  18226004.554   -22624125.474 6 -17449753.519 7
 95  2 18 20 48 29.9870000  0  8 28 18  2 16 29 31 19 27
  19724800.304   -17717514.666 5  -1671768.151 5
  16704679.148   -40251934.905 7 -31187211.116 8
  19448899.390   -11681570.061 5  -9000265.461 5
  20548591.874    -3725917.507 3  -2826911.935 2
  18542830.468   -25001108.584 6 -19339169.424 6
  17886331.913   -21391834.455 6 -16571669.860 7
  16827496.601   -35906438.580 7 -27729626.036 8
  18207027.773   -22723853.636 6 -17527463.696 7
 95  2 18 20 48 59.9870000  0  8 28 18  2 16 29 31 19 27
  19727040.749   -17705735.010 5  -1662589.199 5
  16706095.085   -40244501.304 7 -31181418.721 8
  19427393.476   -11794603.723 5  -9088343.562 5
  20533653.866    -3804394.416 4  -2888062.724 4
  18552275.554   -24951463.908 6 -19300485.355 6
  17876638.702   -21442765.396 6 -16611356.231 7
  16818835.155   -35951963.683 7 -27765100.112 8
  18188068.265   -22823485.647 6 -17605098.951 7
 95  2 18 20 49 29.9870000  0  8 28 18  2 16 29 31 19 27
  19729382.874   -17693461.713 5  -1653025.597 5
  16707600.452   -40236587.128 7 -31175251.842 8
  19405928.187   -11907390.309 5  -9176229.132 5
  20518819.960    -3882373.975 3  -2948825.979 2
  18561784.265   -24901501.359 6 -19261553.571 6
  17867064.226   -21493085.387 6 -16650566.537 7
  16810206.023   -35997301.012 7 -27800427.868 8
  18169130.749   -22923003.084 6 -17682644.919 7
 95  2 18 20 49 59.9870000  0  8 28 18  2 16 29 31 19 27
  19731812.827   -17680675.492 5  -1643062.326 5
  16709197.944   -40228188.054 7 -31168707.123 8
  19384514.765   -12019923.287 5  -9263917.065 5
  20504079.062    -3959848.104 3  -3009195.365 2
  18571354.640   -24851207.794 6 -19222363.861 6
  17857605.937   -21542794.697 6 -16689300.988 7
  16801615.710   -36042443.649 7 -27835603.922 8
  18150220.312   -23022374.396 6 -17760077.028 7
 95  2 18 20 50 29.9870000  0  8 28 18  2 16 29 31 19 27
  19734338.319   -17667389.318 5  -1632709.485 5
  16710886.116   -40219316.228 7 -31161794.030 8
  19363143.577   -12132234.162 5  -9351431.935 5
  20489426.101    -4036835.787 3  -3069185.706 3
  18580986.288   -24800599.867 6 -19182929.192 6
  17848254.390   -21591919.771 6 -16727580.193 7
  16793060.179   -36087409.686 7 -27870642.371 8
  18131333.812   -23121622.194 6 -17837412.901 7
 95  2 18 20 50 59.9870000  0  8 28 18  2 16 29 31 19 27
  19736961.812   -17653608.895 5  -1621971.508 5
  16712666.491   -40209964.978 7 -31154507.361 8
  19341811.694   -12244324.703 5  -9438775.104 5
  20474872.452    -4113325.520 3  -3128788.042 2
  18590677.999   -24749667.383 6 -19143241.626 6
  17839021.624   -21640463.603 6 -16765406.490 7
  16784532.694   -36132215.166 7 -27905555.699 8
  18112468.757   -23220764.456 6 -17914666.549 7
 95  2 18 20 51 29.9870000  0  8 28 18  2 16 29 31 19 27
  19739684.710   -17639305.479 5  -1610826.000 5
  16714545.335   -40200089.871 7 -31146812.486 8
  19320532.171   -12356154.403 5  -9525915.008 5
  20460421.694    -4189287.862 4  -3187979.420 2
  18600438.984   -24698376.431 6 -19103274.718 6
  17829897.710   -21688398.897 6 -16802758.603 7
  16776045.577   -36176812.789 7 -27940307.066 8
  18093624.999   -23319785.406 6 -17991825.662 7
 95  2 18 20 51 59.9870000  0  8 28 18  2 16 29 31 19 27
  19742494.718   -17624532.911 5  -1599314.929 5
  16716518.624   -40189726.301 7 -31138737.000 8
  19299294.405   -12467762.536 5  -9612882.245 5
  20446051.843    -4264769.486 4  -3246796.202 2
  18610258.851   -24646787.561 6 -19063075.681 6
  17820884.171   -21735767.468 6 -16839669.109 7
  16767595.374   -36221219.205 7 -27974909.445 8
  18074793.171   -23418738.335 6 -18068931.781 7
 95  2 18 20 52 29.9870000  0  8 28 18  2 16 29 31 19 27
  19745398.960   -17609264.416 5  -1587417.404 5
  16718589.444   -40178842.902 7 -31130256.456 8
  19278109.530   -12579092.292 5  -9699632.570 5
  20431786.624    -4339731.503 4  -3305208.091 3
  18620131.952   -24594874.909 6 -19022624.344 6
  17811985.390   -21782521.877 6 -16876101.052 7
  16759189.890   -36265395.225 7 -28009332.291 8
  18055982.476   -23517591.650 6 -18145960.286 7
 95  2 18 20 52 59.9870000  0  8 28 18  2 16 29 31 19 27
  19748399.335   -17593512.409 5  -1575143.109 5
  16720757.796   -40167448.411 7 -31121377.643 8
  19256974.913   -12690144.347 5  -9786166.476 5
  20417621.468    -4414182.442 4  -3363221.755 2
  18630071.780   -24542655.983 6 -18981934.342 6
  17803204.421   -21828667.196 6 -16912058.380 6
  16750824.562   -36309351.918 7 -28043584.240 8
  18037192.429   -23616343.245 6 -18222909.525 7
 95  2 18 20 53 29.9870000  0  8 28 18  2 16 29 31 19 27
  19751489.937   -17577282.361 5  -1562496.307 5
  16723020.913   -40155554.131 7 -31112109.391 8
  19235893.124   -12800933.249 5  -9872495.339 5
  20403545.312    -4488135.380 4  -3420847.384 2
  18640061.359   -24490149.871 6 -18941020.562 6
  17794538.679   -21874205.160 6 -16947542.445 6
  16742501.257   -36353098.788 7 -28077672.698 8
  18018419.710   -23714991.387 6 -18299778.154 7
 95  2 18 20 53 59.9870000  0  8 28 18  2 16 29 31 19 27
  19754672.968   -17560563.280 5  -1549468.426 5
  16725378.273   -40143164.105 7 -31102454.843 8
  19214863.257   -12911455.239 5  -9958616.210 5
  20389574.179    -4561580.454 4  -3478077.213 4
  18650108.929   -24437353.222 6 -18899880.402 5
  17785989.343   -21919125.868 6 -16982545.538 7
  16734213.577   -36396643.374 7 -28111603.525 8
  17999669.124   -23813526.596 6 -18376558.789 7
 95  2 18 20 54 29.9870000  0  8 28 18  2 16 29 31 19 27
  19757939.343   -17543359.273 5  -1536062.672 5
  16727828.851   -40130288.602 7 -31092422.005 8
  19193876.155   -13021728.017 5 -10044542.909 5
  20375692.429    -4634524.637 4  -3534916.773 4
  18660210.460   -24384272.014 6 -18858518.516 5
  17777559.093   -21963443.404 6 -17017078.630 7
  16725960.093   -36440018.887 7 -28145402.610 8
  17980936.710   -23911963.103 6 -18453262.525 7
 95  2 18 20 54 59.9870000  0  8 28 18  2 16 29 31 19 27
  19761307.218   -17525671.649 5  -1522280.102 5
  16730369.984   -40116929.735 7 -31082012.506 8
  19172934.655   -13131777.763 5 -10130295.828 6
  20361909.257    -4706972.572 4  -3591369.643 3
  18670365.155   -24330907.094 6 -18816935.544 5
  17769239.538   -22007161.952 6 -17051144.987 7
  16717736.007   -36483233.487 7 -28179076.311 8
  17962222.827   -24010315.511 6 -18529900.718 7
 95  2 18 20 55 29.9870000  0  8 28 18  2 16 29 31 19 27
  19764766.812   -17507509.736 5  -1508127.933 5
  16733001.413   -40103105.868 7 -31071240.684 8
  19152035.007   -13241607.904 5 -10215877.622 6
  20348211.046    -4778931.886 4  -3647441.775 3
  18680573.905   -24277263.298 6 -18775135.260 5
  17761030.616   -22050288.764 6
  16709545.233   -36526280.362 7 -28212619.320 8
  17943518.179   -24108600.113 6 -18606486.086 7
 95  2 18 20 55 59.9870000  0  8 28 18  2 16 29 31 19 27
  19768312.976   -17488868.052 5  -1493601.912 5
  16735723.257   -40088800.077 7 -31060093.333 8
  19131180.187   -13351208.489 5 -10301280.557 5
  20334610.898    -4850397.269 4  -3703129.012 2
  18690838.890   -24223332.114 6 -18733111.047 5
  17752937.733   -22092827.621 6
  16701391.624   -36569121.908 7 -28246002.333 8
  17924830.210   -24206806.406 6 -18683010.428 7
 95  2 18 20 56 29.9870000  0  8 28 18  2 16 29 31 19 27
  19771951.999   -17469747.668 5  -1478702.899 5
  16738539.780   -40074003.184 7 -31048563.304 8
  19110367.226   -13460585.055 5 -10386508.942 5
  20321107.648    -4921362.089 4  -3758426.223 3
  18701155.702   -24169111.868 6 -18690861.583 5
  17744952.984   -22134770.132 6        -0.30117
  16693282.507   -36611738.867 7 -28279210.338 8
  17906159.523   -24304921.755 6 -18759463.910 7
 95  2 18 20 56 59.9870000  0  8 28 18  2 16 29 31 19 27
  19775682.468   -17450145.603 5  -1463428.552 5
  16741449.421   -40058711.394 7 -31036647.644 8
  19089591.405   -13569736.851 5 -10471562.196 5
  20307699.476    -4991811.407 5  -3813321.727 4
  18711530.437   -24114589.922 6 -18648377.036 6
  17737092.476   -22176096.735 6    -32202.806 7
  16685219.218   -36654105.422 7 -28312223.225 8
  17887509.319   -24402928.882 6 -18835833.061 7
 95  2 18 20 57 29.9860000  0  8 28 18  2 16 29 31 19 27
  19779503.252   -17430069.205 5  -1447784.607 5
  16744454.604   -40042919.022 7 -31024341.919 8
  19068867.424   -13678655.246 5 -10556433.587 6
  20294396.307    -5061735.552 4  -3867808.010 4
  18721960.807   -24059772.898 6 -18605662.555 5
  17729344.713   -22216805.293 6    -63923.722 7
  16677205.346   -36696223.290 7 -28345042.315 8
  17868881.072   -24500826.552 6 -18912116.917 7
 95  2 18 20 57 59.9860000  0  8 28 18  2 16 29 31 19 27
  19783413.150   -17409519.663 5  -1431771.985 5
  16747556.041   -40026621.014 7 -31011642.187 8
  19048179.111   -13787361.436 5 -10641139.632 6
  20281189.010    -5131136.578 4  -3921886.662 3
  18732449.666   -24004661.461 6 -18562718.655 6
  17721715.486   -22256899.102 6    -95165.612 7
  16669234.635   -36738117.063 7 -28377686.802 8
  17850269.768   -24598619.761 6 -18988319.365 7
 95  2 18 20 58 29.9860000  0  8 28 18  2 16 29 31 19 27
  19787412.291   -17388495.661 5  -1415389.672 5
  16750749.065   -40009833.005 7 -30998560.638 8
  19027537.580   -13895846.821 5 -10725673.644 6
  20268077.072    -5200009.415 4  -3975553.750 4
  18742994.479   -23949250.032 6 -18519541.004 5
  17714203.846   -22296358.629 6   -125913.264 7
  16661300.815   -36779816.212 7 -28410179.621 8
  17831680.346   -24696311.167 6 -19064442.494 7
 95  2 18 20 58 59.9860000  0  8 28 18  2 16 29 31 19 27
  19791499.330   -17367009.136 5  -1398646.957 5
  16754034.252   -39992570.749 7 -30985109.550 8
  19006936.158   -14004103.138 5 -10810029.166 5
  20255072.330    -5268372.633 4  -4028823.722 4
  18753592.799   -23893556.036 6 -18476143.165 5
  17706813.158   -22335202.671 6   -156181.317 7
  16653397.752   -36821340.128 7 -28442535.902 8
  17813107.432   -24793919.719 6 -19140501.036 7
 95  2 18 20 59 29.9860000  0  8 28 18  2 16 29 31 19 27
  19795675.775   -17345054.057 5  -1381539.131 5
  16757411.916   -39974831.775 7 -30971286.993 8
  18986385.572   -14112094.721 6 -10894178.394 6
  20242158.854    -5336237.822 4  -4081705.617 2
  18764243.260   -23837578.359 5 -18432524.272 5
  17699536.650   -22373442.652 6   -185978.664 7
  16645532.619   -36862677.924 7 -28474747.149 8
  17794549.799   -24891429.080 6 -19216482.291 7
 95  2 18 20 59 59.9860000  0  8 28 18  2 16 29 31 19 27
  19799936.736   -17322653.675 5  -1364084.303 5
  16760869.502   -39956656.716 7 -30957124.620 8
  18965886.338   -14219836.154 5 -10978132.727 5
  20229334.908    -5403633.062 4  -4134221.336 3
  18774944.518   -23781336.042 5 -18388699.165 5
  17692365.775   -22411099.945 6   -215321.972 7
  16637695.979   -36903853.170 7 -28506831.732 8
  17776017.385   -24988845.423 6 -19292391.063 7
 95  2 18 21  0 29.9860000  0  8 28 18  2 16 29 31 19 27
  19804287.658   -17299810.348 5  -1346284.328 5
  16764409.627   -39938048.347 7 -30942624.603 8
  18945432.197   -14327306.167 5 -11061875.551 5
  20216600.861    -5470549.342 3  -4186363.841 3
  18785699.315   -23724841.231 6 -18344677.304 5
  17685316.057   -22448172.503 6   -244209.625 7
  16629895.854   -36944847.393 7 -28538775.253 8
  17757494.111   -25086164.504 6 -19368224.051 7
 95  2 18 21  0 59.9860000  0  8 28 18  2 16 29 31 19 27
  19808721.213   -17276512.601 5  -1328130.246 5
  16768038.822   -39918980.818 7 -30927766.807 8
  18925037.744   -14434486.491 5 -11145392.640 6
  20203959.213    -5536960.848 3  -4238113.017 3
  18796495.791   -23668081.050 5 -18300448.678 5
  17678375.236   -22484657.658 6   -272639.563 7
  16622133.119   -36985622.658 7 -28570548.166 8
  17738999.635   -25183346.402 6 -19443950.139 7
 95  2 18 21  1 29.9860000  0  8 28 18  2 16 29 31 19 27
  19813238.525   -17252764.902 5  -1309625.548 5
  16771753.760   -39899459.673 7 -30912555.539 8
  18904691.807   -14541395.219 5 -11228698.080 6
  20191418.010    -5602857.817 4  -4289461.238 3
  18807350.549   -23611053.868 5 -18256011.991 5
  17671543.815   -22520548.697 6   -300606.552 7
  16614413.596   -37026188.792 7 -28602158.110 8
  17720534.994   -25280382.981 6 -19519562.994 7
 95  2 18 21  1 59.9860000  0  8 28 18  2 16 29 31 19 27
  19817847.510   -17228559.060 5  -1290763.861 5
  16775558.244   -39879465.579 7 -30896975.741 8
  18884398.338   -14648053.586 6 -11311808.440 5
  20178987.190    -5668214.491 4  -4340388.463 2
  18818254.018   -23553757.256 5 -18211365.345 5
  17664829.213   -22555822.401 6   -328092.501 7
  16606738.432   -37066538.971 7 -28633599.779 8
  17702096.783   -25377271.546 6 -19595060.507 7
 95  2 18 21  2 29.9860000  0  8 28 18  2 16 29 31 19 27
  19822547.822   -17203852.982 5  -1271512.369 5
  16779464.799   -39858937.414 7 -30880979.777 8
  18864155.729   -14754428.246 6 -11394697.725 5
  20166655.377    -5732997.256 4  -4390868.490 4
  18829214.283   -23496157.916 5 -18166482.821 5
  17658244.854   -22590441.923 6   -355068.675 7
  16599108.182   -37106618.012 7 -28664830.184 8
  17683695.182   -25473974.797 6 -19670413.618 7
 95  2 18 21  2 59.9860000  0  8 28 18  2 16 29 31 19 27
  19827341.557   -17178660.765 5  -1251882.051 5
  16783471.322   -39837885.170 7 -30864575.437 8
  18843959.338   -14860545.919 6 -11477386.746 6
  20154428.244    -5797243.096 4  -4440930.142 3
  18840232.291   -23438258.506 5 -18121366.479 5
  17651777.182   -22624408.016 6   -381535.676 7
  16591530.729   -37146455.845 7 -28695872.626 8
  17665324.361   -25570517.823 6 -19745641.893 7
 95  2 18 21  3 29.9860000  0  8 28 18  2 16 29 31 19 27
  19832226.627   -17152992.909 5  -1231881.104 5
  16787576.729   -39816315.018 7 -30847767.532 8
  18823817.182   -14966410.707 6 -11559878.725 6
  20142302.775    -5860967.579 3  -4490585.508 3
  18851304.807   -23380078.719 5 -18076031.649 5
  17645440.947   -22657715.481 6   -407489.454 7
  16583990.182   -37186070.775 7 -28726741.381 8
  17646979.291   -25666926.146 6 -19820765.189 7
 95  2 18 21  3 59.9860000  0  8 28 18  2 16 29 31 19 27
  19837197.791   -17126865.345 5  -1211521.947 5
  16791777.096   -39794237.303 7 -30830564.120 8
  18803717.885   -15072016.842 6 -11642169.138 6
  20130277.674    -5924186.740 3  -4539847.143 4
  18862421.658   -23321640.928 5 -18030495.788 5
  17639226.471   -22690380.171 6   -432942.374 7
  16576495.963   -37225459.906 7 -28757434.179 8
  17628650.065   -25763232.903 6 -19895809.360 7
 95  2 18 21  4 29.9860000  0  8 28 18  2 16 29 31 19 27
  19842253.096   -17100294.467 5  -1190817.350 5
  16796069.565   -39771684.243 7 -30812990.307 8
  18783672.432   -15177354.827 6 -11724250.586 6
  20118340.807    -5986909.014 3  -4588721.574 2
  18873594.213   -23262954.220 5 -17984765.957 5
  17633129.166   -22722414.530 6   -457904.128 7
  16569038.744   -37264646.070 7 -28787968.819 8
  17610338.768   -25859463.290 6 -19970794.013 7
 95  2 18 21  4 59.9860000  0  8 28 18  2 16 29 31 19 27
  19847399.635   -17073269.277 5  -1169758.749 5
  16800450.713   -39748655.777 7 -30795046.047 8
  18763683.666   -15282401.363 6 -11806104.944 6
  20106501.533    -6049099.760 3  -4637181.858 2
  18884811.705   -23203988.609 5 -17938818.820 5
  17627154.924   -22753805.434 6   -482364.485 7
  16561621.283   -37303616.218 7 -28818335.148 8
  17592044.869   -25955596.229 7 -20045702.740 7
 95  2 18 21  5 29.9860000  0  8 28 18  2 16 29 31 19 27
  19852624.705   -17045791.193 5  -1148347.234 5
  16804922.729   -39725156.302 7 -30776734.765 8
  18743751.104   -15387146.347 6 -11887724.306 6
  20094775.447    -6110737.652 3  -4685211.335 3
  18896085.494   -23144739.974 5 -17892651.136 5
  17621302.541   -22784572.779 6   -506338.955 7
  16554251.869   -37342344.382 7 -28848512.914 8
  17573774.729   -26051605.829 6 -20120515.353 7
 95  2 18 21  5 59.9860000  0  8 28 18  2 16 29 31 19 27
  19857943.494   -17017859.307 5  -1126582.099 5
  16809482.065   -39701194.674 7 -30758063.366 8
  18723872.416   -15491598.544 6 -11969115.536 6
  20083150.471    -6171826.440 3  -4732812.935 4
  18907417.518   -23085198.579 5 -17846255.335 5
  17615562.307   -22814723.665 6   -529833.060 7
  16546931.182   -37380824.546 7 -28878497.431 8
  17555530.354   -26147489.085 7 -20195229.523 7
 95  2 18 21  6 29.9860000  0  8 28 18  2 16 29 31 19 27
  19863343.690   -16989482.264 5  -1104470.088 4
  16814128.549   -39676781.183 7 -30739039.865 8
  18704050.643   -15595785.138 6 -12050299.792 6
  20071632.025    -6232377.693 3  -4779995.694 4
  18918801.041   -23025371.921 5 -17799637.253 5
  17609942.815   -22844266.434 6   -552853.312 7
  16539649.229   -37419077.264 7 -28908304.726 8
  17537309.580   -26243235.265 7 -20269836.891 7
 95  2 18 21  6 59.9860000  0  8 28 18  2 16 29 31 19 27
  19868821.080   -16960687.074 5  -1082032.252 5
  16818856.893   -39651935.894 7 -30719679.900 8
  18684266.369   -15699742.454 6 -12131305.387 6
  20060203.479    -6292432.032 3  -4826791.235 2
  18930232.416   -22965300.123 5 -17752828.152 5
  17604431.315   -22873228.351 6   -575420.973 7
  16532413.166   -37457114.273 7 -28937943.935 8
  17519113.760   -26338852.189 7 -20344343.534 7
 95  2 18 21  7 29.9860000  0  8 28 18  2 16 29 31 19 27
  19874382.986   -16931459.647 5  -1059257.629 4
  16823666.322   -39626654.097 7 -30699979.810 8
  18664525.908   -15803475.759 6 -12212136.419 6
  20048866.799    -6351983.063 4  -4873194.604 2
  18941707.838   -22904995.186 5 -17705837.390 5
  17599035.541   -22901585.934 6   -597517.716 7
  16525216.822   -37494928.597 7 -28967409.614 8
  17500944.525   -26434328.503 7 -20418740.619 7
 95  2 18 21  7 59.9860000  0  8 28 18  2 16 29 31 19 27
  19880028.674   -16901802.998 5  -1036148.547 5
  16828559.072   -39600948.216 7 -30679949.249 8
  18644824.846   -15907005.231 6 -12292808.630 6
  20037632.471    -6411033.650 4  -4919207.999 2
  18953227.268   -22844466.778 5 -17658672.495 5
  17593752.838   -22929328.646 6   -619135.364 7
  16518060.658   -37532542.292 7 -28996718.970 8
  17482798.869   -26529682.800 7 -20493042.621 7
 95  2 18 21  8 29.9860000  0  8 28 18  2 16 29 31 19 27
  19885749.174   -16871720.472 5  -1012707.602 4
  16833529.322   -39574825.530 7 -30659593.912 8
  18625161.924   -16010333.512 6 -12373324.060 6
  20026489.877    -6469575.103 3  -4964824.664 3
  18964786.033   -22783719.917 5 -17611337.369 5
  17588593.596   -22956457.551 6   -640274.722 7
  16510939.572   -37569953.863 7 -29025870.823 8
  17464680.900   -26624904.206 7 -20567241.074 7
 95  2 18 21  8 59.9860000  0  8 28 18  2 16 29 31 19 27
  19891557.416   -16841203.957 5   -988928.494 4
  16838583.986   -39548264.521 7 -30638897.029 8
  18605542.627   -16113434.201 6 -12453662.150 6
  20015449.408    -6527593.407 4  -5010033.696 2
  18976391.697   -22722735.506 5 -17563817.149 5
  17583548.518   -22982967.836 6   -660932.050 7
  16503863.205   -37607142.549 7 -29054848.994 8
  17446587.565   -26719978.233 7 -20641324.679 8
 95  2 18 21  9 29.9860000  0  8 28 18  2 16 29 31 19 27
  19897448.182   -16810251.265 5   -964809.489 5
  16843726.166   -39521241.177 7 -30617839.891 8
  18585968.299   -16216293.497 6 -12533812.146 6
  20004512.322    -6585072.621 3  -5054822.674 2
  18988048.307   -22661487.184 5 -17516091.285 5
  17578622.986   -23008849.456 6   -681099.519 7
  16496828.822   -37644116.156 7 -29083659.585 8
  17428524.846   -26814912.217 7 -20715299.164 8
 95  2 18 21  9 59.9860000  0  8 28 18  2 16 29 31 19 27
  19903418.611   -16778871.709 5   -940357.910 4
  16848958.775   -39493740.333 7 -30596410.668 8
  18566445.619   -16318890.948 6 -12613758.107 6
  19993677.963    -6642021.954 3  -5099198.735 2
  18999753.408   -22599975.988 5 -17468160.586 5
  17573812.885   -23034120.599 6   -700791.300 7
  16489830.869   -37680883.875 7 -29112309.734 8
  17410480.604   -26909728.270 7 -20789181.751 8
 95  2 18 21 10 29.9860000  0  8 28 18  2 16 29 31 19 27
  19909474.041   -16747064.964 5   -915573.456 3
  16854287.697   -39465739.941 7 -30574592.193 8
  18546975.729   -16421198.389 6 -12693478.093 6
  19982937.705    -6698444.024 3  -5143163.949 2
  19011509.096   -22538208.447 5 -17420030.139 5
  17569119.338   -23058782.081 6   -720008.026 7
  16482876.182   -37717433.679 7 -29140790.084 8
  17392460.025   -27004422.047 7 -20862969.069 7
 95  2 18 21 10 59.9860000  0  8 28 18  2 16 29 31 19 27
  19915602.815   -16714845.235 5   -890467.216 3
  16859710.299   -39437244.679 7 -30552388.109 8
  18527562.025   -16523219.962 6 -12772975.318 6
  19972298.338    -6754355.115 3  -5186731.005 3
  19023307.658   -22476200.371 5 -17371712.256 5
  17564541.830   -23082837.798 6   -738752.730 7
  16475958.596   -37753786.493 7 -29169116.942 8
  17374459.643   -27099016.801 7 -20936679.211 8
 95  2 18 21 11 29.9860000  0  8 28 18  2 16 29 31 19 27
  19921810.572   -16682214.471 4   -865040.676 4
  16865223.775   -39408275.835 7 -30529814.995 8
  18508201.322   -16624964.777 6 -12852256.895 6
  19961760.533    -6809766.735 3  -5229908.852 2
  19035152.018   -22413963.368 5 -17323215.991 5
  17560077.416   -23106288.593 6   -757026.058 7
  16469076.760   -37789948.888 7 -29197295.412 8
  17356474.846   -27193518.096 7 -21010316.541 8
 95  2 18 21 11 59.9860000  0  8 28 18  2 16 29 31 19 27
  19928101.150   -16649167.113 4   -839289.536 4
  16870824.096   -39378841.054 7 -30506878.821 8
  18488894.127   -16726430.443 6 -12931320.958 6
  19951305.330    -6864675.941 3  -5272695.213 3
  19047033.150   -22351512.581 5 -17274553.144 5
  17555730.994   -23129141.389 6   -774833.419 7
  16462234.815   -37825899.677 7 -29225309.005 8
  17338515.416   -27287912.681 7 -21083870.714 7
 95  2 18 21 12 29.9860000  0  8 28 18  2 16 29 31 19 27
  19934468.104   -16615696.941 4   -813208.947 4
  16876513.565   -39348944.499 7 -30483582.813 8
  18469638.479   -16827619.630 6 -13010169.576 6
  19940952.877    -6919068.857 3  -5315079.263 4
  19058959.604   -22288838.686 5 -17225716.438 5
  17551500.549   -23151379.650 6   -792161.911 7
  16455435.799   -37861624.440 7 -29253146.465 8
  17320576.447   -27382176.288 7 -21157322.822 8
 95  2 18 21 12 59.9860000  0  8 28 18  2 16 29 31 19 27
  19940918.260   -16581820.042 4   -786811.413 4
  16882285.135   -39318613.640 7 -30459948.391 8
  18450428.447   -16928559.384 6 -13088823.838 6
  19930698.572    -6972953.180 3  -5357066.989 2
  19070929.635   -22225950.323 5 -17176712.606 4
  17547381.986   -23173022.704 6   -809026.607 7
  16448677.916   -37897138.627 7 -29280819.838 8
  17302663.908   -27476306.638 7 -21230671.101 8
 95  2 18 21 13 29.9860000  0  8 28 18  2 16 29 31 19 27
  19947446.783   -16547528.074 5   -760090.438 4
  16888140.893   -39287835.977 7 -30435965.806 8
  18431272.143   -17029234.161 6 -13167271.624 6
  19920547.393    -7026318.440 3  -5398650.299 4
  19082938.674   -22162845.734 5 -17127540.309 5
  17543375.721   -23194070.864 6   -825427.743 7
  16441965.393   -37932421.407 7 -29308312.904 8
  17284778.541   -27570289.917 7 -21303904.776 8
 95  2 18 21 13 59.9860000  0  8 28 18  2 16 29 31 19 27
  19954045.119   -16512833.233 5   -733055.548 4
  16894083.174   -39256617.940 7 -30411640.072 8
  18412163.041   -17129658.262 6 -13245524.070 6
  19910488.525    -7079158.374 3  -5439824.234 2
  19094986.065   -22099535.760 5 -17078207.960 5
  17539483.260   -23214524.691 6   -841365.758 7
  16435294.330   -37967479.702 7 -29335631.041 8
  17266921.244   -27664135.817 7 -21377031.415 8
 95  2 18 21 14 29.9860000  0  8 28 18  2 16 29 31 19 27
  19960722.955   -16477732.225 5   -705704.148 5
  16900106.791   -39224961.163 7 -30386972.464 8
  18393098.807   -17229829.394 6 -13323579.404 6
  19900536.604    -7131471.276 3  -5480587.513 3
  19107074.065   -22036005.401 5 -17028703.887 5
  17535704.057   -23234366.808 6   -856827.116 7
  16428665.713   -38002313.995 7 -29362774.629 8
  17249092.127   -27757828.928 7 -21450038.994 8
 95  2 18 21 14 59.9860000  0  8 28 18  2 16 29 31 19 27
  19967482.447   -16442221.935 5   -678033.819 5
  16906213.658   -39192864.213 7 -30361961.867 8
  18374085.557   -17329747.406 6 -13401437.501 6
  19890680.440    -7183266.813 3  -5520947.653 3
  19119207.385   -21972255.316 5 -16979028.602 4
  17532048.533   -23253589.587 6   -871805.876 7
  16422081.791   -38036906.170 7 -29389729.560 8
  17231294.291   -27851365.478 7 -21522924.579 8
 95  2 18 21 15 29.9860000  0  8 28 18  2 16 29 31 19 27
  19974318.752   -16406306.986 5   -650048.185 5
  16912405.752   -39160331.137 7 -30336611.437 8
  18355117.565   -17429422.141 6 -13479106.039 6
  19880928.510    -7234546.158 4  -5560905.559 2
  19131376.760   -21908285.833 5 -16929182.360 5
  17528507.416   -23272186.149 6   -886296.672 7
  16415547.565   -38071254.051 7 -29416494.126 8
  17213515.979   -27944776.919 7 -21595712.678 8
 95  2 18 21 15 59.9860000  0  8 28 18  2 16 29 31 19 27
  19981226.229   -16369996.590 5   -621754.379 4
  16918675.322   -39127385.517 7 -30310939.541 8
  18336192.783   -17528868.494 6 -13556596.622 6
  19871260.557    -7285302.660 3  -5600456.069 2
  19143594.135   -21844091.087 5 -16879160.579 5
  17525094.408   -23290148.376 6   -900293.185 7
  16409053.690   -38105362.098 7 -29443071.812 8
  17195762.361   -28038071.499 7 -21668409.718 8
 95  2 18 21 16 29.9860000  0  8 28 18  2 16 29 31 19 27
  19988207.713   -16333288.169 5   -593150.413 4
  16925023.955   -39094024.034 7 -30284943.591 7
  18317315.291   -17628068.238 6 -13633895.030 6
  19861700.174    -7335536.532 4  -5639599.325 2
  19155853.221   -21779662.209 5 -16828956.373 4
  17521794.158   -23307477.480 6   -913796.345 7
  16402611.174   -38139220.879 7 -29469455.271 8
  17178033.994   -28131242.335 7 -21741010.337 8
 95  2 18 21 16 59.9860000  0  8 28 18  2 16 29 31 19 27
  19995269.721   -16296189.422 5   -564242.284 4
  16931450.471   -39060246.265 7 -30258623.267 7
  18298484.908   -17727014.138 6 -13710995.649 6
  19852245.182    -7385239.075 4  -5678328.565 2
  19168156.111   -21715014.172 5 -16778581.401 4
  17518615.744   -23324185.572 6   -926815.609 7
  16396214.986   -38172843.274 7 -29495654.528 8
  17160324.299   -28224303.065 7 -21813525.159 8
 95  2 18 21 17 29.9860000  0  8 28 18  2 16 29 31 19 27
  20002403.940   -16258691.758 5   -535023.342 5
  16937959.471   -39026046.216 7 -30231973.894 8
  18279711.947   -17825683.391 6 -13787880.704 6
  19842887.666    -7434390.886 3  -5716628.634 4
  19180505.861   -21650136.292 5 -16728027.325 4
  17515555.635   -23340265.604 6   -939345.480 7
  16389859.682   -38206231.679 7 -29521671.461 8
  17142638.002   -28317239.165 7 -21885942.862 8
 95  2 18 21 17 59.9860000  0  8 28 18  2 16 29 31 19 27
  20009618.174   -16220804.692 5   -505500.948 4
  16944546.096   -38991432.447 7 -30205002.145 7
  18260990.041   -17924069.565 6 -13864545.173 6
  19833637.002    -7483021.676 4  -5754522.714 3
  19192887.807   -21585048.886 5 -16677309.986 4
  17512609.604   -23355738.320 6   -951402.122 7
  16383550.416   -38239395.686 7 -29547513.534 8
  17124981.572   -28410031.519 7 -21958248.555 8
 95  2 18 21 18 29.9850000  0  8 28 18  2 16 29 31 19 27
  20016899.286   -16182530.150 5   -475676.610 5
  16951215.263   -38956390.844 7 -30177697.022 7
  18242319.599   -18022169.769 6 -13940986.810 6
  19824478.419    -7531143.015 3  -5792019.851 3
  19205306.216   -21519771.193 5 -16626444.369 4
  17509777.950   -23370621.365 6   -962999.282 7
  16377281.177   -38272340.298 7 -29573184.648 8
  17107351.896   -28502672.575 7 -22030436.349 8
 95  2 18 21 18 59.9850000  0  8 28 18  2 16 29 31 19 27
  20024256.450   -16143871.554 5   -445553.000 5
  16957963.185   -38920919.298 7 -30150056.882 7
  18223704.747   -18120010.888 6 -14017226.580 6
  19815417.505    -7578763.402 3  -5829126.629 3
  19217767.396   -21454310.388 5 -16575436.073 4
  17507058.044   -23384917.196 6   -974138.869 7
  16371051.185   -38305073.769 7 -29598691.240 8
  17089749.810   -28595170.129 7 -22102512.326 8
 95  2 18 21 19 29.9850000  0  8 28 18  2 16 29 31 19 27
  20031684.825   -16104839.150 5   -415138.143 4
  16964791.989   -38885034.265 7 -30122094.542 7
  18205130.239   -18217611.128 6 -14093278.652 6
  19806451.247    -7625903.425 3  -5865859.087 3
  19230259.685   -21388666.818 5 -16524285.363 4
  17504446.021   -23398634.714 6   -984827.827 7
  16364865.864   -38337588.133 7 -29624027.096 8
  17072174.497   -28687526.216 7 -22174478.072 8
 95  2 18 21 19 59.9850000  0  8 28 18  2 16 29 31 19 27
  20039188.700   -16065418.954 5   -384421.096 5
  16971705.325   -38848710.238 7 -30093790.126 7
  18186603.989   -18314957.916 6 -14169133.224 6
  19797570.833    -7672545.151 4  -5902203.264 1
  19242788.427   -21322825.715 5 -16472980.724 4
  17501948.919   -23411762.587 6   -995057.318 7
  16358720.864   -38369869.295 7 -29649181.237 8
  17054631.317   -28779729.131 7 -22246324.453 8
 95  2 18 21 20 29.9850000  0  8 28 18  2 16 29 31 19 27
  20046761.560   -16025612.401 4   -353403.018 4
  16978702.232   -38811942.641 7 -30065140.073 7
  18168128.677   -18412052.259 6 -14244791.085 6
  19788798.575    -7718659.573 4  -5938136.567 3
  19255355.403   -21256782.992 5 -16421518.987 3
  17499563.911   -23424287.545 6  -1004817.000 7
  16352621.044   -38401917.917 7 -29674154.174 8
  17037117.661   -28871773.133 7 -22318047.007 8
 95  2 18 21 20 59.9850000  0  8 28 18  2 16 29 31 19 27
  20054408.052   -15985421.010 5   -322085.071 4
  16985781.052   -38774741.252 7 -30036152.008 7
  18149702.810   -18508884.558 6 -14320244.758 6
  19780119.950    -7764247.092 3  -5973659.295 2
  19267961.599   -21190532.276 5 -16369895.152 4
  17497299.817   -23436197.679 6  -1014097.604 7
  16346570.505   -38433725.577 7 -29698939.345 8
  17019629.614   -28963650.715 7 -22389639.879 8
 95  2 18 21 21 29.9850000  0  8 28 18  2 16 29 31 19 27
  20062128.013   -15944857.341 4   -290477.015 4
  16992940.427   -38737116.544 7 -30006834.082 7
  18131326.896   -18605450.069 6 -14395490.543 6
  19771544.224    -7809316.053 3  -6008777.954 2
  19280610.794   -21124085.679 5 -16318118.713 4
  17495147.771   -23447497.032 6  -1022902.276 7
  16340562.724   -38465299.100 7 -29723542.075 8
  17002176.669   -29055373.880 7 -22461112.434 8
 95  2 18 21 21 59.9850000  0  8 28 18  2 16 29 31 19 27
  20069920.685   -15903921.808 4   -258579.208 5
  17000181.317   -38699063.544 7 -29977182.424 7
  18113004.232   -18701739.759 6 -14470521.409 6
  19763072.380    -7853846.939 4  -6043477.342 2
  19293286.864   -21057461.262 5 -16266203.715 4
  17493120.294   -23458176.307 6  -1031223.766 7
  16334597.036   -38496641.108 7 -29747964.401 8
  16984752.505   -29146932.407 7 -22532456.681 8
 95  2 18 21 22 29.9850000  0  8 28 18  2 16 29 31 19 27
  20077777.521   -15862616.312 3   -226393.130 3
  17007501.607   -38660593.692 7 -29947205.939 7
  18094730.974   -18797753.404 6 -14545337.168 6
  19754700.122    -7897837.477 3  -6077755.669 3
  19305996.911   -20990663.809 5 -16214153.873 4
  17491202.552   -23468232.282 6  -1039059.566 7
  16328680.716   -38527737.002 7 -29772194.945 8
  16967363.583   -29238309.678 7 -22603659.702 8
 95  2 18 21 22 59.9850000  0  8 28 18  2 16 29 31 19 27
  20085708.716   -15820948.780 3   -193924.956 2
  17014898.122   -38621729.635 7 -29916922.283 7
  18076513.060   -18893491.834 6 -14619938.474 6
  19746429.888    -7941307.028 4  -6111628.030 2
  19318740.099   -20923700.244 5 -16161974.574 3
  17489406.458   -23477671.797 6  -1046415.003 7
  16322811.161   -38558581.643 7 -29796229.713 8
  16950006.380   -29329522.831 7 -22674734.844 8
 95  2 18 21 23 29.9850000  0  8 28 18  2 16 29 31 19 27
  20093711.755   -15778917.605 3   -161173.428 3
  17022368.153   -38582468.893 7 -29886329.525 7
  18058349.802   -18988951.282 6 -14694322.384 6
  19738255.466    -7984248.230 3  -6145088.693 2
  19331514.966   -20856561.417 5 -16109658.729 3
  17487726.802   -23486501.922 6  -1053295.598 7
  16316990.357   -38589170.071 7 -29820064.827 8
  16932681.232   -29420574.362 7 -22745684.040 8
 95  2 18 21 23 59.9850000  0  8 28 18  2 16 29 31 19 27
  20101778.732   -15736520.382 3   -128136.674 2
  17029914.880   -38542816.147 7 -29855431.307 7
  18040240.403   -19084123.746 6 -14768482.671 6
  19730184.513    -8026662.773 3  -6178138.963 2
  19344325.669   -20789242.131 5 -16057202.277 3
  17486161.317   -23494739.420 6  -1059714.401 7
  16311218.638   -38619497.867 7 -29843696.858 8
  16915385.872   -29511453.344 7 -22816498.798 8
 95  2 18 21 24 29.9850000  0  8 28 18  2 16 29 31 19 27
  20109905.091   -15693771.615 3    -94825.995 2
  17037531.692   -38502789.817 7 -29824241.980 7
  18022177.591   -19179019.822 6 -14842427.587 6
  19722210.513    -8068578.041 3  -6210800.208 2
  19357173.489   -20721734.241 5 -16004598.847 3
  17484700.692   -23502406.348 6  -1065688.601 7
  16305492.114   -38649586.068 7 -29867142.194 8
  16898122.739   -29602181.379 7 -22887195.920 8
 95  2 18 21 24 59.9850000  0  8 28 18  2 16 29 31 19 27
  20118104.513   -15650665.595 3    -61236.926 2
  17045225.192   -38462359.917 7 -29792738.184 7
  18004174.396   -19273645.091 6 -14916161.486 6
  19714327.247    -8109992.646 3  -6243071.325 2
  19370056.700   -20654024.365 4 -15951838.030 2
  17483350.169   -23509502.681 6  -1071218.192 7
  16299810.747   -38679446.622 7 -29890410.130 8
  16880883.458   -29692769.559 7 -22957784.074 8
 95  2 18 21 25 29.9850000  0  8 28 18  2 16 29 31 19 27
  20126382.700   -15607207.426 3    -27373.470 2
  17052998.614   -38421511.195 7 -29760908.028 7
  17986216.083   -19368012.505 6 -14989694.461 6
  19706540.200    -8150913.978 3  -6274958.041 2
  19382979.880   -20586112.655 4 -15898919.963 2
  17482104.263   -23516042.048 6  -1076313.772 7
  16294167.224   -38709107.214 7 -29913522.263 8
  16863671.794   -29783221.303 7 -23028265.917 8
 95  2 18 21 25 59.9850000  0  8 28 18  2 16 29 31 19 27
  20134725.263   -15563387.799 3      6771.627 1
  17060853.942   -38380232.145 7 -29728742.563 7
  17968308.075   -19462114.757 6 -15063020.813 6
  19698852.185    -8191330.250 3  -6306451.205 2
  19395943.489   -20517998.436 4 -15845844.067 3
  17480969.685   -23522000.166 6  -1080956.438 7
  16288562.544   -38738559.839 7 -29936472.343 8
  16846488.646   -29873519.801 7 -23098628.351 8
 95  2 18 21 26 29.9850000  0  8 28 18  2 16 29 31 19 27
  20143120.708   -15519225.260 3     41183.971 2
  17068787.903   -38338534.610 7 -29696250.998 7
  17950445.317   -19555977.883 6 -15136160.836 6
  19691253.942    -8231251.479 3  -6337558.640 3
  19408941.880   -20449702.803 4 -15792626.837 1
  17479951.294   -23527373.099 6  -1085143.111 6
  16282993.036   -38767820.534 7 -29959272.867 8
  16829332.341   -29963680.145 7 -23168883.130 8
 95  2 18 21 26 59.9850000  0  8 28 18  2 16 29 31 19 27
  20151595.435   -15474719.847 3     75863.454 2
  17076803.044   -38296422.573 7 -29663436.440 7
  17932632.732   -19649596.172 6 -15209110.075 7
  19683753.872    -8270683.858 3  -6368285.158 2
  19421966.060   -20381242.518 4 -15739281.282 3
  17479041.544   -23532147.923 6  -1088863.728 7
  16277464.825   -38796868.037 7 -29981907.272 8
  16812200.247   -30053698.619 7 -23239027.367 8
 95  2 18 21 27 29.9850000  0  8 28 18  2 16 29 31 19 27
  20160126.661   -15429888.793 3    110796.670 2
  17084884.489   -38253948.425 6 -29630339.719 7
  17914864.114   -19742961.584 6 -15281862.280 6
  19676336.130    -8309636.788 3  -6398638.072 3
  19435021.341   -20312647.502 5 -15685830.745 3
  17478247.622   -23536326.536 6  -1092119.766 7
  16271980.044   -38825690.462 7 -30004366.293 8
  16795096.794   -30143580.688 7 -23309065.317 8
 95  2 18 21 27 59.9850000  0  8 28 18  2 16 29 31 19 27
  20168716.083   -15384715.285 4    145996.721 1
  17093036.732   -38211099.442 6 -29596950.922 7
  17897148.341   -19836052.133 6 -15354400.298 7
  19669021.482    -8348078.273 3  -6428592.494 2
  19448104.583   -20243908.856 5 -15632268.311 3
  17477569.661   -23539875.608 6  -1094885.246 7
  16266549.880   -38854236.260 7 -30026609.766 8
  16778026.028   -30233294.523 7 -23378972.167 8
 95  2 18 21 28 29.9850000  0  8 28 18  2 16 29 31 19 27
  20177376.599   -15339201.032 3    181462.367 2
  17101262.630   -38167879.220 6 -29563272.845 7
  17879485.841   -19928867.492 6 -15426723.892 7
  19661803.935    -8386010.125 3  -6458149.757 1
  19461211.427   -20175025.667 5 -15578593.220 3
  17477012.505   -23542803.898 6  -1097167.008 7
  16261169.247   -38882504.348 7 -30048636.845 8
  16760986.591   -30322842.483 7 -23448749.773 8
 95  2 18 21 28 59.9850000  0  8 28 18  2 16 29 31 19 27
  20186109.247   -15293354.926 5    217186.531 1
  17109555.185   -38124304.789 6 -29529318.762 7
  17861874.388   -20021421.860 6 -15498844.105 7
  19654681.294    -8423435.453 3  -6487312.344 4
  19474340.380   -20106004.100 5 -15524810.332 3
  17476570.153   -23545126.844 6  -1098977.053 7
  16255843.747   -38910495.994 7 -30070448.514 8
  16743975.646   -30412232.684 7 -23518404.435 8
 95  2 18 21 29 29.9850000  0  8 28 18  2 16 29 31 19 27
  20194890.403   -15247178.100 5    253168.431 2
  17117917.817   -38080362.464 6 -29495078.009 7
  17844309.489   -20113724.018 6 -15570767.802 7
  19647660.630    -8460336.765 3  -6516066.595 2
  19487503.982   -20036835.475 5 -15470912.830 4
  17476240.310   -23546860.977 6  -1100328.292 7
  16250566.653   -38938219.893 7 -30092051.555 8
  16726994.997   -30501465.595 7 -23587936.537 8
 95  2 18 21 29 59.9850000  0  8 28 18  2 16 29 31 19 27
  20203744.794   -15200665.445 5    289411.995 3
  17126351.224   -38036033.622 6 -29460536.076 7
  17826791.482   -20205777.331 6 -15642497.587 7
  19640739.638    -8496712.114 3  -6544411.027 2
  19500701.583   -19967501.733 5 -15416886.698 4
  17476018.692   -23548020.003 6  -1101231.402 7
  16245339.911   -38965693.732 7 -30113459.739 8
  16710047.349   -30590530.607 7 -23657337.811 8
 95  2 18 21 30 29.9850000  0  8 28 18  2 16 29 31 19 27
  20212660.450   -15153820.232 5    325914.713 2
  17134859.497   -37991333.114 6 -29425704.534 7
  17809323.489   -20297583.224 6 -15714034.581 7
  19633911.575    -8532570.868 3  -6572352.907 2
  19513926.091   -19898002.471 5 -15362731.577 3
  17475904.263   -23548629.490 6  -1101706.299 7
  16240155.333   -38992938.999 7 -30134689.815 8
  16693127.896   -30679434.175 7 -23726613.278 8
 95  2 18 21 30 59.9850000  0  8 28 18  2 16 29 31 19 27
  20221634.388   -15106649.667 5    362670.946 5
  17143435.700   -37946261.663 6 -29390583.951 7
  17791898.732   -20389147.577 6 -15785383.361 7
  19627189.591    -8567918.482 3  -6599896.506 3
  19527181.450   -19828348.720 5 -15308456.056 3
  17475897.560   -23548693.057 6
  16235010.864   -39019963.831 7 -30155748.128 8
  16676238.989   -30768178.151 7 -23795764.391 8
 95  2 18 21 31 29.9850000  0  8 28 18  2 16 29 31 19 27
  20230673.239   -15059150.999 4    399682.834 4
  17152085.528   -37900802.168 6 -29355160.993 7
  17774526.661   -20480450.182 6 -15856528.181 7
  19620562.224    -8602755.369 3  -6627042.125 3
  19540466.716   -19758537.133 5 -15254057.549 2
  17475982.005   -23548217.543 6
  16229909.286   -39046770.593 7 -30176636.515 8
  16659385.771   -30856752.609 7 -23864783.408 8
 95  2 18 21 31 59.9850000  0  8 28 18  2 16 29 31 19 27
  20239769.232   -15011326.053 4    436948.981 4
  17160810.364   -37854959.514 6 -29319439.471 7
  17757199.872   -20571491.249 6 -15927469.207 7
  19614024.950    -8637093.279 3  -6653798.950 3
  19553779.286   -19688568.382 5 -15199536.598 2
  17476179.083   -23547182.438 6  -1100578.649 6
  16224852.833   -39073353.367 7 -30197350.356 8
  16642564.552   -30945143.273 7 -23933659.222 8
 95  2 18 21 32 29.9850000  0  7 18  2 16 29 31 19 27
  17169606.450   -37808736.299 6 -29283421.408 7
  17739921.942   -20662280.841 6 -15998214.269 7
  19607585.661    -8670941.103 3  -6680173.870 3
  19567123.021   -19618467.828 3 -15144912.942 4
  17476488.138   -23545577.077 6  -1099327.705 7
  16219838.607   -39099698.679 7 -30217879.162 8
  16625777.372   -31033363.862 7 -24002402.502 8
 95  2 18 21 32 59.9850000  0  7 18  2 16 29 31 19 27
  17178476.989   -37762121.261 6 -29247098.024 7
  17722696.942   -20752812.325 6 -16068758.214 7
  19601233.216    -8704301.151 3  -6706168.725 3
  19580483.653   -19548233.909 3 -15090185.359 2
  17476902.130   -23543380.995 6  -1097616.468 7
  16214873.568   -39125796.351 7 -30238215.004 8
  16609021.849   -31121405.267 7 -24071006.158 8
 95  2 18 21 33 29.9850000  0  7 18  2 16 29 31 19 27
  17187420.466   -37715123.517 6 -29210476.429 7
  17705515.192   -20843086.044 6 -16139101.301 7
  19594977.700    -8737181.642 3  -6731789.896 3
  19593878.974   -19477861.276 3 -15035349.736 2
  17477433.989   -23540593.484 6  -1095444.365 7
  16209954.372   -39151639.499 7 -30258352.507 8
  16592307.138   -31209261.169 7 -24139465.266 8
 95  2 18 21 33 59.9850000  0  7 18  2 16 29 31 19 27
  17196435.263   -37667751.136 6 -29173562.906 7
  17688390.216   -20933099.419 6 -16209241.520 7
  19588814.450    -8769576.794 3  -6757032.907 3
  19607292.294   -19407359.913 3 -14980413.753 2
  17478077.622   -23537196.090 6  -1092797.041 7
  16205088.528   -39177211.361 7 -30278278.612 8
  16575622.216   -31296925.280 7 -24207774.925 8
 95  2 18 21 34 29.9850000  0  7 18  2 16 29 31 19 27
  17205517.013   -37620015.933 6 -29136366.663 7
  17671307.099   -21022851.779 6 -16279178.347 7
  19582743.966    -8801482.279 3  -6781894.331 2
  19620730.349   -19336738.590 3 -14925384.285 2
  17478837.739   -23533204.268 6  -1089686.529 6
  16200272.942   -39202524.664 7 -30298003.251 8
  16558978.435   -31384397.901 7 -24275935.365 9
 95  2 18 21 34 59.9850000  0  7 18  2 16 29 31 19 27
  17214670.638   -37571919.109 6 -29098888.650 7
  17654282.364   -21112342.956 6 -16348911.667 7
  19576768.630    -8832886.024 4  -6806364.797 2
  19634193.060   -19265977.461 3 -14870245.887 2
  17479712.567   -23528624.747 6  -1086118.062 6
  16195502.099   -39227591.021 7 -30317535.451 8
  16542368.700   -31471668.835 7 -24343938.654 9
 95  2 18 21 35 29.9850000  0  7 18  2 16 29 31 19 27
  17223890.380   -37523470.494 6 -29061136.511 7
  17637298.083   -21201573.383 6 -16418441.792 7
  19570887.364    -8863782.661 3  -6830440.106 2
  19647683.138   -19195089.538 3 -14815008.677 1
  17480694.685   -23523461.777 6  -1082094.957 6
  16190781.638   -39252397.748 7 -30336865.344 8
  16525800.153   -31558746.022 7 -24411790.967 9
 95  2 18 21 35 59.9850000  0  7 18  2 16 29 31 19 27
  17233173.513   -37474680.384 6 -29023118.269 7
  17620368.747   -21290544.175 6 -16487769.620 7
  19565105.638    -8894167.068 3  -6854116.264 2
  19661195.278   -19124088.550 3 -14759683.367 2
  17481786.614   -23517722.019 6  -1077622.421 7
  16186105.099   -39276960.099 7 -30356004.813 8
  16509263.458   -31645642.598 7 -24479502.541 9
 95  2 18 21 36 29.9850000  0  7 18  2 16 29 31 19 27
  17242526.685   -37425543.146 6 -28984829.537 7
  17603489.489   -21379253.929 6 -16556894.032 7
  19559419.825    -8924038.122 3  -6877392.408 2
  19674734.341   -19052950.641 3 -14704251.396 1
  17482987.216   -23511406.501 6  -1072701.240 6
  16181477.927   -39301286.530 7 -30374960.442 8
  16492761.607   -31732360.816 7 -24547075.136 8
 95  2 18 21 36 59.9850000  0  7 18  2 16 29 31 19 27
  17251940.950   -37376065.717 6 -28946275.728 7
  17586655.146   -21467710.800 6 -16625821.400 7
  19553833.169    -8953421.700 3  -6900288.713 2
  19688291.552   -18981689.567 4 -14648723.442 1
  17484296.732   -23504530.728 6  -1067343.487 7
  16176895.364   -39325371.463 7 -30393727.891 8
  16476290.349   -31818922.844 7 -24614526.023 9
 95  2 18 21 37 29.9850000  0  7 18  2 16 29 31 19 27
  17261421.857   -37326247.353 6 -28907456.257 7
  17569872.083   -21555897.629 6 -16694538.353 7
  19548328.716    -8982327.101 3  -6922812.399 3
  19701879.107   -18910308.789 5 -14593102.187 1
  17485712.372   -23497090.219 6  -1061545.672 6
  16172360.458   -39349204.969 7 -30412299.429 8
  16459849.896   -31905321.834 7 -24681849.866 9
 95  2 18 21 37 59.9850000  0  7 18  2 16 29 31 19 27
  17270966.005   -37276079.315 6 -28868364.303 6
  17553141.435   -21643813.572 6 -16763044.219 7
  19542919.185    -9010763.172 3  -6944970.400 3
  19715488.153   -18838799.617 4 -14537380.931 1
  17487235.044   -23489087.688 6  -1055309.937 6
  16167869.114   -39372803.610 7 -30430687.952 8
  16443439.278   -31991558.042 7 -24749046.873 9
 95  2 18 21 38 29.9850000  0  7 18  2 16 29 31 19 27
  17280582.271   -37225559.746 6 -28828998.443 7
  17536462.638   -21731459.402 6 -16831339.606 7
  19537592.310    -9038740.502 3  -6966770.934 2
  19729118.857   -18767161.392 5 -14481559.103 1
  17488859.935   -23480541.580 6  -1048650.626 6
  16163428.669   -39396139.862 7 -30448872.019 8
  16427061.388   -32077625.772 7 -24816112.598 9
 95  2 18 21 38 59.9850000  0  7 18  2 16 29 31 19 27
  17290263.294   -37174681.710 6 -28789353.251 6
  17519837.591   -21818823.101 6 -16899415.159 7
  19532353.380    -9066255.003 3  -6988210.812 2
  19742775.130   -18695399.632 4 -14425640.970 1
  17490587.739   -23471447.380 6  -1041564.234 6
  16159041.271   -39419192.177 7 -30466834.835 8
  16410717.817   -32163515.617 7 -24883039.710 9
 95  2 18 21 39 29.9840000  0  7 18  2 16 29 31 19 27
  17300008.961   -37123463.982 6 -28749443.361 7
  17503265.969   -21905916.074 6 -16967279.754 7
  19527213.844    -9093296.962 3  -7009282.499 3
  19756454.922   -18623527.644 4 -14369637.022 2
  17492422.672   -23461818.810 6  -1034061.447 6
  16154707.609   -39441973.354 7 -30484586.378 8
  16394406.328   -32249232.964 7 -24949832.409 9
 95  2 18 21 39 59.9840000  0  7 18  2 16 29 31 19 27
  17309822.031   -37071898.923 6 -28709262.825 7
  17486742.031   -21992749.862 6 -17034942.394 7
  19522160.586    -9119853.682 4  -7029976.055 2
  19770151.281   -18551538.708 4 -14313541.924 2
  17494355.297   -23451661.270 6  -1026146.479 6
  16150424.711   -39464471.943 7 -30502117.729 8
  16378124.930   -32334779.495 7 -25016492.005 9
 95  2 18 21 40 29.9840000  0  7 18  2 16 29 31 19 27
  17319699.688   -37019996.205 6 -28668819.179 6
  17470266.774   -22079333.936 6 -17102410.450 7
  19517198.680    -9145914.514 3  -7050283.181 3
  19783870.813   -18479432.310 3 -14257355.308 2
  17496388.500   -23440982.463 6  -1017825.339 6
  16146197.563   -39486686.770 7 -30519427.967 8
  16361882.242   -32420135.960 7 -25083003.501 9
 95  2 18 21 40 59.9840000  0  7 18  2 16 29 31 19 27
  17329640.375   -36967750.310 6 -28628108.124 6
  17453837.594   -22165669.471 6 -17169684.839 7
  19512336.305    -9171465.291 3  -7070192.899 3
  19797612.102   -18407210.051 3 -14201078.423 2
  17498524.149   -23429759.775 6  -1009080.386 6
  16142021.336   -39508641.776 7 -30536535.753 8
  16345678.750   -32505288.442 7 -25149356.047 9
 95  2 18 21 41 29.9840000  0  7 18  2 16 29 31 19 27
  17339647.883   -36915162.086 6 -28587130.313 6
  17437452.219   -22251765.760 6 -17236772.807 7
  19507567.250    -9196505.909 3  -7089705.080 4
  19811378.656   -18334880.574 2 -14144717.996 2
  17500762.055   -23417990.433 6   -999909.479 6
  16137888.047   -39530350.465 7 -30553451.608 8
  16329516.305   -32590229.231 7 -25215543.643 9
 95  2 18 21 41 59.9840000  0  7 18  2 16 29 31 19 27
  17349718.859   -36862231.213 6 -28545885.509 6
  17421114.734   -22337623.629 6 -17303674.990 7
  19502898.102    -9221045.929 3  -7108827.182 4
  19825164.024   -18262454.023 3 -14088281.962 3
  17503109.922   -23405659.600 6   -990301.053 6
  16133804.133   -39551814.360 7 -30570176.712 8
  16313393.094   -32674949.018 7 -25281559.037 9
 95  2 18 21 42 29.9840000  0  7 18  2 16 29 31 19 27
  17359854.531   -36808966.894 6 -28504380.882 6
  17404825.445   -22423234.594 6 -17370384.793 7
  19498329.055    -9245087.414 4  -7127560.814 2
  19838958.930   -18189936.608 2 -14031775.101 2
  17505564.344   -23392752.614 6   -980243.672 6
  16129765.742   -39573035.735 7 -30586712.844 8
  16297313.789   -32759440.687 7 -25347396.659 9
 95  2 18 21 42 59.9840000  0  7 18  2 16 29 31 19 27
  17370054.024   -36755367.622 6 -28462615.247 6
  17388583.813   -22508576.560 6 -17436884.979 7
  19493843.906    -9268640.182 4  -7145913.610 3
  19852772.586   -18117342.477 2 -13975208.523 2
  17508132.891   -23379265.178 6   -969733.995 6
  16125777.133   -39593995.734 7 -30603045.309 8
  16281278.477   -32843712.358 7 -25413062.864 9
 95  2 18 21 43 29.9840000  0  7 18  2 16 29 31 19 27
  17380313.695   -36701456.601 6 -28420606.694 6
  17372394.078   -22593649.931 6 -17503175.869 7
  19489453.102    -9291724.173 4  -7163901.138 3
  19866606.250   -18044670.355 3 -13918581.119 2
  17510806.164   -23365213.361 6   -958784.535 6
  16121841.094   -39614686.615 7 -30619168.069 8
  16265282.313   -32927775.741 7 -25478566.777 9
 95  2 18 21 43 59.9840000  0  7 18  2 16 29 31 19 27
  17390631.149   -36647246.485 6 -28378365.085 6
  17356259.594   -22678447.935 6 -17569252.194 7
  19485150.180    -9314347.204 4  -7181529.489 4
  19880448.172   -17971919.107 3 -13861892.083 2
  17513586.250   -23350613.250 6   -947407.835 6
  16117953.203   -39635105.906 7 -30635079.203 8
  16249324.836   -33011627.119 7 -25543905.485 9
 95  2 18 21 44 29.9840000  0  7 18  2 16 29 31 19 27
  17401001.609   -36592747.990 6 -28335898.764 6
  17340172.219   -22762974.990 6 -17635117.388 7
  19480926.438    -9336523.473 4  -7198809.698 3
  19894308.859   -17899094.041 2 -13805145.518 1
  17516464.516   -23335490.995 6   -935624.274 6
  16114116.953   -39655268.589 7 -30650790.385 8
  16233407.469   -33095281.289 7 -25609090.530 8
 95  2 18 21 44 59.9840000  0  7 18  2 16 29 31 19 27
  17411429.922   -36537944.551 6 -28293194.826 6
  17324139.781   -22847235.034 6 -17700774.521 7
  19476792.602    -9358259.568 4  -7215746.943 2
  19908179.063   -17826194.120 3 -13748340.628 2
  17519440.149   -23319847.066 6   -923434.205 6
  16110328.555   -39675172.969 7 -30666300.288 8
  16217524.883   -33178737.732 7 -25674121.502 8
 95  2 18 21 45 29.9840000  0  7 18  2 16 29 31 19 27
  17421917.805   -36482830.317 6 -28250248.714 6
  17308154.664   -22931230.711 6 -17766225.642 7
  19472742.430    -9379551.086 4  -7232337.738 4
  19922069.141   -17753216.944 3 -13691475.565 1
  17522517.195   -23303676.376 6   -910833.672 6
  16106590.219   -39694825.729 7 -30681614.125 8
  16201683.359   -33261993.352 7 -25738995.991 9
 95  2 18 21 45 59.9840000  0  7 18  2 16 29 31 19 27
  17432469.430   -36427379.770 6 -28207040.543 6
  17292223.961   -23014959.361 6 -17831468.695 7
  19468777.781    -9400382.897 4  -7248570.356 4
  19935967.234   -17680169.587 4 -13634555.821 1
  17525695.422   -23286976.546 6   -897820.817 6
  16102899.711   -39714220.592 7 -30696727.000 8
  16185877.719   -33345041.844 7 -25803709.071 9
 95  2 18 21 46 29.9840000  0  7 18  2 16 29 31 19 27
  17443088.125   -36371576.913 6 -28163557.844 6
  17276338.680   -23098415.109 6 -17896499.092 7
  19464899.477    -9420745.395 4  -7264437.235 3
  19949886.352   -17607041.621 3 -13577573.237 1
  17528975.680   -23269736.940 6   -884387.355 6
  16099260.906   -39733343.510 7 -30711627.970 8
  16170114.992   -33427890.415 7 -25868266.379 9
 95  2 18 21 46 59.9840000  0  8  7 18  2 16 29 31 19 27
  19838116.875          -0.74814
  17453773.289   -36315420.811 6 -28119799.889 6
  17260513.438   -23181594.922 6 -17961314.478 7
  19461116.313    -9440631.255 4  -7279932.748 2
  19963817.383   -17533821.342 3 -13520518.777 1
  17532359.609   -23251955.660 6   -870531.812 6
  16095677.484   -39752174.399 7 -30726301.382 8
  16154387.625   -33510526.214 7 -25932657.882 8
 95  2 18 21 47 29.9840000  0  8  7 18  2 16 29 31 19 27
  19810334.516     -146008.536 3        -0.33311
  17464523.781   -36258934.855 6 -28075784.913 6
  17244733.313   -23264519.036 6 -18025930.612 7
  19457425.461    -9460048.772 4  -7295063.281 4
  19977773.672   -17460512.654 3
  17535842.750   -23233656.711 6   -856272.877 6
  16092146.539   -39770722.473 7 -30740754.416 8
  16138701.641   -33592956.793 7 -25996889.479 9
 95  2 18 21 47 59.9840000  0  7  7 18  2 16 31 19 27
  19782551.141     -292023.763 3   -113778.245 1
  17475333.891   -36202127.685 6 -28031519.640 6
  17228998.367   -23347197.773 6 -18090355.538 7
  19453820.297    -9478989.137 4  -7309822.022 5
  17539422.188   -23214839.701 6   -841610.269 6
  16088674.289   -39788978.004 7 -30754979.490 8
  16123057.547   -33675175.094 7 -26060955.663 9
 95  2 18 21 48 29.9840000  0  7  7 18  2 16 31 19 27
  19754763.906     -438053.797 3   -227567.750 1
  17486195.375   -36145045.203 6 -27987039.835 6
  17213308.500   -23429649.911 6 -18154603.898 7
  19450300.805    -9497478.628 4  -7324229.455 2
  17543099.125   -23195516.856 6   -826553.483 6
  16085251.234   -39806966.052 7 -30768996.139 8
  16107446.742   -33757202.937 7 -26124873.434 9
 95  2 18 21 48 59.9840000  0  7  7 18  2 16 31 19 27
  19726975.445     -584074.545 3   -341350.012 2
  17497107.695   -36087704.410 6 -27942358.761 6
  17197662.070   -23511882.160 6 -18218680.909 7
  19446866.125    -9515513.442 4  -7338282.559 2
  17546873.086   -23175687.089 6   -811101.701 6
  16081876.805   -39824693.311 7 -30782809.568 8
  16091875.109   -33839030.290 7 -26188634.972 9
 95  2 18 21 49 29.9840000  0  7  7 18  2 16 31 19 27
  19699197.953     -730070.736 3   -455113.078 1
  17508069.766   -36030107.373 6 -27897478.008 6
  17182056.672   -23593884.717 6 -18282578.950 7
  19443531.781    -9533090.049 5
  17550745.024   -23155331.317 6   -795240.043 6
  16078550.149   -39842174.579 7
  16076343.406   -33920651.293 7 -26252235.721 9
 95  2 18 21 49 59.9840000  0  7  7 18  2 16 31 19 27
  19671414.383     -876033.827 3   -568850.403 1
  17519077.828   -35972260.211 6 -27852402.351 6
  17166497.133   -23675636.960 6 -18346281.935 7
  19440268.000    -9550201.947 4
  17554721.000   -23134441.729 6   -778962.423 6
  16075268.305   -39859414.332 7 -30809864.867 8
  16060851.625   -34002062.218 7 -26315672.767 9
 95  2 18 21 50 29.9840000  0  7  7 18  2 16 31 19 27
  19643642.797    -1021964.810 3   -682562.659 1
  17530136.711   -35914147.802 6 -27807120.008 6
  17150992.867   -23757112.693 6 -18409769.461 7
  19437099.805    -9566843.041 4
  17558800.656   -23113009.914 6   -762262.281 6
  16072037.024   -39876404.098 7 -30823103.622 8
  16045404.289   -34083243.610 7 -26378930.960 8
 95  2 18 21 50 59.9840000  0  7  7 18  2 16 31 19 27
  19615883.758    -1167854.152 3   -796242.494 2
  17541249.086   -35855738.437 6 -27761606.270 6
  17135545.016   -23838302.921 6 -18473034.526 7
  19434028.078    -9583000.623 4        -0.07812
  17562980.922   -23091033.710 6   -745137.950 6
  16068856.156   -39893122.016 7 -30836130.548 8
  16030004.203   -34164166.918 7 -26441988.049 9
 95  2 18 21 51 29.9840000  0  7  7 18  2 16 31 19 27
  19588126.688    -1313731.002 3   -909912.577 2
  17552420.547   -35797046.930 6 -27715872.680 6
  17120146.320   -23919234.613 6 -18536098.133 7
  19431030.828    -9598710.216 4    -12241.339 2
  17567260.742   -23068544.203 6   -727613.637 6
  16065724.117   -39909582.555 7 -30848956.922 8
  16014648.953   -34244855.935 7 -26504862.575 9
 95  2 18 21 51 59.9840000  0  7  7 18  2 16 31 19 27
  19560372.664    -1459576.443 3  -1023558.151 2
  17563643.609   -35738058.724 6 -27669907.899 6
  17104793.219   -23999911.478 6 -18598963.168 7
  19428133.180    -9613960.739 4    -24124.873 1
  17571638.250   -23045549.169 6   -709695.395 6
  16062645.008   -39925755.468 7 -30861559.162 8
  15999338.758   -34325304.642 7 -26567549.851 9
 95  2 18 21 52 29.9840000  0  7  7 18  2 16 31 19 27
  19532622.359    -1605383.149 2  -1137173.534 4
  17574925.422   -35678774.163 6 -27623712.194 6
  17089484.734   -24080352.976 6 -18661644.815 7
  19425319.703    -9628767.045 4    -35662.275 2
  17576105.117   -23022059.598 6   -691391.816 6
  16059622.149   -39941637.035 7 -30873934.387 8
  15984074.055   -34405522.293 7 -26630057.088 9
 95  2 18 21 52 59.9840000  0  7  7 18  2 16 31 19 27
  19504890.586    -1751137.995 3  -1250748.434 2
  17586263.250   -35619197.272 6 -27577288.698 6
  17074217.117   -24160571.964 6 -18724153.075 7
  19422579.445    -9643134.158 4    -46857.478 2
  17580671.938   -22998073.003 6   -672700.948 6
  16056654.734   -39957228.948 7 -30886083.910 8
  15968852.438   -34485516.905 7 -26692390.529 9
 95  2 18 21 53 29.9840000  0  7  7 18  2 16 31 19 27
  19477164.922    -1896835.999 3  -1364279.043 1
  17597654.063   -35559328.110 6 -27530637.451 6
  17058997.531   -24240550.583 6 -18786474.039 7
  19419938.336    -9657047.465 4    -57699.030 2
  17585330.836   -22973583.605 6   -653618.288 6
  16053744.125   -39972531.249 7 -30898007.768 8
  15953675.914   -34565286.134 7 -26754548.351 9
 95  2 18 21 53 59.9840000  0  7  7 18  2 16 31 19 27
  19449442.813    -2042497.774 3  -1477781.394 2
  17609099.227   -35499180.202 6 -27483769.008 6
  17043824.117   -24320286.707 6
  19417367.930    -9670520.352 4    -68197.388 2
  17590088.672   -22948596.235 6   -634147.604 6
  16050884.875   -39987562.963 7 -30909720.780 8
  15938535.977   -34644842.939 7
 95  2 18 21 54 29.9840000  0  7  7 18  2 16 31 19 27
  19421732.711    -2188130.232 4  -1591260.842 3
  17620599.617   -35438749.922 6 -27436680.531 6
  17028700.774   -24399772.192 6
  19414887.570    -9683566.127 4    -78362.938 1
  17594938.555   -22923104.865 6   -614284.206 6
  16048073.164   -40002335.258 7 -30921231.649 8
  15923438.477   -34724178.373 7
 95  2 18 21 54 59.9840000  0  7  7 18  2 16 31 19 27
  19394020.000    -2333741.330 4  -1704723.643 2
  17632155.383   -35378034.402 6 -27389369.795 6
  17013623.969   -24479000.037 6
  19412488.750    -9696185.354 4    -88196.147 3
  17599881.102   -22897120.349 6   -594036.539 6
  16045310.383   -40016852.138 7 -30932543.500 8
  15908381.930   -34803288.677 7
 95  2 18 21 55 29.9840000  0  7  7 18  2 16 31 19 27
  19366320.125    -2479327.519 4  -1818166.992 2
  17643759.539   -35317044.981 6 -27341845.621 6
  16998599.688   -24557965.425 6
  19410170.805    -9708377.779 4    -97696.745 2
  17604918.274   -22870656.878 6   -573415.656 6
  16042595.672   -40031112.479 7 -30943655.449 8
  15893370.977   -34882177.647 7
 95  2 18 21 55 59.9840000  0  7  7 18  2 16 31 19 27
  19338614.203    -2624885.918 4  -1931588.685 1
  17655414.359   -35255801.806 6 -27294123.721 6
  16983616.195   -24636697.031 6
  19407924.844    -9720169.653 3   -106885.244 1
  17610044.922   -22843722.388 6   -552427.758 6
  16039930.875   -40045120.812 7 -30954571.032 8
  15878397.297   -34960862.419 7
 95  2 18 21 56 29.9840000  0  7  7 18  2 16 31 19 27
  19310928.453    -2770388.249 3  -2044966.664 2
  17667118.461   -35194294.302 6 -27246195.845 6
  16968678.117   -24715183.585 6
  19405762.227    -9731541.499 3   -115746.459 2
  17615259.492   -22816309.687 6   -531067.223 6
  16037315.445   -40058860.506 7 -30965277.286 8
  15863470.539   -35039316.493 7
 95  2 18 21 56 59.9840000  0  7  7 18  2 16 31 19 27
  19283253.906    -2915823.619 4  -2158292.466 2
  17678871.078   -35132535.171 6 -27198071.904 6
  16953794.399   -24793413.398 6
  19403674.047    -9742474.086 3   -124265.411 1
  17620568.086   -22788418.109 6   -509333.539 6
  16034757.016   -40072314.246 7 -30975760.717 8
  15848583.289   -35117544.164 7 -27184879.217 8
 95  2 18 21 57 29.9840000  0  7  7 18  2 16 31 19 27
  19255595.734    -3061174.169 3  -2271552.191 3
  17690672.047   -35070513.765 6 -27149743.604 6
  16938962.078   -24871363.537 6
  19401682.680    -9752951.916 3   -132429.947 3
  17625973.766   -22760009.105 6   -487196.661 6
  16032256.422   -40085454.457 7 -30985999.846 8
  15833742.399   -35195519.032 7
 95  2 18 21 57 59.9840000  0  7  7 18  2 16 31 19 27
  19227942.711    -3206457.038 3  -2384759.206 2
  17702524.938   -35008230.461 6 -27101211.220 6
  16924178.344   -24949038.955 6
  19399775.820    -9762992.137 3   -140253.545 2
  17631479.649   -22731082.926 6   -464656.795 6
  16029813.289   -40098286.183 7 -30995998.589 8
  15818958.047   -35273223.899 7
 95  2 18 21 58 29.9840000  0  7  7 18  2 16 31 19 27
  19200312.734    -3351683.013 3  -2497921.900 1
  17714427.469   -34945689.627 6 -27052478.160 6
  16909451.164   -25026432.685 7
  19397947.164    -9772600.291 3   -147740.458 2
  17637076.484   -22701662.646 6   -441731.921 6
  16027429.609   -40110817.404 7 -31005763.177 8
  15804222.133   -35350654.909 7
 95  2 18 21 58 59.9840000  0  7  7 18  2 16 31 19 27
  19172683.836    -3496859.384 3  -2611045.943 2
  17726376.492   -34882897.472 6 -27003549.271 6
  16894776.203   -25103554.032 6
  19396201.266    -9781779.401 3   -154893.043 1
  17642764.906   -22671766.049 6   -418435.888 6
  16025101.789   -40123044.671 7 -31015290.926 8
  15789538.805   -35427819.809 7
 95  2 18 21 59 29.9840000  0  7  7 18  2 16 31 19 27
  19145071.438    -3641986.657 3  -2724131.769 2
  17738375.656   -34819845.683 6 -26954418.062 6
  16880147.078   -25180418.927 7
  19394531.899    -9790545.122 3   -161723.507 2
  17648545.641   -22641393.768 6   -394769.200 6
  16022832.547   -40134978.038 7 -31024589.653 8
  15774908.875   -35504698.169 7 -27486557.583 7
 95  2 18 21 59 59.9840000  0  7  7 18  2 16 31 19 27
  19117462.750    -3787055.039 3  -2837171.680 2
  17750420.234   -34756543.169 6 -26905091.496 6
  16865565.664   -25257038.778 7
  19392943.024    -9798894.292 3   -168229.414 2
  17654410.820   -22610575.701 6   -370755.144 6
  16020615.656   -40146627.985 7 -31033667.544 8
  15760334.070   -35581295.725 7
 95  2 18 22  0 29.9830000  0  7  7 18  2 16 31 19 27
  19089868.534    -3932063.469 4  -2950164.917 2
  17762511.636   -34693005.593 6 -26855581.763 6
  16851035.042   -25333416.095 7
  19391434.355    -9806820.188 3   -174405.470 1
  17660356.456   -22579326.912 6   -346405.465 6
  16018451.605   -40158001.498 7 -31042530.021 8
  15745805.136   -35657639.265 7
 95  2 18 22  0 59.9830000  0  7  7 18  2 16 31 19 27
  19062287.948    -4077006.730 4  -3063107.399 3
  17774649.964   -34629224.383 6 -26805882.189 6
  16836545.987   -25409549.083 7
  19390008.487    -9814321.986 3   -180251.038 1
  17666392.487   -22547607.607 6   -321689.147 6
  16016341.284   -40169089.204 7 -31051169.794 8
  15731326.191   -35733733.579 7
 95  2 18 22  1 29.9830000  0  7  7 18  2 16 31 19 27
  19034717.651    -4221872.970 4  -3175989.886 3
  17786829.706   -34565217.590 6 -26756006.843 6
  16822110.464   -25485436.362 6
  19388653.417    -9821418.584 3   -185780.933 1
  17672518.112   -22515412.105 6   -296601.777 6
  16014282.323   -40179908.118 7 -31059600.111 8
  15716887.355   -35809590.969 7
 95  2 18 22  1 59.9830000  0  7  7 18  2 16 31 19 27
  19007167.175    -4366648.785 4  -3288801.912 2
  17799051.425   -34500989.346 6 -26705958.923 6
  16807713.566   -25561062.660 7
  19387386.402    -9828108.928 3   -190994.197 1
  17678735.308   -22482743.291 6   -271145.585 6
  16012274.308   -40190451.823 7 -31067815.991 8
  15702494.816   -35885233.450 7
 95  2 18 22  2 29.9830000  0  7  7 18  2 16 31 19 27
  18979634.105    -4511330.727 4  -3401540.793 3
  17811314.987   -34436538.791 6 -26655737.779 5
  16793372.636   -25636425.665 7
  19386179.823    -9834406.207 3   -195901.212 2
  17685047.628   -22449579.686 6   -245303.853 6
  16010322.323   -40200713.731 7 -31075812.282 8
  15688141.886   -35960664.400 7
 95  2 18 22  2 59.9830000  0  7  7 18  2 16 31 19 27
  18952122.644    -4655903.808 4  -3514194.880 3
  17823624.081   -34371864.145 6 -26605342.010 6
  16779079.066   -25711540.299 7
  19385062.034    -9840322.561 3   -200511.392 2
  17691449.480   -22415925.189 6   -219079.594 6
  16008421.620   -40210704.468 7 -31083597.274 8
  15673829.745   -36035875.959 7
 95  2 18 22  3 29.9830000  0  7  7 18  2 16 31 19 27
  18924630.847    -4800386.925 5  -3626778.856 3
  17835969.573   -34306980.306 6 -26554783.238 5
  16764826.081   -25786439.488 7
  19383999.737    -9845865.360 3   -204830.524 3
  17697936.159   -22381834.827 6   -192515.707 6
  16006567.401   -40220443.261 7 -31091185.943 8
  15659559.003   -36110869.836 7
 95  2 18 22  3 59.9830000  0  7  7 18  2 16 31 19 27
  18897150.339    -4944800.343 5  -3739308.518 3
  17848355.339   -34241889.010 6 -26504062.810 5
  16750610.347   -25861136.105 7
  19383022.753    -9851027.866 3   -208853.292 2
  17704506.534   -22347323.892 6   -165624.109 6
  16004762.620   -40229933.532 7 -31098580.950 8
  15645330.964   -36185637.111 7
 95  2 18 22  4 29.9830000  0  7  7 18  2 16 31 19 27
  18869685.573    -5089119.657 5  -3851764.888 4
  17860789.730   -34176550.884 6 -26453150.051 5
  16736435.956   -25935607.761 7
  19382120.112    -9855764.290 3   -212544.092 1
  17711157.042   -22312362.472 6   -138381.471 6
  16003008.855   -40239143.665 7 -31105757.666 8
  15631161.511   -36260119.690 7
 95  2 18 22  4 59.9830000  0  7  7 18  2 16 31 19 27
  18842237.519    -5233363.608 5  -3964162.515 3
  17873266.292   -34110989.812 6 -26402063.569 5
  16722307.480   -26009871.202 7
  19381300.792    -9860085.945 3   -215911.626 2
  17717891.706   -22276976.623 6   -110808.097 6
  16001307.659   -40248084.144 7 -31112724.266 8
  15617037.745   -36334323.481 7
 95  2 18 22  5 29.9830000  0  7  7 18  2 16 31 19 27
  18814802.753    -5377545.229 5  -4076511.573 4
  17885777.042   -34045228.808 6 -26350821.293 5
  16708218.105   -26083919.201 7
  19380553.276    -9863997.545 3   -218959.679 2
  17724704.800   -22241168.549 6    -82905.725 6
  15999660.730   -40256741.976 7 -31119470.620 8
  15602969.636   -36408246.948 7
 95  2 18 22  5 59.9830000  0  7  7 18  2 16 31 19 27
  18787379.136    -5521653.704 4  -4188803.670 4
  17898329.386   -33979272.762 6 -26299427.040 5
  16694171.667   -26157738.743 7        -0.47618
  19379886.675    -9867513.060 4   -221699.106 1
  17731604.097   -22204916.778 6    -54657.610 6
  15998067.480   -40265112.669 7 -31125993.228 8
  15588954.651   -36481895.676 7 -28248009.873 9
 95  2 18 22  6 29.9830000  0  7  7 18  2 16 31 19 27
  18759967.050    -5665672.753 4  -4301026.038 4
  17910918.745   -33913124.751 6 -26247883.200 5
  16680168.956   -26231325.234 7    -57340.573 8
  19379289.276    -9870647.376 3   -224141.467 2
  17738589.050   -22168216.536 6    -26060.033 6
  15996530.855   -40273181.814 7 -31132280.862 8
  15574990.816   -36555269.452 7 -28305184.227 9
 95  2 18 22  6 59.9830000  0  7  7 18  2 16 31 19 27
  18732584.097    -5809583.399 4  -4413163.973 3
  17923542.331   -33846790.968 6 -26196194.606 5
  16666212.480   -26304662.504 7   -114486.461 8
  19378761.776    -9873420.226 3   -226302.147 2
  17745656.691   -22131065.427 6      2888.868 6
  15995053.995   -40280944.314 7 -31138329.550 8
  15561080.409   -36628372.123 7 -28362147.324 9
 95  2 18 22  7 29.9830000  0  7  7 18  2 16 31 19 27
  18705223.550    -5953370.028 4  -4525205.295 3
  17936202.441   -33780251.004 6 -26144345.361 5
  16652304.300   -26377733.880 7   -171425.157 8
  19378304.651    -9875824.471 3   -228175.657 2
  17752812.839   -22093466.813 6     32186.475 6
  15993636.183   -40288399.381 7 -31144138.689 8
  15547221.347   -36701200.453 7 -28418896.650 9
 95  2 18 22  7 59.9830000  0  7  7 18  2 16 31 19 27
  18677886.167    -6097032.912 4  -4637150.152 3
  17948909.151   -33713491.078 6 -26092324.710 5
  16638448.066   -26450549.185 7   -228164.317 8
  19377915.128    -9877863.792 3   -229764.798 2
  17760048.839   -22055435.481 6     61821.264 6
  15992274.683   -40295556.235 7 -31149715.443 8
  15533417.706   -36773757.539 7 -28475434.625 9
 95  2 18 22  8 29.9830000  0  7  7 18  2 16 31 19 27
  18650567.855    -6240571.927 4  -4748998.548 4
  17961656.401   -33646509.341 6 -26040131.213 5
  16624642.644   -26523096.790 7   -284694.881 8
  19377604.628    -9879510.111 3   -231047.691 2
  17767370.222   -22016971.176 6     91793.428 6
  15990968.886   -40302411.258 7 -31155057.015 8
  15519661.058   -36846041.298 7 -28531759.608 9
 95  2 18 22  8 59.9830000  0  7  7 18  2 16 31 19 27
  18623281.081    -6383986.535 5  -4860749.973 2
  17974446.339   -33579291.526 6 -25987753.758 5
  16610895.276   -26595367.230 7   -341009.480 8
  19377368.737    -9880741.797 3   -232007.506 1
  17774769.276   -21978070.414 6    122105.686 6
  15989723.714   -40308963.124 7 -31160162.360 8
  15505956.792   -36918050.591 7 -28587870.730 9
 95  2 18 22  9 29.9830000  0  7  7 18  2 16 31 19 27
  18596010.105    -6527299.676 5  -4972422.389 3
  17987281.073   -33511834.265 6 -25935189.729 5
  16597191.269   -26667376.246 7   -397120.371 7
  19377217.081    -9881546.470 3   -232634.540 1
  17782255.847   -21938743.133 6    152750.303 6
  15988533.667   -40315214.725 7 -31165033.734 8
  15492306.581   -36989777.785 7 -28643762.030 9
 95  2 18 22  9 59.9830000  0  7  7 18  2 16 31 19 27
  18568750.073    -6670518.338 5  -5084021.184 4
  18000159.089   -33444153.507 6 -25882451.537 5
  16583531.362   -26739145.389 7   -453044.351 8
  19377139.651    -9881923.575 3
  17789823.519   -21898980.173 6    183734.409 6
  15987402.433   -40321160.731 7 -31169666.978 8
  15478712.261   -37061212.751 7 -28699425.625 9
 95  2 18 22 10 29.9830000  0  7  7 18  2 16 31 19 27
  18541517.737    -6813659.549 5  -5195559.642 5
  18013077.745   -33376280.108 6 -25829563.247 5
  16569916.511   -26810684.803 7   -508789.317 8
  19377149.870    -9881904.732 3
  17797472.300   -21858786.483 6    215054.144 5
  15986324.066   -40326822.608 7 -31174078.828 8
  15465174.347   -37132374.767 7 -28754876.531 9
 95  2 18 22 10 59.9830000  0  7  7 18  2 16 31 19 27
  18514289.105    -6956721.589 5  -5307036.421 4
  18026026.245   -33308227.067 5 -25776534.981 5
  16556344.691   -26882016.370 7   -564372.339 8
  19377221.511    -9881532.773 3
  17805198.019   -21818183.474 6    246692.825 6
  15985299.659   -40332205.385 7 -31178273.198 8
  15451684.823   -37203255.600 7 -28810108.338 9
 95  2 18 22 11 29.9830000  0  7  7 18  2 16 31 19 27
  18487088.808    -7099680.800 5  -5418433.089 5
  18039011.120   -33240006.892 6 -25723376.473 5
  16542811.808   -26953138.922 7   -619792.483 8
  19377355.730    -9880815.014 3   -232064.862 2
  17813004.917   -21777163.571 6    278656.359 5
  15984332.081   -40337297.471 7 -31182241.057 8
  15438251.386   -37273833.730 7 -28865104.276 9
 95  2 18 22 11 59.9830000  0  7  7 18  2 16 31 19 27
  18459905.362    -7242516.982 5  -5529733.918 5
  18052019.503   -33171639.668 6 -25670103.385 5
  16529313.800   -27024049.973 7   -675047.829 8
  19377554.323    -9879765.936 3   -231247.436 2
  17820887.003   -21735730.872 6    310941.554 6
  15983416.425   -40342107.163 7 -31185988.873 8
  15424877.698   -37344128.935 7 -28919879.757 9
 95  2 18 22 12 29.9830000  0  7  7 18  2 16 31 19 27
  18432749.120    -7385222.540 5  -5640932.954 5
  18065059.761   -33103116.128 5 -25616708.493 5
  16515867.261   -27094732.376 7   -730125.016 8
  19377811.495    -9878398.672 3   -230182.068 1
  17828848.222   -21693903.256 6    343534.477 6
  15982551.534   -40346644.058 7 -31189524.124 8
  15411550.730   -37414148.017 7 -28974440.067 9
 95  2 18 22 12 59.9830000  0  7  7 18  2 16 31 19 27
  18405621.628    -7527770.201 5  -5752008.967 5
  18078130.612   -33034421.338 5 -25563180.156 5
  16502458.386   -27165179.356 7   -785018.756 8
  19378139.941    -9876690.410 3   -228851.017 1
  17836879.159   -21651691.616 6    376426.642 5
  15981744.151   -40350895.176 7 -31192836.691 8
  15398284.425   -37483881.875 7 -29028778.133 9
 95  2 18 22 13 29.9830000  0  7  7 18  2 16 31 19 27
  18378522.839    -7670167.265 5  -5862967.660 5
  18091231.691   -32965568.528 5 -25509528.708 5
  16489100.776   -27235395.454 7   -839732.585 8
  19378530.011    -9874634.529 2   -227249.112 2
  17844983.495   -21609097.283 6    409617.008 6
  15980986.573   -40354867.566 7 -31195932.067 8
  15385060.831   -37553354.541 7 -29082912.675 9
 95  2 18 22 13 59.9830000  0  7  7 18  2 16 31 19 27
  18351459.276    -7812398.511 5  -5973797.121 5
  18104369.011   -32896542.003 5 -25455741.879 5
  16475783.878   -27305363.170 7   -894252.871 8
  19378993.276    -9872227.541 3   -225373.567 1
  17853164.276   -21566115.600 6    443109.191 5
  15980285.386   -40358550.780 7 -31198802.121 8
  15371894.542   -37622562.355 7 -29136840.834 9
 95  2 18 22 14 29.9830000  0  7  7 18  2 16 31 19 27
  18324425.995    -7954461.451 5  -6084495.455 5
  18117534.511   -32827347.926 5 -25401824.492 5
  16462517.776   -27375090.492 7   -948585.840 8
  19379514.003    -9869480.976 3   -223233.442 1
  17861417.503   -21522746.124 6    476903.561 5
  15979643.573   -40361935.582 7 -31201439.638 8
  15358773.050   -37691496.528 7 -29190555.760 9
 95  2 18 22 14 59.9830000  0  7  7 18  2 16 31 19 27
  18297425.980    -8096341.615 5  -6195051.355 5
  18130729.409   -32758002.378 5 -25347789.086 5
  16449291.753   -27444572.656 7  -1002727.761 8
  19380098.737    -9866376.070 3   -220814.089 1
  17869749.472   -21478965.388 6    511018.390 5
  15979061.925   -40364998.445 7 -31203826.304 8
  15345713.745   -37760141.674 7 -29244045.475 9
 95  2 18 22 15 29.9830000  0  7  7 18  2 16 31 19 27
  18270457.761    -8238071.284 5  -6305489.982 5
  18143951.355   -32688528.120 5 -25293653.392 5
  16436115.956   -27513830.814 7  -1056695.131 8
  19380753.183    -9862928.789 2   -218127.963 1
  17878158.526   -21434779.364 6    545449.041 6
  15978537.769   -40367743.518 7 -31205965.341 8
  15332703.956   -37828493.649 7 -29297306.738 9
 95  2 18 22 15 59.9830000  0  7  7 18  2 16 31 19 27
  18243514.839    -8379653.046 5  -6415813.349 5
  18157202.894   -32618913.863 5 -25239408.601 5
  16422977.081   -27582858.701 7  -1110483.068 8
  19381482.612    -9859126.642 3
  17886640.034   -21390183.022 6    580199.404 5
  15978077.925   -40370166.193 7 -31207853.147 8
  15319759.308   -37896535.238 7 -29350326.151 9
 95  2 18 22 16 29.9830000  0  7  7 18  2 16 31 19 27
  18216596.987    -8521103.494 5  -6526034.399 5
  18170477.253   -32549143.741 5 -25185042.358 5
  16409885.909   -27651658.366 7  -1164093.159 8
  19382274.026    -9854960.499 2
  17895209.019   -21345171.870 6    615272.994 5
  15977675.550   -40372273.645 7 -31209495.332 8
  15306870.800   -37964262.964 7 -29403100.984 9
 95  2 18 22 16 59.9830000  0  7  7 18  2 16 31 19 27
  18189700.370    -8662448.555 5  -6636173.316 5
  18183783.464   -32479213.871 6 -25130551.637 5
  16396836.784   -27720238.560 7  -1217532.231 8
  19383131.847    -9850427.063 2        -0.49611
  17903849.355   -21299762.902 6    650656.561 5
  15977332.237   -40374083.544 7 -31210905.666 8
  15294038.034   -38031676.284 7 -29455630.830 9
 95  2 18 22 17 29.9830000  0  7  7 18  2 16 31 19 27
  18162826.261    -8803660.646 5  -6746208.613 5
  18197128.097   -32409084.704 5 -25075905.622 5
  16383830.964   -27788589.650 7  -1270792.781 8
  19384074.706    -9845516.483 3      3825.903 1
  17912565.933   -21253951.544 6    686353.694 6
  15977046.612   -40375592.488 7 -31212081.481 8
  15281274.019   -38098755.086 7 -29507900.011 8
 95  2 18 22 17 59.9830000  0  7  7 18  2 16 31 19 27
  18135984.503    -8944728.100 5  -6856131.206 5
  18210512.667   -32338758.569 5 -25021106.138 5
  16370867.636   -27856708.135 7  -1323872.068 8
  19385077.839    -9840253.537 3
  17921358.269   -21207754.045 6    722351.700 5
  15976809.675   -40376824.284 7 -31213041.334 8
  15268569.855   -38165525.577 7 -29559928.954 8
 95  2 18 22 18 29.9830000  0  7  7 18  2 16 31 19 27
  18109170.144    -9085633.389 5  -6965927.410 5
  18223930.878   -32268246.864 5 -24966162.038 5
  16357947.933   -27924593.091 7  -1376769.399 8
  19386141.042    -9834654.076 3        -0.49111
  17930219.706   -21161191.215 6    758634.400 5
  15976626.995   -40377777.116 7 -31213783.813 8
  15255924.206   -38231986.113 7 -29611716.364 8
 95  2 18 22 18 59.9830000  0  7  7 18  2 16 31 19 27
  18082391.495    -9226350.216 5  -7075576.768 5
  18237379.269   -32197574.866 5 -24911093.033 5
  16345075.542   -27992239.792 7  -1429481.071 8
  19387265.050    -9828715.319 3      4627.094 1
  17939147.566   -21114270.841 6    795195.690 5
  15976503.269   -40378430.685 7 -31214293.110 8
  15243336.839   -38298129.277 7 -29663256.469 9
 95  2 18 22 19 29.9830000  0  7  7 18  2 16 31 19 27
  18055652.526    -9366871.133 5  -7185073.451 5
  18250851.464   -32126756.285 5 -24855909.832 4
  16332248.683   -28059646.078 7  -1482005.407 8
  19388459.136    -9822467.897 3      9495.141 2
  17948144.183   -21067007.003 6    832024.618 5
  15976437.683   -40378780.513 7
  15230807.894   -38363974.297 7 -29714564.268 8
 95  2 18 22 19 59.9830000  0  7  7 18  2 16 31 19 27
  18028945.816    -9507215.350 5  -7294432.453 5
  18264356.151   -32055809.107 5 -24800626.411 4
  16319466.151   -28126815.849 7  -1534345.449 8
  19389705.019    -9815924.125 3     14594.166 1
  17957197.948   -21019413.254 6    869110.613 5
  15976430.042   -40378823.415 7
  15218329.378   -38429537.647 7 -29765652.582 8
 95  2 18 22 20 29.9830000  0  7  7 18  2 16 31 19 27
  18002271.394    -9647396.771 5  -7403664.575 4
  18277879.597   -31984735.076 5 -24745244.148 5
  16306728.261   -28193761.335 7  -1586510.733 8
  19391007.292    -9809072.683 3     19932.864 2
  17966320.761   -20971478.610 6    906462.263 5
  15976481.011   -40378552.163 7
  15205910.081   -38494805.465 7 -29816510.617 9
 95  2 18 22 20 59.9830000  0  7  7 18  2 16 31 19 27
  17975623.816    -9787424.553 5  -7512776.995 5
  18291432.917   -31913515.684 5 -24689748.616 5
  16294032.128   -28260481.849 7  -1638500.718 8
  19392366.651    -9801912.262 3     25512.379 1
  17975509.550   -20923186.465 6    944092.467 5
  15976590.151   -40377973.313 7 -31213936.760 8
  15193544.222   -38559779.808 7 -29867139.965 9
 95  2 18 22 21 29.9820000  0  7  7 18  2 16 31 19 27
  17949007.522    -9927291.127 5  -7621763.770 5
  18305017.748   -31842125.472 5 -24634119.980 5
  16281378.311   -28326972.890 7  -1690311.896 8
  19393796.678    -9794435.547 3     31338.355 1
  17984771.873   -20874522.487 6    982012.413 5
  15976759.998   -40377092.721 7 -31213250.589 8
  15181239.615   -38624446.304 7 -29917529.435 9
 95  2 18 22 21 59.9820000  0  7  7 18  2 16 31 19 27
  17922422.186   -10067004.412 5  -7730631.120 5
  18318636.014   -31770569.249 5 -24578361.993 5
  16268765.178   -28393242.981 7  -1741950.910 8
  19395285.467    -9786612.471 3     37434.195 3
  17994107.584   -20825456.533 6   1020245.597 5
  15976982.006   -40375912.173 7 -31212330.703 8
  15168996.365   -38688795.327 7 -29967671.524 9
 95  2 18 22 22 29.9820000  0  7  7 18  2 16 31 19 27
  17895869.326   -10206545.599 5  -7839364.335 5
  18332279.615   -31698859.047 5 -24522484.017 4
  16256201.803   -28459281.668 7  -1793409.621 8
  19396836.287    -9778437.306 3     43804.393 1
  18003523.154   -20775982.924 5   1058796.434 5
  15977267.764   -40374429.845 7 -31211175.650 8
  15156812.998   -38752811.238 7 -30017554.037 8
 95  2 18 22 22 59.9820000  0  7  7 18  2 16 31 19 27
  17869346.529   -10345913.220 5  -7947962.300 5
  18345946.881   -31627035.599 5 -24466517.790 5
  16243677.115   -28525099.067 7  -1844695.896 8
  19398457.287    -9769937.312 3     50427.703 1
  18013005.615   -20726140.457 5   1097634.693 5
  15977602.631   -40372654.982 7 -31209792.652 8
  15144690.553   -38816513.030 7 -30067191.790 8
 95  2 18 22 23 29.9820000  0  7  7 18  2 16 31 19 27
  17842864.318   -10485086.882 5  -8056409.121 5
  18359631.623   -31555121.103 5 -24410480.632 5
  16231193.154   -28590686.811 7  -1895803.229 8
  19400139.686    -9761102.095 3     57312.240 3
  18022561.014   -20675925.787 5   1136762.970 5
  15978002.467   -40370564.657 7 -31208163.836 8
  15132632.225   -38879895.555 7 -30116580.763 9
 95  2 18 22 23 59.9820000  0  7  7 18  2 16 31 19 27
  17816414.678   -10624077.612 5  -8164713.402 5
  18373329.850   -31483147.720 5 -24354397.591 5
  16218758.537   -28656048.498 7  -1946734.406 8
  19401878.029    -9751955.165 3     64439.615 2
  18032182.772   -20625368.430 5   1176158.273 5
  15978455.170   -40368167.008 7 -31206295.548 8
  15120625.108   -38942974.354 7 -30165733.058 8
 95  2 18 22 24 29.9820000  0  7  7 18  2 16 31 19 27
  17790002.553   -10762863.847 5  -8272858.343 5
  18387039.483   -31411094.608 5 -24298252.410 4
  16206363.115   -28721173.356 7  -1997481.047 8
  19403678.600    -9742515.090 3     71795.481 2
  18041866.154   -20574490.616 5   1215803.291 5
  15978972.264   -40365453.650 7 -31204181.255 8
  15108684.881   -39005735.947 7 -30214638.183 9
 95  2 18 22 24 59.9820000  0  7  7 18  2 16 31 19 27
  17763630.451   -10901442.879 5  -8380841.815 5
  18400766.162   -31338957.344 5 -24242041.660 5
  16194016.600   -28786064.633 7  -2048045.672 8
  19405526.389    -9732800.987 3     79364.844 2
  18051605.053   -20523292.930 5   1255697.552 5
  15979548.647   -40362425.145 7 -31201821.388 7
  15096801.131   -39068176.336 7 -30263293.018 8
 95  2 18 22 25 29.9820000  0  8  7 18  2 16 15 31 19 27
  17737300.053   -11039817.322 5  -8488665.876 5
  18414518.920   -31266713.112 5 -24185747.590 5
  16181712.272   -28850722.399 7  -2098428.348 8
  19407424.639    -9722811.522 3     87148.771 1
  19501395.459          -0.13613
  18061414.537   -20471761.662 6   1295851.731 5
  15980183.498   -40359087.545 7 -31199220.668 8
  15084980.951   -39130283.153 7 -30311687.925 8
 95  2 18 22 25 59.9820000  0  8  7 18  2 16 15 31 19 27
  17711010.561   -11177968.626 5  -8596316.064 5
  18428290.779   -31194319.053 5 -24129336.757 5
  16169454.865   -28915123.084 7  -2148610.687 8
  19409379.779    -9712534.765 3     95156.585 2
  19481738.428     -103281.549 3        -0.42411
  18071286.428   -20419885.586 6   1336274.598 5
  15980879.959   -40355428.876 7 -31196369.770 7
  15073238.998   -39192009.314 7 -30359786.215 9
 95  2 18 22 26 29.9820000  0  8  7 18  2 16 15 31 19 27
  17684755.514   -11315932.960 5  -8703820.570 6
  18442093.162   -31121801.910 5 -24072830.006 5
  16157241.483   -28979309.755 7  -2198626.269 8
  19411383.561    -9701998.321 3    103366.761 3
  19462121.928     -206389.591 3    -80344.309 2
  18081216.373   -20367692.015 5   1376944.861 5
  15981633.623   -40351474.973 7 -31193288.811 8
  15061558.092   -39253384.161 7 -30407610.756 8
 95  2 18 22 26 59.9820000  0  8  7 18  2 16 15 31 19 27
  17658541.248   -11453701.215 5  -8811172.292 6
  18455917.264   -31049150.008 5 -24016218.249 4
  16145070.553   -29043269.234 7  -2248464.815 8
  19413443.404    -9691162.541 3    111810.142 2
  19442533.475     -309302.582 3   -160536.157 2
  18091216.170   -20315153.159 6   1417884.165 5
  15982443.811   -40347213.477 7 -31189968.172 7
  15049946.686   -39314400.112 7 -30455155.631 8
 95  2 18 22 27 29.9820000  0  8  7 18  2 16 15 31 19 27
  17632360.029   -11591289.814 5  -8918384.024 5
  18469769.912   -30976358.872 5 -23959498.021 4
  16132940.975   -29107011.479 7  -2298134.078 8
  19415568.350    -9680014.402 3    120496.946 2
  19422984.358     -412021.587 3   -240576.807 3
  18101278.600   -20262278.710 6   1459084.986 5
  15983312.608   -40342652.656 7 -31186414.293 7
  15038404.053   -39375065.096 7 -30502427.030 8
